[[[{"header":{"parameterUnit":"kt","parameterCategory":2,"dx":1,"dy":1,"la1":29.285339999999998,"la2":30.599998999999997,"lo1":-89.70041500000002,"lo2":-87.6738589999976,"nx":112,"ny":82,"refTime":"2022-10-05T12:00:00:Z","depth":0,"parameterNumber":1,"parameterNumberName":"U-component_of_WINDS"},"data":[0.2265,0.2438,0.0,1.0844,1.3048,0.0,2.201,0.0,2.4686,0.0,0.0,0.0,0.0,0.0,0.0,0.0,0.0,0.0,0.0,2.1064,0.0,0.0,0.0,0.0,0.0,0.0,0.0,0.0,0.0,0.0,0.0,0.0,0.8245,0.8761,1.06,1.1814,1.2005,1.2117,1.2321,1.2321,1.2321,1.2321,1.2321,1.2321,1.4406,1.8129,1.8128,1.9523,2.1985,2.1341,2.0659,2.0215,2.0736,2.1352,2.2153,2.3424,2.3918,2.3918,2.3918,2.3918,2.3918,2.3918,2.3918,2.3918,2.3918,2.3918,2.3918,2.3918,2.3918,2.3918,2.3918,2.3918,2.3918,2.3918,2.3918,2.3918,2.3918,2.3918,2.3918,2.3918,2.3918,2.4661,2.7191,2.7643,2.8392,3.0266,3.1527,3.2473,3.3181,3.4304,3.5004,3.5004,3.5004,3.5004,3.5004,3.5004,3.5004,3.5004,3.5004,3.5004,3.5004,3.5004,3.5004,3.5004,3.5004,3.5004,3.5004,3.5004,3.5004,3.5004,3.5004,3.5004,0.0,0.0,0.701,1.1921,0.0,0.0,0.0,0.0,2.8256,2.9097,2.8588,0.0,0.0,0.0,0.0,0.0,0.0,0.0,0.0,0.0,0.0,0.0,0.0,0.0,0.0,0.0,0.0,0.0,0.0,0.0,0.0,0.8371,0.9337,0.998,1.1274,1.1972,1.2314,1.2321,1.2321,1.2321,1.2321,1.2321,1.2321,1.2321,1.3957,1.7057,1.7136,1.8199,1.9948,1.9233,1.8612,1.8134,1.9486,2.0447,2.1186,2.2464,2.2943,2.2956,2.3736,2.3918,2.3918,2.3918,2.3918,2.3918,2.3918,2.3918,2.3918,2.3918,2.3918,2.3918,2.3918,2.3918,2.3918,2.3918,2.3918,2.3918,2.3918,2.3918,2.3918,2.3918,2.3918,2.4451,2.6351,2.6121,2.6326,2.8321,2.9596,3.083,3.2069,3.3315,3.4304,3.4872,3.5004,3.5004,3.5004,3.5004,3.5004,3.5004,3.5004,3.5004,3.5004,3.5004,3.5004,3.5004,3.5004,3.5004,3.5004,3.5004,3.5004,3.5004,3.5004,3.5004,0.0,0.0,1.7236,1.5606,2.089,2.5853,2.4297,2.9603,3.4795,3.3998,3.4454,0.0,0.0,0.0,0.0,0.0,0.0,0.0,0.0,0.0,0.0,0.0,0.0,0.0,0.0,0.0,0.0,0.0,0.0,0.0,1.0532,1.072,1.1142,1.1715,1.2018,1.2321,1.2321,1.2321,1.2321,1.2321,1.2321,1.2321,1.2321,1.2321,1.3337,1.5186,1.5177,1.6251,1.7831,1.5889,1.6246,1.7852,1.8003,1.9096,2.0755,2.0899,2.0899,2.1197,2.3112,2.3905,2.3918,2.3918,2.3918,2.3918,2.3918,2.3918,2.3918,2.3918,2.3918,2.3918,2.3918,2.3918,2.3918,2.3918,2.3918,2.3918,2.3918,2.3918,2.3918,2.3918,2.3918,2.4478,2.6296,2.5034,2.4478,2.6296,2.6578,2.7949,3.1645,3.2204,3.2894,3.4721,3.5004,3.5004,3.5004,3.5004,3.5004,3.5004,3.5004,3.5004,3.5004,3.5004,3.5004,3.5004,3.5004,3.5004,3.5004,3.5004,3.5004,3.5004,3.5004,3.5004,2.0813,2.1212,2.1768,2.4271,2.6467,2.8769,3.1221,3.3521,3.4947,3.472,3.4852,0.0,0.0,0.0,0.0,0.0,0.0,3.0473,0.0,2.7172,0.0,0.0,0.0,0.0,0.0,0.0,0.0,0.0,0.0,0.0,1.0713,1.101,1.1432,1.2032,1.213,1.2321,1.2321,1.2321,1.2321,1.2321,1.2321,1.2321,1.2321,1.2321,1.3387,1.5218,1.5136,1.5409,1.5889,1.5401,1.4666,1.4041,1.5451,1.6318,1.6973,1.8406,1.9716,2.1031,2.1663,2.2775,2.3918,2.3918,2.3918,2.3918,2.3918,2.3918,2.3918,2.3918,2.3918,2.3918,2.3918,2.3918,2.3918,2.3918,2.3918,2.3918,2.3918,2.3918,2.3918,2.3918,2.3918,2.4049,2.4607,2.4192,2.4049,2.462,2.573,2.7546,3.0025,3.151,3.2894,3.4721,3.5004,3.5004,3.5004,3.5004,3.5004,3.5004,3.5004,3.5004,3.5004,3.5004,3.5004,3.5004,3.5004,3.5004,3.5004,3.5004,3.5004,3.5004,3.5004,3.5004,2.8104,2.9289,2.9806,2.9871,3.1102,3.2473,3.2391,3.3771,3.5004,3.5004,0.0,0.0,0.0,0.0,0.0,0.0,3.2556,0.0,0.0,0.0,2.1348,0.0,0.0,0.0,0.0,0.0,0.0,0.0,0.0,1.0548,1.101,1.1306,1.1682,1.2157,1.2321,1.2321,1.2321,1.2321,1.2321,1.2321,1.2321,1.2321,1.2321,1.2321,1.2793,1.3883,1.3883,1.3883,1.3883,1.3883,1.3258,1.2327,1.3567,1.3883,1.4199,1.6096,1.8108,1.984,2.0668,2.2296,2.3918,2.3918,2.3918,2.3918,2.3918,2.3918,2.3918,2.3918,2.3918,2.3918,2.3918,2.3918,2.3918,2.3918,2.3918,2.3918,2.3918,2.3918,2.3918,2.3918,2.3918,2.3918,2.3918,2.3918,2.3918,2.3918,2.475,2.6422,2.9199,3.042,3.2069,3.4721,3.5004,3.5004,3.5004,3.5004,3.5004,3.5004,3.5004,3.5004,3.5004,3.5004,3.5004,3.5004,3.5004,3.5004,3.5004,3.5004,3.5004,3.5004,3.5004,3.5004,3.7006,3.9273,3.9313,3.3892,3.5412,3.655,3.1,0.0,3.5269,3.5004,0.0,3.5004,3.5004,0.0,0.0,0.0,0.0,0.0,2.5463,2.3213,1.89,0.0,0.0,0.0,0.0,0.0,1.1651,0.8322,0.9886,1.0983,1.126,1.1557,1.186,1.2157,1.2321,1.2321,1.2321,1.2321,1.2321,1.2321,1.2321,1.2321,1.2321,1.2321,1.2321,1.2321,1.2321,1.2321,1.2321,1.2321,1.2321,1.2321,1.2321,1.2321,1.2478,1.4199,1.6052,1.7998,1.9979,2.1985,2.3593,2.3762,2.3918,2.3918,2.3918,2.3918,2.3918,2.3918,2.3918,2.3918,2.3918,2.3918,2.3918,2.3918,2.3918,2.3918,2.3918,2.3918,2.3918,2.3918,2.3918,2.3918,2.3918,2.3918,2.3918,2.3918,2.3918,2.5163,2.8783,2.9475,3.0846,3.4304,3.4872,3.5004,3.5004,3.5004,3.5004,3.5004,3.5004,3.5004,3.5004,3.5004,3.5004,3.5004,3.5004,3.5004,3.5004,3.5004,3.5004,3.5004,3.5004,3.5004,4.012,4.2768,4.3344,4.105,4.0972,4.0646,0.0,0.0,0.0,3.5269,3.5004,3.5004,3.5004,0.0,0.0,0.0,0.0,0.0,0.0,0.0,0.0,0.0,0.0,0.0,0.0,1.1418,1.2177,1.0152,1.0561,1.0983,1.126,1.1557,1.186,1.2157,1.2321,1.2321,1.2321,1.2321,1.2321,1.2321,1.2321,1.2321,1.2321,1.2321,1.2321,1.2321,1.2321,1.2321,1.2321,1.2321,1.2321,1.2321,1.2321,1.2321,1.2321,1.2635,1.4118,1.6062,1.7955,1.9926,2.1818,2.3424,2.3918,2.3918,2.3918,2.3918,2.3918,2.3918,2.3918,2.3918,2.3918,2.3918,2.3918,2.3918,2.3918,2.3918,2.3918,2.3918,2.3918,2.3918,2.3918,2.3918,2.3918,2.3918,2.3918,2.3918,2.3918,2.475,2.6845,2.8506,3.0436,3.2608,3.4152,3.5004,3.5004,3.5004,3.5004,3.5004,3.5004,3.5004,3.5004,3.5004,3.5004,3.5004,3.5004,3.5004,3.5004,3.5004,3.5004,3.5004,3.5004,3.5004,4.1227,4.3749,4.4718,4.3986,4.3152,0.0,0.0,3.8789,3.6391,3.2669,3.1161,3.0272,2.9341,0.0,0.0,0.0,0.0,0.0,0.0,0.0,0.0,0.0,0.0,0.0,0.0,1.0634,1.1769,1.0979,1.1128,1.1353,1.1491,1.1781,1.2012,1.2163,1.2321,1.2321,1.2321,1.2321,1.2321,1.2321,1.2321,1.2321,1.2321,1.2321,1.2321,1.2321,1.2321,1.2321,1.2321,1.2321,1.2321,1.2321,1.2321,1.2321,1.2321,1.2321,1.3435,1.5241,1.6322,1.8486,2.1186,2.2141,2.3112,2.3918,2.3918,2.3918,2.3918,2.3918,2.3918,2.3918,2.3918,2.3918,2.3918,2.3918,2.3918,2.3918,2.3918,2.3918,2.3918,2.3918,2.3918,2.3918,2.3918,2.3918,2.3918,2.3918,2.3918,2.4607,2.6437,2.8367,3.0299,3.2104,3.3904,3.5004,3.5004,3.5004,3.5004,3.5004,3.5004,3.5004,3.5004,3.5004,3.5004,3.5004,3.5004,3.5004,3.5004,3.5004,3.5004,3.5004,3.5004,3.5004,4.1471,4.3749,4.4859,4.4859,4.3986,0.0,4.2647,4.0149,3.6468,3.1006,2.8017,2.5635,2.3822,2.025,0.0,0.0,0.0,0.0,0.0,0.0,0.0,0.0,0.0,0.0,0.0,1.046,1.1273,1.1273,1.1498,1.1656,1.1715,1.1952,1.2084,1.2084,1.2137,1.2144,1.2084,1.2144,1.2321,1.2321,1.2321,1.2321,1.2321,1.2321,1.2321,1.2321,1.2321,1.2321,1.2321,1.2321,1.2321,1.2321,1.2321,1.2321,1.2321,1.2321,1.3258,1.4666,1.4983,1.7538,2.0425,2.091,2.2308,2.3918,2.3918,2.3918,2.3918,2.3918,2.3918,2.3918,2.3918,2.3918,2.3918,2.3918,2.3918,2.3918,2.3918,2.3918,2.3918,2.3918,2.3918,2.3918,2.3918,2.3918,2.3918,2.3918,2.3918,2.4478,2.5872,2.8089,3.0179,3.1578,3.3637,3.5004,3.5004,3.5004,3.5004,3.5004,3.5004,3.5004,3.5004,3.5004,3.5004,3.5004,3.5004,3.5004,3.5004,3.5004,3.5004,3.5004,3.5004,3.5004,4.1471,4.3749,0.0,4.4859,4.4718,0.0,4.2888,4.1162,3.8663,0.0,2.987,2.5635,2.3822,0.0,0.0,0.0,0.0,0.0,0.0,0.0,0.0,0.0,0.0,0.0,0.0,1.129,1.1273,1.1273,1.1306,1.1438,1.1709,1.1755,1.1768,1.1768,1.2032,1.2045,1.1774,1.2038,1.2321,1.2321,1.2321,1.2321,1.2321,1.2321,1.2321,1.2321,1.2321,1.2321,1.2321,1.2321,1.2321,1.2321,1.2321,1.2321,1.2321,1.2321,1.2327,1.2793,1.4516,1.6529,1.8624,2.0436,2.2308,2.3918,2.3918,2.3918,2.3918,2.3918,2.3918,2.3918,2.3918,2.3918,2.3918,2.3918,2.3918,2.3918,2.3918,2.3918,2.3918,2.3918,2.3918,2.3918,2.3918,2.3918,2.3918,2.3918,2.3918,2.4049,2.4192,2.7391,2.9612,2.975,3.293,3.5004,3.5004,3.5004,3.5004,3.5004,3.5004,3.5004,3.5004,3.5004,3.5004,3.5004,3.5004,3.5004,3.5004,3.5004,3.5004,3.5004,3.5004,3.5004,4.3535,4.4365,4.4859,4.4859,0.0,0.0,4.2888,3.8643,3.3326,0.0,2.0723,1.5505,1.3616,1.0037,0.0,0.0,0.0,0.0,0.0,0.0,0.0,0.0,0.0,0.0,0.0,1.112,0.0,1.155,1.1695,1.1702,1.1478,1.1458,1.1458,1.1458,1.1583,1.1669,1.1722,1.1847,1.1999,1.2321,1.2321,1.2321,1.2321,1.2321,1.2321,1.2321,1.2321,1.2321,1.2321,1.2321,1.2321,1.2321,1.2321,1.2321,1.2321,1.2321,1.2321,1.2327,1.3101,1.4674,1.6476,1.7331,1.9628,2.2153,2.2153,2.2956,2.3918,2.3918,2.3918,2.3918,2.3918,2.3918,2.3918,2.3918,2.3918,2.3918,2.3918,2.3918,2.3918,2.3918,2.3918,2.3918,2.3918,2.3646,2.3425,2.3425,2.3139,2.2919,2.2919,2.5524,2.778,2.8849,3.1673,3.3886,3.4872,3.5004,3.5004,3.5004,3.5004,3.5004,3.5004,3.5004,3.5004,3.5004,3.5004,3.5004,3.5004,3.5004,3.5004,3.5004,3.5004,3.5004,4.4762,0.0,0.0,0.0,0.0,0.0,4.0807,3.5248,2.8462,2.0784,1.3603,0.8212,0.6303,0.2782,0.0,0.0,0.0,0.0,0.0,0.0,0.0,0.0,0.0,0.0,0.0,0.0,0.0,0.0,1.2045,1.1906,1.1306,1.1353,1.1326,1.1168,1.1234,1.1346,1.1484,1.1616,1.1761,1.2074,1.2241,1.2321,1.2321,1.2321,1.2321,1.2321,1.2321,1.2321,1.2321,1.2321,1.2321,1.2321,1.2321,1.2321,1.217,1.2163,1.2013,1.2013,1.2013,1.3258,1.4919,1.4881,1.7534,2.0648,2.0778,2.2153,2.3749,2.3905,2.3918,2.3918,2.3918,2.3918,2.3918,2.3918,2.3918,2.3918,2.3918,2.3659,2.3438,2.3438,2.3438,2.3438,2.3438,2.31,2.2841,2.2841,2.2477,2.2204,2.2204,2.4169,2.6302,2.8127,3.049,3.2705,3.4532,3.4871,3.5004,3.5004,3.5004,3.5004,3.5004,3.5004,3.5004,3.5004,3.5004,3.5004,3.5004,3.5004,3.5004,3.5004,3.5004,3.489,0.0,0.0,0.0,4.4859,4.3749,4.1131,3.537,3.1424,2.6684,1.8956,1.274,0.8212,0.6303,0.2782,0.0,0.0,0.0,0.0,0.0,0.0,0.0,0.0,0.0,0.0,0.0,0.0,0.0,0.0,1.2163,1.1906,1.1306,1.155,1.1451,1.0898,1.1135,1.1155,1.0891,1.1359,1.164,1.174,1.204,1.2321,1.2321,1.2321,1.2321,1.2321,1.2321,1.2321,1.2321,1.2321,1.2321,1.2321,1.2321,1.2321,1.217,1.1856,1.1699,1.1699,1.1392,1.2635,1.4191,1.4184,1.6706,1.9802,2.0447,2.1818,2.3268,2.3749,2.3918,2.3918,2.3918,2.3918,2.3918,2.3918,2.3918,2.3918,2.3918,2.3035,2.2256,2.2256,2.2256,2.2256,2.2256,2.2243,2.223,2.223,2.2217,2.2204,2.2204,2.3939,2.5627,2.7292,2.9836,3.2026,3.3681,3.4549,3.5004,3.5004,3.5004,3.5004,3.5004,3.5004,3.5004,3.5004,3.5004,3.5004,3.5004,3.5004,3.5004,3.5004,3.5004,3.4587,4.4008,4.5079,4.5945,4.3868,4.0049,3.565,3.15,2.3494,1.6105,1.2348,0.6973,0.2758,0.2112,0.0921,0.0,0.0,0.0,0.0,0.0,0.0,0.0,0.0,0.0,0.0,0.0,0.0,0.0,0.0,0.0,0.0,1.1306,1.1372,1.1254,1.0878,1.0766,1.0759,1.0865,1.1233,1.1512,1.1712,1.2034,1.2321,1.2321,1.2321,1.2321,1.2321,1.2321,1.2025,1.163,1.1547,1.1548,1.1548,1.1548,1.1548,1.1548,1.1392,1.138,1.1425,1.1289,1.1711,1.227,1.227,1.3982,1.6336,1.7661,1.9376,2.1092,2.2368,2.2682,2.2789,2.2789,2.2789,2.2789,2.2789,2.2789,2.2789,2.2789,2.2477,2.2204,2.2204,2.2204,2.2204,2.2204,2.1906,2.1646,2.1646,2.1334,2.1101,2.1101,2.2053,2.331,2.5064,2.7309,2.9401,3.1232,3.3165,3.4207,3.4207,3.4701,3.5004,3.5004,3.5004,3.5004,3.5004,3.5004,3.4739,3.4207,3.4739,3.5004,3.5004,3.4454,3.4055,4.1634,4.2211,4.2589,3.8529,3.3699,2.9436,2.7273,1.8218,1.0099,0.9007,0.4069,0.0,0.0,0.0,0.0,0.0,0.0,0.0,0.0,0.0,0.0,0.0,0.0,0.0,0.0,0.0,0.0,0.0,0.0,1.1959,1.1458,1.1333,1.1148,1.0878,1.0575,1.0515,1.0706,1.1039,1.1242,1.1573,1.188,1.2163,1.2321,1.2321,1.217,1.1987,1.188,1.1686,1.1281,1.1234,1.1245,1.1245,1.1245,1.1245,1.1245,1.1102,1.1069,1.1088,1.1081,1.0952,1.0952,1.0952,1.2293,1.4163,1.5988,1.7928,1.9736,2.1631,2.2105,2.2204,2.2204,2.2204,2.2204,2.2204,2.2204,2.21,2.1685,2.1607,2.1607,2.1607,2.1607,2.1607,2.1607,2.1308,2.1062,2.1062,2.0763,2.0652,2.0652,2.0841,2.1804,2.3522,2.5713,2.7743,2.9628,3.1931,3.3334,3.3334,3.3827,3.4112,3.4112,3.4112,3.4112,3.4112,3.4416,3.4169,3.3334,3.3865,3.4112,3.4112,3.3581,3.3334,3.77,3.6854,3.5548,2.9906,2.5818,2.3069,2.3189,1.5682,0.8729,0.8881,0.4198,0.0,0.0,0.0,0.0,0.0,0.0,0.0,0.0,0.0,0.0,0.0,0.0,0.0,0.0,0.0,0.0,0.0,1.0774,1.1714,1.1419,1.1142,1.0872,1.0602,1.0306,1.0288,1.0294,1.0559,1.0965,1.124,1.1567,1.1856,1.217,1.217,1.198,1.1553,1.1322,1.1217,1.1217,1.1217,1.1217,1.1217,1.1217,1.1217,1.1217,1.0952,1.0823,1.0816,1.0552,1.0552,1.0552,1.0552,1.1618,1.3318,1.5491,1.7292,1.9174,2.1349,2.1994,2.2126,2.2126,2.2126,2.2126,2.2126,2.2126,2.1828,2.0763,2.0652,2.0652,2.0652,2.0652,2.0652,2.0652,2.0652,2.0652,2.0652,2.0652,2.0652,2.0652,2.0652,2.1117,2.2642,2.5014,2.7001,2.8595,3.0959,3.2461,3.2461,3.2499,3.2395,3.2395,3.2395,3.2395,3.2395,3.3277,3.3258,3.2461,3.2499,3.2395,3.2395,3.248,3.2461,3.6688,3.7073,3.6434,2.864,2.4947,2.3069,2.3189,1.5682,0.9107,1.032,0.4942,0.0,0.0,0.0,0.0,0.0,0.0,0.0,0.0,0.0,0.0,0.0,0.0,0.0,0.0,0.0,0.0,0.0,0.7295,0.7611,0.7418,0.7217,0.7107,0.6926,0.6732,0.7158,0.8457,0.8586,0.9437,1.0924,1.1229,1.1392,1.1548,1.1548,1.1393,1.1127,1.0953,1.0823,1.0688,1.0688,1.0688,1.0688,1.0688,1.0688,1.0688,1.0681,1.0552,1.0552,1.0552,1.0552,1.0552,1.0552,1.0816,1.1489,1.326,1.5043,1.6808,1.8612,2.0051,2.0958,2.0958,2.0958,2.0958,2.0958,2.0958,2.088,2.0718,2.0652,2.0652,2.0652,2.0652,2.0652,2.0652,2.0652,2.0652,2.0652,2.0652,2.0652,2.0652,2.0652,2.0762,2.1117,2.3769,2.5782,2.614,2.9482,3.1549,3.1549,3.2157,3.2395,3.2395,3.2395,3.2395,3.2395,3.21,3.1758,3.1549,3.2214,3.2395,3.2395,3.1853,3.1549,3.9388,3.6688,3.2487,2.4395,1.9662,1.8121,2.2343,1.4415,0.7302,1.0819,0.5389,0.0,0.0,0.0,0.0,0.0,0.0,0.0,0.0,0.0,0.0,0.0,0.0,0.0,0.0,0.0,0.0,0.0,0.5546,0.6024,0.6078,0.5725,0.565,0.5701,0.5413,0.6113,0.7805,0.781,0.8731,1.0694,1.0945,1.111,1.1258,1.1258,1.1043,1.0688,1.0688,1.0681,1.0552,1.0552,1.0552,1.0552,1.0552,1.0552,1.0552,1.0552,1.0552,1.0552,1.0552,1.0552,1.0552,1.0552,1.0552,1.0796,1.2528,1.3653,1.4789,1.6482,1.814,1.9529,1.9529,2.0024,2.0652,2.0652,2.0652,2.0652,2.0652,2.0652,2.0652,2.0652,2.0652,2.0652,2.0652,2.0652,2.0652,2.0652,2.0652,2.0652,2.0652,2.0652,2.0652,2.0652,2.2777,2.4559,2.5168,2.8014,2.9941,3.0676,3.1132,3.1398,3.1398,3.1398,3.1398,3.1398,3.0923,3.0676,3.0676,3.1151,3.1398,3.1379,3.0904,3.0676,4.2216,3.5483,2.6601,1.9661,1.4398,1.3206,2.1247,1.3289,0.5738,1.1153,0.5744,0.0,0.0,0.0,0.0,0.0,0.0,0.0,0.0,0.0,0.0,0.0,0.0,0.0,0.0,0.0,0.0,0.0,0.4292,0.5192,0.5174,0.4942,0.4879,0.4861,0.4614,0.5335,0.7024,0.7037,0.8079,1.0165,1.0423,1.0688,1.1217,1.1217,1.0952,1.0552,1.0552,1.0552,1.0552,1.0552,1.0552,1.0552,1.0552,1.0552,1.0552,1.0552,1.0552,1.0552,1.0552,1.0552,1.0552,1.0552,1.0552,1.0803,1.2281,1.279,1.3316,1.4836,1.6492,1.7766,1.7766,1.8773,2.0024,2.027,2.027,2.027,2.027,2.0406,2.0652,2.0652,2.0652,2.0652,2.0652,2.0652,2.0652,2.0652,2.0652,2.0652,2.0652,2.0652,2.0652,2.0652,2.2065,2.3484,2.4797,2.6564,2.8205,2.9482,2.9842,2.9955,2.9955,2.9955,2.9955,2.9955,2.9955,2.9955,2.9955,2.9955,2.9955,2.9955,2.9955,2.9955,3.6444,3.1771,2.5178,1.9298,1.9448,2.095,2.0999,1.5481,1.1016,1.3433,0.6489,0.0,0.0,0.0,0.0,0.0,0.0,0.0,0.0,0.0,0.0,0.0,0.0,0.0,0.0,0.0,0.0,0.0,0.0,0.1088,0.1063,0.0945,0.0944,0.0924,0.0918,0.1698,0.3386,0.3379,0.5072,0.8219,0.8317,0.9096,1.0681,1.0681,1.0552,1.0552,1.0552,1.0552,1.0552,1.0552,1.0552,1.0552,1.0552,1.0552,1.0552,1.0552,1.0552,1.0552,1.0552,1.0552,1.0552,1.0552,1.0552,1.0552,1.0796,1.1929,1.3061,1.3316,1.471,1.598,1.598,1.6231,1.6743,1.814,1.8525,1.8525,1.8525,1.9653,2.0652,2.0652,2.0652,2.0652,2.0652,2.0652,2.0652,2.0652,2.0652,2.0652,2.0652,2.0652,2.0652,2.0652,2.2065,2.3003,2.3364,2.5962,2.7744,2.7975,2.9255,2.9955,2.9955,2.9955,2.9955,2.9955,2.9955,2.9955,2.9955,2.9955,2.9955,2.9955,2.9955,2.9955,3.6798,3.1436,2.4381,2.0186,2.1082,2.3395,2.4698,1.9421,1.3203,0.9332,0.5669,0.2514,0.0394,0.1715,0.2514,0.0394,0.0,0.0,0.0,0.0,0.0,0.0,0.0,0.0,0.0,0.0,0.0,0.0,0.0,0.0,0.0,0.0,0.0,0.0,0.0,0.0785,0.2475,0.2478,0.3788,0.6417,0.7412,0.8177,0.9096,0.9225,0.9225,0.9096,1.0023,1.0552,1.0552,1.0552,1.0552,1.0552,1.0552,1.0552,1.0552,1.0552,1.0552,1.0552,1.0552,1.0552,1.0552,1.0552,1.0552,1.0552,1.0552,1.1053,1.168,1.168,1.2942,1.4204,1.4204,1.4836,1.5728,1.6618,1.6116,1.598,1.7641,1.8773,1.9529,2.0406,2.0652,2.0652,2.0652,2.0652,2.0652,2.0652,2.0652,2.0652,2.0652,2.0652,2.0652,2.0652,2.1239,2.2065,2.2883,2.4306,2.5844,2.7495,2.8321,2.9026,2.9842,2.9955,2.9955,2.9955,2.9955,2.9955,2.9955,2.9955,2.9955,2.9955,2.9955,2.9955,3.7849,3.2215,2.4726,2.2215,2.2672,2.3959,2.4851,2.1538,1.5838,0.6809,0.5886,0.5198,0.0788,0.2648,0.3725,0.0525,0.0,0.0,0.0,0.0,0.0,0.0,0.0,0.0,0.0,0.0,0.0,0.0,0.0,0.0,0.0,0.0,0.0,0.0,0.0,0.0654,0.1956,0.1963,0.2885,0.0,0.6518,0.7273,0.7255,0.7403,0.7407,0.7393,0.9108,1.0165,1.0552,1.0552,1.0552,1.0552,1.0552,1.0552,1.0552,1.0552,1.0552,1.0552,1.0552,1.0552,1.0552,1.0552,1.0552,1.0552,1.0552,1.0552,1.0552,1.0552,1.1431,1.2432,1.2432,1.3451,1.4466,1.4466,1.3697,1.3697,1.6367,1.7255,1.8015,1.9777,2.0024,2.0147,2.0529,2.0652,2.0652,2.0652,2.0652,2.0652,2.0652,2.0652,2.0652,2.0652,2.0652,2.1117,2.2293,2.2762,2.3948,2.643,2.7263,2.8205,2.9369,2.9728,2.9955,2.9955,2.9955,2.9955,2.9955,2.9955,2.9955,2.9955,2.9955,2.9955,3.5794,3.2754,2.7435,2.5992,2.6676,2.4723,1.3568,1.8039,2.1918,1.2911,0.971,0.6724,0.1049,0.0262,0.0394,0.0,0.0,0.0,0.0,0.0,0.0,0.0,0.0,0.0,0.0,0.0,0.0,0.0,0.0,0.0,0.0,0.0,0.0,0.0,0.0,0.0131,0.0262,0.0262,0.1048,0.2754,0.4855,0.5746,0.5433,0.5489,0.5492,0.5594,0.7297,0.8996,1.0552,1.0552,1.0552,1.0552,1.0552,1.0552,1.0552,1.0552,1.0552,1.0552,1.0552,1.0552,1.0552,1.0552,1.0552,1.0552,1.0552,1.0552,1.0552,1.0552,1.0545,1.0674,1.0674,1.0803,1.0932,1.0932,1.2057,1.3061,1.3443,1.471,1.6241,1.8015,1.8276,1.8773,2.027,2.0652,2.0652,2.0652,2.0652,2.0652,2.0652,2.0652,2.0652,2.0652,2.0652,2.0652,2.0762,2.2172,2.2989,2.3349,2.6079,2.7611,2.7859,2.9141,2.9955,2.9955,2.9955,2.9955,2.9955,2.9955,2.9955,2.9955,2.9955,2.9955,4.2659,4.0067,3.506,3.2981,3.0863,2.8317,2.435,2.3805,2.2174,1.5705,1.141,0.8692,0.7822,0.5433,0.2784,0.0394,0.0,0.0,0.0,0.0,0.0,0.0,0.0,0.0,0.0,0.0,0.0,0.0,0.0,0.0,0.0,0.0,0.0,0.0,0.0,0.0,0.0,0.0,0.0393,0.1048,0.2885,0.3141,0.2084,0.3405,0.3793,0.3639,0.4307,0.5612,0.7283,0.7393,0.7909,0.8833,0.8833,0.9495,1.0552,1.0552,1.0552,1.0552,1.0552,1.0552,1.0552,1.0552,1.0552,1.0552,1.0552,1.0552,1.0552,1.0552,1.0552,1.0552,1.0552,1.0552,1.0552,1.0552,1.1053,1.1808,1.2807,1.357,1.4583,1.6241,1.738,1.8276,1.9022,1.99,2.0652,2.0652,2.0652,2.0652,2.0652,2.0652,2.0652,2.0652,2.0652,2.0652,2.0652,2.1117,2.1943,2.2883,2.5034,2.6213,2.6213,2.855,2.9955,2.9955,2.9955,2.9955,2.9955,2.9955,2.9955,2.9955,2.9955,2.9955,4.9344,4.5209,3.9472,3.9651,3.5927,3.2909,3.625,3.0386,2.347,2.0777,1.5106,1.1286,1.3311,1.0353,0.6177,0.1575,0.1833,0.1966,0.0262,0.0,0.0,0.0,0.0,0.0,0.0,0.0,0.0,0.0,0.0,0.0,0.0,0.0,0.0,0.0,0.0,0.0,0.0,0.0,0.0,0.0,0.1835,0.1704,0.0,0.1573,0.2092,0.1824,0.2355,0.327,0.4431,0.5072,0.5979,0.7028,0.7527,0.8569,0.9759,1.0288,1.0552,1.0552,1.0552,1.0552,1.0552,1.0552,1.0552,1.0552,1.0552,1.0552,1.0552,1.0552,1.0552,1.0552,1.0552,1.0552,1.0552,1.0552,1.0552,1.0803,1.2057,1.2312,1.2815,1.4457,1.6116,1.7516,1.8027,1.9529,2.0652,2.0652,2.0652,2.0652,2.0652,2.0652,2.0652,2.0652,2.0652,2.0652,2.0652,2.0652,2.1117,2.2186,2.4083,2.5287,2.5287,2.8321,2.9955,2.9955,2.9955,2.9955,2.9955,2.9955,2.9955,2.9955,2.9955,2.9955,5.3611,4.6092,3.8412,4.503,4.1737,3.8455,4.5171,3.6219,2.7036,2.9546,2.1878,1.4837,1.5392,1.3458,0.9788,0.3536,0.6029,0.658,0.0786,0.0,0.0,0.0,0.0,0.0,0.0,0.0,0.0,0.0,0.0,0.0,0.0,0.0,0.0,0.0,0.0,0.0,0.0,0.0,0.0,0.0,0.2097,0.1966,0.0,0.0,0.0,0.0131,0.1835,0.2491,0.2754,0.4465,0.5255,0.5382,0.7153,0.778,0.8043,0.9888,1.0552,1.0552,1.0552,1.0552,1.0552,1.0552,1.0552,1.0552,1.0552,1.0552,1.0552,1.0552,1.0552,1.0552,1.0552,1.0552,1.0552,1.0552,1.0552,1.0552,1.0552,1.0552,1.1053,1.2687,1.4457,1.6105,1.7766,1.9529,2.0652,2.0652,2.0652,2.0652,2.0652,2.0652,2.0652,2.0652,2.0652,2.0652,2.0652,2.0652,2.0652,2.0652,2.3514,2.5287,2.5287,2.8321,2.9955,2.9955,2.9955,2.9955,2.9955,2.9955,2.9955,2.9955,2.9955,2.9955,6.0678,5.8524,5.5706,5.8747,5.367,4.6781,4.2215,3.3537,2.6346,2.6312,2.2743,2.0145,2.1507,1.3062,0.6081,0.6724,0.446,0.2097,0.0262,0.0,0.0,0.0,0.0,0.0,0.0,0.0,0.0,0.0,0.0,0.0,0.0,0.0,0.0,0.0,0.0,0.0,0.0,0.0,0.0,0.0,0.0655,0.0655,0.0,0.0,0.0,0.0,0.0524,0.0786,0.0786,0.1442,0.1704,0.1834,0.3529,0.4942,0.6082,0.673,0.6864,0.7126,0.8177,0.8698,0.8833,1.0152,1.0552,1.0552,1.0552,1.0552,1.0552,1.0552,1.0552,1.0552,1.0552,1.0552,1.0552,1.0552,1.0552,1.0552,1.0552,1.0552,1.0674,1.1182,1.2687,1.433,1.6105,1.7754,1.927,2.0406,2.0652,2.0652,2.0652,2.0652,2.0652,2.0652,2.0652,2.0652,2.0652,2.0652,2.0652,2.0652,2.2535,2.4202,2.5287,2.7263,2.8798,2.9955,2.9955,2.9955,2.9955,2.9955,2.9955,2.9955,2.9955,2.9955,6.4321,6.267,6.0321,6.0611,5.7189,5.1997,4.4878,3.7343,3.2288,3.4146,3.3586,3.2181,3.0376,2.2013,1.375,0.8422,0.7021,0.5537,0.2643,0.0921,0.0526,0.2121,0.0922,0.0,0.0,0.0,0.0,0.0,0.0,0.0,-0.1966,-0.131,-0.0917,-0.0917,-0.0393,0.0,0.0,0.0,0.0,0.0,0.0,0.0,0.0,0.0,0.0,0.0,0.0,0.0,0.0,0.0,0.0,0.0131,0.1179,0.2612,0.4288,0.4942,0.5202,0.5464,0.651,0.6756,0.7126,0.8833,0.9489,0.9624,1.0288,1.0552,1.0552,1.0552,1.0552,1.0552,1.0552,1.0552,1.0552,1.0552,1.0552,1.0552,1.0552,1.0552,1.0552,1.0552,1.1808,1.357,1.5214,1.7005,1.8649,2.0406,2.0652,2.0652,2.0652,2.0652,2.0652,2.0652,2.0652,2.0652,2.0652,2.0652,2.0652,2.0652,2.2065,2.3604,2.5168,2.6797,2.8321,2.9842,2.9955,2.9955,2.9955,2.9955,2.9955,2.9955,2.9955,2.9955,6.5155,6.0749,5.5583,5.3663,5.4137,5.4312,5.1138,4.5576,4.2807,4.934,5.0425,4.7979,4.0557,3.7685,2.9856,1.0045,1.2265,1.3964,0.657,0.2386,0.1588,0.5673,0.2522,0.0131,0.0524,0.0,0.0,0.0,0.0,0.0,-0.5117,-0.3669,-0.2752,-0.2754,-0.1048,-0.0131,-0.0131,0.0,0.0,-0.0131,0.0,0.0,0.0,0.0,0.0,0.0,-0.0131,-0.0131,0.0,-0.0131,-0.0131,0.0,0.0,0.0917,0.2492,0.42,0.4858,0.4858,0.4992,0.5088,0.5304,0.6997,0.7651,0.8043,0.9759,1.0416,1.0552,1.0552,1.0552,1.0552,1.0552,1.0552,1.0552,1.0552,1.0552,1.0552,1.0552,1.0552,1.0552,1.0552,1.1808,1.3443,1.5224,1.6879,1.8525,2.027,2.0652,2.0652,2.0652,2.0652,2.0652,2.0652,2.0652,2.0652,2.0652,2.0652,2.0652,2.0652,2.1943,2.3484,2.505,2.6564,2.8205,2.9728,2.9842,2.9955,2.9955,2.9955,2.9955,2.9955,2.9955,2.9955,6.6255,6.6229,6.4014,5.6459,5.5302,5.4285,4.7509,4.4742,4.4348,4.7129,4.7655,4.6677,4.413,4.2795,3.684,2.0466,1.1458,0.5264,0.1845,0.0537,0.2025,0.7449,0.3291,0.1704,0.6314,0.1442,0.0,0.0,0.0,0.0,-0.5192,-0.48,-0.4556,-0.4593,-0.2885,-0.1966,-0.1966,-0.0655,-0.0655,-0.1966,-0.0655,0.0,0.0,0.0,0.0,-0.0131,-0.131,-0.1179,-0.0131,-0.1442,-0.1179,0.0,0.0,0.0262,0.0655,0.1048,0.1179,0.1442,0.2754,0.3143,0.3525,0.5314,0.6735,0.7909,0.8306,0.936,1.0552,1.0552,1.0552,1.0552,1.0552,1.0552,1.0552,1.0552,1.0552,1.0552,1.0552,1.0552,1.0552,1.0552,1.0803,1.2064,1.5098,1.5854,1.7119,2.0147,2.0652,2.0652,2.0652,2.0652,2.0652,2.0652,2.0652,2.0652,2.0652,2.0652,2.0652,2.0652,2.1007,2.1835,2.3484,2.5034,2.6564,2.809,2.9369,2.9955,2.9955,2.9955,2.9955,2.9955,2.9955,2.9955,6.826,6.9342,6.7863,5.9492,5.7821,5.7067,5.289,5.2399,5.374,5.7178,5.8345,5.8132,5.5759,4.8274,4.1495,3.8305,2.3651,1.3386,1.5417,1.0021,0.9292,1.8251,0.0,0.7131,1.0326,0.2623,-0.288,0.0,0.0,0.0,-0.7646,-0.6864,-0.636,-0.6396,-0.4692,-0.3785,-0.3805,-0.2871,-0.2863,-0.3776,-0.1961,-0.1179,-0.1179,-0.0393,0.0,-0.0131,0.0,-0.1573,-0.0131,-0.1835,-0.1573,0.0,0.0,0.0,0.0,0.0,0.0,0.0131,0.1048,0.131,0.1702,0.3388,0.4671,0.5691,0.7255,0.8435,0.936,1.0288,0.9894,0.9501,1.0288,1.0552,1.0552,1.0552,1.0552,1.0552,1.0552,1.0552,1.0552,1.0552,1.0552,1.131,1.395,1.5088,1.6482,1.9022,2.0147,2.0652,2.0652,2.0652,2.0652,2.0652,2.0652,2.0652,2.0652,2.0652,2.0652,2.0652,2.0652,2.1361,2.2883,2.444,2.5978,2.7628,2.9141,2.9955,2.9955,2.9955,2.9955,2.9955,2.9955,2.9955,7.011,7.1164,7.0159,6.4154,6.2892,6.3116,6.3649,6.4279,6.5892,6.9813,7.12,7.0541,6.6873,5.229,4.4169,5.4792,3.9273,2.732,3.1357,2.0637,1.6417,2.697,1.8218,1.1632,1.2093,0.3543,-0.2873,-0.5046,0.0,-0.8833,-1.0416,-0.9096,-0.8172,-0.8172,-0.6473,-0.5717,-0.6033,-0.5717,-0.5691,-0.5559,-0.3781,-0.3009,-0.2878,-0.1441,-0.0655,-0.0524,0.0,-0.1833,-0.0131,-0.1834,-0.1573,0.0,0.0,0.0,0.0,0.0,0.0,0.0,0.0,0.0,0.0262,0.1704,0.2342,0.3098,0.6082,0.7126,0.7656,0.9237,0.872,0.8193,0.9636,1.0288,1.0552,1.0552,1.0552,1.0552,1.0552,1.0552,1.0552,1.0552,1.0552,1.1053,1.2687,1.4204,1.5854,1.7766,1.9282,2.0283,2.0529,2.0652,2.0652,2.0652,2.0652,2.0652,2.0652,2.0652,2.0652,2.0652,2.0652,2.1239,2.2535,2.3859,2.5405,2.7263,2.8798,2.9728,2.9955,2.9955,2.9955,2.9955,2.9955,2.9955,7.0362,7.2921,7.4972,7.3836,7.4608,7.5906,7.727,7.6148,7.3592,6.926,6.6775,6.4513,6.1809,5.0377,4.4432,5.3932,4.3193,3.0884,2.2809,1.5306,1.1039,1.2147,0.7776,0.0,0.9121,0.3805,-0.1304,-0.4917,-0.8306,-1.0159,-1.0423,-1.0288,-1.0023,-1.0023,-0.8306,-0.8177,-0.9648,-0.8182,-0.7388,-0.7388,-0.5698,-0.4794,-0.4794,-0.4576,-0.3543,-0.2228,0.0,0.0,-0.0129,-0.1828,-0.1573,0.0,0.0,0.0,0.0,0.0,0.0,0.0,0.0,0.0,0.0,0.0262,0.1301,0.258,0.3227,0.4403,0.572,0.5983,0.6886,0.779,0.8064,0.9372,1.0552,1.0552,1.0552,1.0552,1.0552,1.0552,1.0552,1.0552,1.0552,1.1053,1.2687,1.3188,1.4457,1.7641,1.8276,1.9022,2.0406,2.0652,2.0652,2.0652,2.0652,2.0652,2.0652,2.0652,2.0652,2.0652,2.0652,2.0762,2.1007,2.1252,2.267,2.5507,2.7147,2.8665,2.9955,2.9955,2.9955,2.9955,2.9955,2.9955,7.1852,7.456,7.7099,7.7907,7.9283,8.0856,8.2399,8.1933,7.9547,7.391,7.1849,7.0283,6.7624,5.713,5.2032,6.2212,5.2591,3.9466,2.6958,1.9728,1.592,1.6528,1.4078,1.205,0.0,0.1995,-0.3764,-0.3616,-0.7909,-1.0552,-1.0552,-1.0552,-1.0552,-1.0552,-0.9624,-0.9624,-1.0552,-0.9624,-0.9225,-0.9225,-0.7517,-0.6602,-0.6606,-0.572,-0.4831,0.0,0.0,0.0,-0.4171,-0.4062,-0.3543,-0.2492,-0.0655,0.0,0.0,0.0,0.0,0.0,0.0,0.0,0.0,0.0,0.0522,0.1299,0.2198,0.2465,0.2607,0.35,0.4277,0.5192,0.6113,0.7671,0.8967,0.8979,0.9765,1.0552,1.0552,1.0552,1.0552,1.0552,1.0552,1.0803,1.156,1.2432,1.357,1.5088,1.6879,1.84,1.9146,2.0024,2.0652,2.0652,2.0652,2.0652,2.0652,2.0652,2.0652,2.0652,2.0652,2.0652,2.0652,2.0652,2.1714,2.3963,2.633,2.7975,2.8665,2.9501,2.9955,2.9955,2.9955,2.9955,7.3264,0.0,7.7184,7.8336,7.9862,8.149,0.0,8.3184,8.1316,7.6199,7.4679,7.3545,7.1272,6.1154,5.6177,6.5033,5.5925,4.4054,3.3405,2.4356,1.8273,1.6583,1.7932,1.6341,0.9545,0.0409,-0.4651,-0.3491,-0.778,-1.0552,-1.0552,-1.0552,-1.0552,-1.0552,-1.0552,-1.0552,-1.0552,-1.0552,-1.0552,-1.0423,-0.9096,-0.8435,-0.8306,-0.7126,-0.6631,0.0,0.0,0.0,-0.9206,-0.5976,-0.5078,-0.5255,-0.1442,0.0,0.0,0.0,0.0,0.0,0.0,0.0,0.0,0.0,0.0,0.0262,0.1557,0.1042,0.0262,0.1557,0.2202,0.2852,0.4288,0.5842,0.7269,0.7666,0.8844,1.003,1.0416,1.0552,1.0552,1.0552,1.0552,1.0552,1.0552,1.156,1.256,1.2934,1.5224,1.713,1.8015,1.9146,2.0147,2.0529,2.0652,2.0652,2.0652,2.0652,2.0652,2.0652,2.0652,2.0652,2.0652,2.0652,2.1117,2.2414,2.5137,2.6547,2.6547,2.8435,2.9615,2.9955,2.9955,2.9955,0.0,7.4265,7.4864,7.5002,7.6177,7.8003,8.0349,7.9156,0.0,7.0961,6.7987,6.5905,6.4518,5.5283,4.8992,5.2019,4.4529,3.7996,3.7074,2.4065,1.0149,-0.1774,0.7869,1.0449,-0.273,0.0283,0.0143,-0.6786,-0.936,-1.0552,-1.0552,-1.0552,-1.0552,-1.0552,-1.0552,-1.0552,-1.0552,-1.0552,-1.0552,-1.0552,-1.0416,-1.0288,-1.0288,-1.0152,-1.0823,0.0,0.0,0.0,0.0,-0.6024,-0.4563,-0.6846,-0.1966,0.0,0.0,0.0,0.0,0.0,0.0,0.0,0.0,0.0,0.0,0.0,0.0131,0.0131,0.0,0.0131,0.13,0.2583,0.2725,0.4028,0.585,0.7398,0.7924,0.8457,1.0159,1.0552,1.0552,1.0552,1.0552,1.0552,1.0552,1.0545,1.1182,1.2807,1.3188,1.4583,1.7641,1.8151,1.8898,2.0406,2.0652,2.0652,2.0652,2.0652,2.0652,2.0652,2.0652,2.0652,2.0652,2.0652,2.0652,2.0762,2.2414,2.3229,2.3229,2.6313,2.855,2.9955,2.9955,2.9955,6.3564,5.9631,5.5729,5.5729,5.6935,6.0011,6.7297,6.9371,7.0594,7.3547,7.4558,7.476,7.4335,6.8314,6.1494,5.5696,4.8443,4.0702,3.2448,2.5477,1.8692,1.1323,0.8515,0.3848,-0.4251,-0.5022,-0.5272,-0.5968,-0.8833,-1.0552,-1.0552,-1.0552,-1.0552,-1.0552,-1.0552,-1.0552,-1.0552,-1.0552,-1.0552,-1.0552,-1.0552,-1.0552,-1.0552,-1.0552,-1.1353,0.0,0.0,0.0,0.0,-1.0364,-0.872,-1.0051,-0.3938,-0.0917,0.0,0.0,0.0,0.0,0.0,0.0,0.0,0.0,0.0,0.0,0.0,0.0,0.0,0.0,0.0523,0.0912,0.0914,0.2209,0.3754,0.4414,0.6234,0.7924,0.8715,0.9636,1.0552,1.0552,1.0552,1.0552,1.0552,1.0552,1.0674,1.1303,1.2312,1.3443,1.471,1.6743,1.8276,1.9022,2.0024,2.0652,2.0652,2.0652,2.0652,2.0652,2.0652,2.0652,2.0652,2.0652,2.0652,2.0652,2.1239,2.1943,2.3003,2.4187,2.5962,2.855,2.9501,2.9955,5.6245,4.9453,4.2673,4.2673,4.3429,4.7134,5.8062,6.2548,6.6999,7.6204,8.0145,8.1881,8.1916,7.7754,7.053,5.8888,5.1194,4.1571,2.7034,2.3716,2.1366,1.761,0.9069,0.2272,-0.0857,-0.5265,-0.7517,-0.673,-0.8569,-0.9888,-1.0423,-1.0552,-1.0552,-1.0552,-1.0552,-1.0816,-1.1353,-1.1353,-1.1618,-1.2156,-1.2156,-1.2156,-1.2149,-1.2095,-1.3306,0.0,0.0,0.0,0.0,-1.3314,-1.1217,-1.2026,-0.5775,-0.2623,-0.1703,-0.17,-0.1701,-0.1572,-0.1044,-0.0784,-0.0655,-0.0131,0.0,0.0,0.0,0.0,0.0,0.0,0.0,0.0,0.0,0.0913,0.1816,0.2337,0.4409,0.6356,0.7537,0.8709,0.9759,1.0416,1.0552,1.0552,1.0552,1.0552,1.0552,1.0552,1.1431,1.2432,1.2934,1.5088,1.6879,1.8015,1.9146,2.0024,2.0529,2.0652,2.0652,2.0652,2.0652,2.0652,2.0652,2.0652,2.0652,2.0652,2.0652,2.1117,2.2172,2.2762,2.4067,2.6196,2.8205,2.9482,5.3522,4.6197,3.8734,3.8734,3.8734,4.2058,5.4845,5.9797,6.5228,7.7994,8.2726,8.4516,8.4516,8.0358,7.2597,5.9102,5.0209,3.9017,2.209,1.7822,1.5011,1.1538,0.8422,0.6597,0.6481,0.1289,-0.4518,-1.0152,-0.8833,0.0,-1.0423,-1.0552,-1.0552,-1.0552,-1.0552,-1.1353,-1.2969,-1.309,-1.3905,-1.5553,-1.5553,-1.5553,-1.5543,-1.5575,-1.738,0.0,0.0,0.0,0.0,-1.3755,-1.1269,-1.2172,-0.7212,-0.5255,-0.5251,-0.5215,-0.5225,-0.4983,-0.3239,-0.2598,-0.2228,-0.0655,0.0,0.0,0.0,0.0,0.0,0.0,0.0,0.0,0.0,0.0,0.0392,0.207,0.2459,0.3502,0.7001,0.778,0.8306,1.0152,1.0423,1.0552,1.0552,1.0552,1.0552,1.0552,1.0552,1.1053,1.2807,1.3061,1.433,1.7641,1.8015,1.8773,2.0406,2.0529,2.0529,2.0652,2.0652,2.0652,2.0652,2.0652,2.0652,2.0652,2.0652,2.0652,2.0652,2.2172,2.2868,2.2989,2.6079,2.8435,4.1945,2.9909,1.7765,1.7765,1.7765,2.2441,4.0372,4.7917,5.6247,7.4368,8.0681,8.2911,8.2911,7.878,7.0914,5.7514,5.0419,4.1219,2.5485,2.0921,1.6994,1.1113,0.9669,0.6303,-0.1031,-0.3289,-0.6981,-1.3629,-1.2476,-1.1754,-1.2293,-1.2293,-1.2293,-1.2293,-1.2293,-1.2559,-1.2969,-1.4149,-1.505,-1.5588,-1.5496,-1.5486,-1.5588,-1.5518,-1.6729,-1.8708,-1.772,0.0,0.0,-1.6015,-1.3475,-1.2293,-0.8467,-0.627,-0.5248,-0.5198,-0.5188,-0.5192,-0.4656,-0.4423,-0.4326,-0.3901,-0.2867,-0.1833,-0.1818,-0.1824,-0.1573,-0.0393,0.0,0.0,0.0,0.0,0.0131,0.0653,0.1687,0.2845,0.3888,0.5964,0.7909,0.8435,0.9624,1.0552,1.0552,1.0552,1.0552,1.0552,1.0552,1.0674,1.1182,1.2312,1.3823,1.6105,1.5224,1.5728,1.8513,1.8773,1.927,2.0529,2.0652,2.0652,2.0652,2.0652,2.0652,2.0652,2.0652,2.0652,2.0652,2.1117,2.1822,2.2989,2.3948,2.571,3.0939,1.9935,0.8783,0.8783,0.8783,1.3,2.9233,3.9235,4.9861,6.6558,7.5686,8.0805,8.1205,7.7657,7.1812,6.3115,5.6215,4.5361,2.65,2.3632,1.7261,0.0859,0.3617,0.2529,-0.8328,-0.7398,-0.8394,-1.4039,-1.3578,-1.3526,-1.5,-1.4457,-1.4003,-1.4043,-1.4052,-1.4375,-1.501,-1.6056,-1.6836,-1.7507,-1.754,-1.7529,-1.7507,-1.7507,-1.8179,-1.9135,-1.9135,0.0,0.0,-1.7136,-1.5147,-1.419,-1.0416,-0.8208,-0.7324,-0.7403,-0.7384,-0.7255,-0.6473,-0.6238,-0.6136,-0.5444,-0.4933,-0.4559,-0.4659,-0.3641,-0.2358,-0.1304,-0.0522,0.0,0.0,0.0,0.0,0.0,0.0783,0.1686,0.2331,0.4139,0.6082,0.7517,0.8698,0.9624,1.0416,1.0552,1.0552,1.0552,1.0552,1.0552,1.0552,1.1431,1.2687,1.433,1.357,1.4457,1.7766,1.8027,1.8773,2.0529,2.0652,2.0652,2.0652,2.0652,2.0652,2.0652,2.0652,2.0652,2.0652,2.0652,2.113,2.2051,2.2642,2.3948,2.1822,1.5289,0.8783,0.8783,0.8783,1.1371,2.1625,3.3707,4.5932,5.7195,6.9347,7.8324,7.9373,7.5484,7.1759,7.0463,6.1848,4.7201,2.3795,2.3185,1.4607,-1.413,-0.6921,-0.3646,-1.4041,-1.0399,-0.9061,-1.3016,-1.3314,-1.4753,-1.8179,-1.6703,-1.5838,-1.5751,-1.5771,-1.6512,-1.8056,-1.8191,-1.9135,-2.0652,-2.0652,-2.0652,-2.0652,-2.0652,-2.0652,-2.0652,-2.0652,0.0,0.0,-1.7424,-1.6183,-1.6664,-1.2156,-1.0552,-1.0552,-1.0552,-1.0552,-1.0288,-0.8569,-0.8043,-0.778,-0.6211,-0.6735,-0.8043,-0.778,-0.5598,-0.2876,-0.259,-0.1431,-0.0131,0.0,0.0,0.0,0.0,0.0,0.0392,0.1942,0.2453,0.3484,0.673,0.7517,0.8306,1.0017,1.0416,1.0552,1.0552,1.0552,1.0552,1.0552,1.0552,1.1053,1.2687,1.2815,1.4077,1.738,1.7641,1.8389,2.027,2.0406,2.0406,2.0652,2.0652,2.0652,2.0652,2.0652,2.0652,2.0652,2.0652,2.0652,2.0652,2.2065,2.2762,2.1623,1.5289,0.8783,0.8783,0.8783,1.1371,2.1625,3.3707,4.5932,5.7195,6.7992,7.5683,7.6706,6.4253,5.3774,5.3574,4.0402,2.4576,0.8572,0.6053,0.0979,-1.2381,-1.0282,-0.875,-1.1142,-0.9194,-1.0289,-1.6446,-1.6954,-1.7842,-1.9986,-1.8448,-1.7552,-1.754,-1.7551,-1.7754,-1.8044,-1.9406,-2.0245,-2.0652,-2.0652,-2.0652,-2.0652,-2.0652,-2.0652,-2.0652,-2.0652,0.0,0.0,-1.6519,-1.4902,-1.3777,-1.1353,-1.0552,-1.0552,-1.0552,-1.0552,-1.0423,-1.0023,-0.9888,-0.9888,-0.9489,-0.9624,-0.9624,-0.8172,-0.7269,-0.6109,-0.3262,-0.2224,-0.1704,-0.0393,0.0,0.0,0.0,0.0,0.0131,0.0523,0.1557,0.2709,0.3484,0.582,0.7909,0.8306,0.9495,1.0552,1.0552,1.0552,1.0552,1.0552,1.0552,1.0674,1.1053,1.1053,1.1808,1.395,1.4077,1.5341,1.84,1.8649,1.927,2.0529,2.0652,2.0652,2.0652,2.0652,2.0652,2.0652,2.0652,2.0652,2.0652,2.1007,2.1822,1.4279,1.0504,0.6609,0.6609,0.7147,0.9969,1.8854,3.0747,4.2677,5.2692,6.3254,7.1002,7.1899,6.1159,5.0868,4.7002,3.455,1.9652,0.327,-0.0716,-0.5618,-1.5449,-1.5809,-1.5275,-1.5231,-1.3658,-1.4544,-1.9,-1.8595,-1.8791,-2.0529,-1.9812,-1.9271,-1.9271,-1.9271,-1.9271,-1.9271,-2.0109,-2.0652,-2.0652,-2.0652,-2.0652,-2.0652,-2.0652,-2.0652,-2.0652,-2.0652,0.0,-2.1103,-1.7161,-1.5905,-1.5969,-1.202,-1.0552,-1.0552,-1.0552,-1.0552,-1.0552,-1.0552,-1.0552,-1.0552,-1.0552,-1.0552,-1.0288,-0.936,-0.8435,-0.7398,-0.5598,-0.379,-0.2359,-0.1442,-0.0655,0.0,0.0,0.0,0.0,0.0,0.0652,0.1557,0.2324,0.4659,0.6881,0.7651,0.9231,1.0552,1.0552,1.0552,1.0552,1.0552,1.0552,1.0552,1.0552,1.0552,1.1182,1.2934,1.3061,1.4077,1.6743,1.7641,1.8525,1.9406,2.0147,2.0652,2.0652,2.0652,2.0652,2.0652,2.0652,2.0652,2.0652,2.0652,2.1007,0.7762,0.6155,0.4227,0.4227,0.5203,0.7691,1.397,2.4852,3.5811,4.3083,5.4258,6.286,6.3502,5.5868,4.7224,4.0115,2.8296,1.447,-0.1323,-0.5485,-1.0378,-1.9529,-2.0406,-2.027,-2.0529,-1.8778,-1.8507,-2.0393,-1.9271,-1.9135,-2.0516,-2.0652,-2.0652,-2.0652,-2.0652,-2.0652,-2.0652,-2.0652,-2.0652,-2.0652,-2.0652,-2.0652,-2.0652,-2.0652,-2.0652,-2.0652,-2.0652,0.0,-2.379,-1.791,-1.7015,-1.8632,-1.2832,-1.0552,-1.0552,-1.0552,-1.0552,-1.0552,-1.0552,-1.0552,-1.0552,-1.0552,-1.0552,-1.0552,-1.0552,-0.9489,-0.8177,-0.7929,-0.5735,-0.3272,-0.2752,-0.1442,-0.0393,-0.0131,0.0,0.0,0.0,0.0,0.0392,0.1813,0.35,0.5321,0.7001,0.8833,1.0152,1.0423,1.0552,1.0552,1.0552,1.0552,1.0552,1.0552,1.0552,1.1053,1.2432,1.256,1.3316,1.4972,1.6367,1.7505,1.8027,1.9406,2.0283,2.0652,2.0652,2.0652,2.0652,2.0652,2.0652,2.0652,2.0652,2.0652,1.3086,0.9508,0.4227,0.4227,0.4443,0.4771,0.585,1.4223,2.2351,2.4351,3.6763,4.7181,4.6841,3.3166,2.1209,1.8872,0.0116,-1.4965,-1.7573,-1.8144,-1.8976,-2.038,-1.9282,-1.9022,-2.0529,-1.7732,-1.7222,-2.0393,-2.038,-2.038,-2.0529,-2.0652,-2.0652,-2.0652,-2.0652,-2.0652,-2.0652,-2.0652,-2.0652,-2.0652,-2.0652,-2.0652,-2.0652,-2.0652,-2.0652,-2.0652,-2.0652,0.0,-2.0938,-1.7104,-1.5794,-1.583,-1.202,-1.0552,-1.0552,-1.0552,-1.0552,-1.0552,-1.0552,-1.0552,-1.0552,-1.0552,-1.0552,-1.0552,-1.0552,-1.0288,-0.9778,-0.8266,-0.745,-0.6368,-0.327,-0.2359,-0.1835,-0.0393,0.0,0.0,0.0,0.0,0.0131,0.0262,0.1688,0.3487,0.5301,0.6993,0.8698,1.0288,1.0552,1.0552,1.0552,1.0552,1.0552,1.0552,1.0552,1.0552,1.0803,1.0803,1.156,1.3188,1.357,1.4962,1.7891,1.8276,1.9146,2.0529,2.0652,2.0652,2.0652,2.0652,2.0652,2.0652,2.0652,2.0652,1.3491,0.8133,0.1847,0.1847,0.2496,0.423,0.8455,1.3939,1.9611,2.4231,3.124,3.6121,3.498,2.5971,1.6253,0.8901,-0.3287,-1.3896,-1.9799,-2.0652,-2.0283,-1.9282,-1.8525,-1.8015,-1.7743,-1.7255,-1.763,-1.9022,-2.0024,-2.1007,-2.1822,-2.113,-2.0652,-2.0652,-2.0652,-2.0652,-2.0652,-2.0652,-2.0652,-2.0652,-2.0652,-2.0652,-2.0652,-2.0652,-2.0652,-2.0652,0.0,-2.0652,-2.038,-1.791,-1.6461,-1.5285,-1.2832,-1.1353,-1.0552,-1.0552,-1.0552,-1.0552,-1.0552,-1.0552,-1.0552,-1.0552,-1.0552,-1.0552,-1.0552,-1.0552,-1.0301,-0.9549,-0.8505,-0.745,-0.5865,-0.4706,-0.3667,-0.1821,-0.1435,-0.1179,-0.0262,0.0,0.0,0.0,0.1429,0.284,0.3625,0.5188,0.6886,0.8715,0.8979,0.9372,1.0416,1.0552,1.0552,1.0552,1.0552,1.0552,1.0552,1.0552,1.0803,1.1552,1.256,1.3697,1.5214,1.713,1.84,1.9146,2.0147,2.0652,2.0652,2.0652,2.0652,2.0652,2.0652,2.0652,1.5703,0.9158,0.1924,0.0,0.0218,0.2384,0.7667,1.0408,1.3416,1.9019,2.2199,2.367,2.2852,1.9129,1.2962,0.3166,-0.328,-1.0346,-1.9356,-2.0522,-1.993,-1.8571,-1.7963,-1.7305,-1.6676,-1.7316,-1.7878,-1.8015,-1.9653,-2.1117,-2.2293,-2.1239,-2.0652,-2.0652,-2.0652,-2.0652,-2.0652,-2.0652,-2.0652,-2.0652,-2.0652,-2.0652,-2.0652,-2.0652,-2.0652,-2.0652,-2.0652,-2.0652,-2.0516,-1.873,-1.7336,-1.5938,-1.3871,-1.2293,-1.1088,-1.0688,-1.0552,-1.0552,-1.0952,-1.0823,-1.0552,-1.0552,-1.0552,-1.0552,-1.0552,-1.0552,-1.0552,-1.0552,-0.9549,-0.8391,-0.7939,-0.6782,-0.5355,-0.3104,-0.2472,-0.2097,-0.0393,0.0,0.0,0.0,0.1042,0.1944,0.1821,0.3381,0.5331,0.7412,0.7805,0.8327,0.9636,0.9765,1.003,1.0423,1.0552,1.0552,1.0552,1.0552,1.0552,1.0552,1.168,1.256,1.3061,1.5476,1.7255,1.8027,1.927,2.0147,2.0652,2.0652,2.0652,2.0652,2.0652,2.0652,2.2853,1.6047,0.724,-0.0214,-0.1956,-0.2171,-0.314,-0.324,-0.302,-0.2693,0.2236,0.6943,0.8315,0.6799,0.3997,0.0231,-0.7362,-1.4619,-1.9897,-2.0049,-1.9711,-1.9593,-1.7677,-1.7211,-1.9175,-1.7989,-1.7467,-1.7981,0.0,-2.0652,-2.0762,-2.0652,-2.0652,-2.0652,-2.0652,-2.0652,-2.0652,-2.0652,-2.0652,-2.0652,-2.0652,-2.0652,-2.0652,-2.0652,-2.0652,-2.0652,-2.0652,-2.0652,-2.0516,-1.873,-1.8056,-1.7597,-1.4294,-1.2969,-1.2695,-1.1088,-1.0552,-1.0688,-1.2293,-1.1883,-1.0552,-1.0552,-1.0552,-1.0552,-1.0552,-1.0552,-1.0552,-1.0552,-1.0423,-0.9907,-0.8219,-0.7676,-0.6739,-0.3356,-0.2472,-0.2097,-0.0393,0.0,0.0,0.0,0.0131,0.0131,0.0131,0.1564,0.3766,0.7283,0.7805,0.7805,0.7934,0.7934,0.8586,1.0294,1.0552,1.0552,1.0552,1.0552,1.0552,1.0552,1.0552,1.1303,1.2934,1.3188,1.4836,1.8027,1.8151,1.9022,2.0652,2.0652,2.0652,2.0652,2.0652,2.0652,2.7148,1.8066,0.8335,0.3134,-0.0859,-0.3689,-0.4122,-0.4227,-0.4227,-0.4227,-0.2479,-0.0758,-0.0446,-0.1898,-0.4301,-0.7872,-1.1882,-1.5943,-2.0045,-2.0469,-1.9854,-1.8745,-1.7512,-1.691,-1.7049,-1.9426,-2.1905,-2.4064,-2.2868,-2.2535,-2.3499,-2.1727,-2.0652,-2.0652,-2.0652,-2.0652,-2.0652,-2.0652,-2.0652,-2.0652,-2.0652,-2.0652,-2.0652,-2.0652,-2.0652,-2.0652,-2.0652,-2.0652,-2.0529,-1.996,-1.9,-1.7933,-1.6772,-1.5565,-1.4594,-1.3914,-1.3098,-1.2422,-1.4052,-1.351,-1.2156,-1.2156,-1.1353,-1.0552,-1.0552,-1.0552,-1.0552,-1.0552,-1.0552,-1.0294,-0.9642,-0.9507,-0.8962,-0.6473,-0.5082,-0.3805,-0.1966,-0.0786,0.0,0.0,0.0,0.0,0.0,0.0523,0.1697,0.4036,0.4426,0.4812,0.5983,0.6912,0.79,0.8704,0.9604,1.0212,1.0532,1.0552,1.0552,1.0552,1.0552,1.0803,1.1431,1.2432,1.357,1.4836,1.7005,1.84,1.9022,2.0024,2.0652,2.0652,2.0652,2.0652,2.6321,1.7644,0.8833,0.2769,-0.1912,-0.5203,-0.5634,-0.5742,-0.5742,-0.5742,-0.5742,-0.5581,-0.4974,-0.6213,-0.8369,-1.1539,-1.3584,-1.6063,-2.0045,-2.036,-1.9866,-1.8757,-1.8318,-1.8018,-1.7749,-2.1262,-2.4435,-2.6712,-2.4916,-2.3963,-2.444,-2.2535,-2.1117,-2.0652,-2.0652,-2.0652,-2.0652,-2.0652,-2.0652,-2.0652,-2.0652,-2.0652,-2.0652,-2.0652,-2.0652,-2.0652,-2.0652,-2.0652,-2.0652,-2.0652,-1.996,-1.8865,-1.8314,-1.7325,-1.6279,-1.5731,-1.5184,-1.4911,-1.5995,-1.5311,-1.3723,-1.3194,-1.2293,-1.1217,-1.0688,-1.0552,-1.0552,-1.0552,-1.0552,-1.0552,-1.0552,-1.0552,-1.0023,-0.8172,-0.6903,-0.5492,-0.3014,-0.1704,-0.0655,-0.0131,0.0,0.0,0.0,0.0,0.0393,0.1566,0.2216,0.2718,0.3426,0.5225,0.6808,0.7577,0.895,0.9915,1.0113,1.0219,1.0271,1.0271,1.0364,1.0552,1.0552,1.156,1.2432,1.3061,1.5224,1.6879,1.8027,1.9146,2.0024,2.0652,2.0652,2.0652,2.074,1.4996,0.9113,-0.1423,-0.5383,-0.7045,-0.8347,-0.8676,-0.8783,-0.8783,-0.8783,-0.8098,-0.5513,-0.6521,-0.8446,-1.0515,-1.2281,-1.5119,-1.9897,-2.0049,-1.9685,-1.9685,-1.9995,-2.0696,-2.2052,-2.3675,-2.4877,-2.5458,-2.5405,-2.4678,-2.3229,-2.2989,-2.2293,-2.0762,-2.0652,-2.0652,-2.0652,-2.0652,-2.0652,-2.0652,-2.0652,-2.0652,-2.0652,-2.0652,-2.0652,-2.0652,-2.0652,-2.0652,-2.0652,-2.0652,-2.0652,-2.0503,-1.8853,-1.8179,-1.791,-1.6302,-1.6703,-1.8179,-1.8179,-1.7093,-1.5315,-1.3757,-1.309,-1.2695,-1.1088,-1.0552,-1.0552,-1.0552,-1.0552,-1.0552,-1.0552,-1.0552,-1.0023,-0.8306,-0.778,-0.6881,-0.3401,-0.2622,-0.2097,-0.0393,0.0,0.0,0.0,0.0,0.0,0.0,0.1434,0.1913,0.0242,0.2752,0.5377,0.7166,0.8594,0.9553,0.9559,0.981,0.9962,0.9962,1.0238,1.0525,1.0525,1.0532,1.1289,1.2918,1.3053,1.471,1.8027,1.8027,1.8898,2.0652,2.0652,2.0652,2.3826,1.6867,1.0082,0.3467,-0.3228,-0.7911,-0.7261,-0.7911,-0.8783,-0.8783,-0.9918,-1.0302,-0.8566,-1.2302,-1.5284,-1.4226,-1.6938,-1.958,-2.0548,-2.1441,-2.2024,-2.2024,-2.2715,-2.4003,-2.5912,-2.7029,-2.8383,-3.0047,-2.817,-2.7228,-2.7815,-2.4718,-2.269,-2.2292,-2.1158,-2.0652,-2.0652,-2.0652,-2.0652,-2.0652,-2.0652,-2.0652,-2.0652,-2.0652,-2.0652,-2.0652,-2.0652,-2.0652,-2.0652,-2.0652,-2.0652,-2.0529,-2.0096,-1.996,-1.9825,-1.9406,-1.9541,-1.996,-1.996,-1.8853,-1.7261,-1.6864,-1.501,-1.2961,-1.243,-1.1489,-1.0552,-1.0552,-1.0552,-1.0552,-1.0552,-1.0552,-1.0416,-0.9888,-0.8698,-0.7527,-0.6497,-0.4307,-0.2359,-0.1966,-0.0786,0.0,0.0,0.0,0.0,0.0,0.0379,0.0489,0.0,0.084,0.2393,0.5254,0.7725,0.9329,0.9546,0.9632,0.9671,0.9671,0.9757,0.9797,0.9797,0.9988,1.0343,1.0703,1.2306,1.4077,1.6241,1.7516,1.8898,2.0652,2.0652,2.0652,2.2696,1.5506,0.8481,0.43,-0.2872,-0.8939,-0.8827,-0.9311,-1.0351,-1.1952,-1.1948,-1.1725,-1.1783,-1.5258,-1.7853,-1.6686,-1.9093,-2.1301,-2.1537,-2.2414,-2.3124,-2.3844,-2.5599,-2.7251,-2.8514,-2.8959,-2.9775,-3.1132,-2.9577,-2.8399,-2.7851,-2.5341,-2.3305,-2.1989,-2.1063,-2.0652,-2.0652,-2.0652,-2.0652,-2.0652,-2.0652,-2.0652,-2.0652,-2.0652,-2.0652,-2.0652,-2.0652,-2.0652,-2.0652,-2.0652,-2.0652,-2.0652,-2.0652,-2.0652,-2.0652,-2.0652,-2.0652,-2.0652,-2.0652,-1.996,-1.9,-1.8314,-1.6772,-1.4892,-1.3451,-1.2293,-1.1353,-1.0688,-1.0552,-1.0552,-1.0552,-1.0552,-1.0552,-1.0552,-0.9624,-0.8698,-0.7909,-0.5587,-0.3392,-0.262,-0.1179,0.0,0.0,0.0,0.0,0.0,0.0,0.0,0.0,0.0,0.1152,0.4252,0.6096,0.7649,0.9057,0.9302,0.9375,0.9375,0.9493,0.9559,0.9559,0.9718,1.0039,1.063,1.1781,1.3585,1.5896,1.6883,1.8227,1.9815,1.9815,1.9815,1.7323,1.0494,0.4131,0.0986,-0.4738,-1.0113,0.0,-1.2195,-1.2659,-1.6589,-1.4816,-1.3177,-1.4879,-1.6739,-1.8011,-1.8307,-1.9714,-2.1158,-2.2521,-2.3003,-2.3724,-2.5389,-2.7975,-2.9728,-2.9955,-2.9955,-2.9955,-3.0181,-3.0068,-2.8665,-2.5962,-2.5389,-2.4113,-2.166,-2.0898,-2.0762,-2.1239,-2.1034,-2.0801,-2.0924,-2.1074,-2.1074,-2.0801,-2.0801,-2.0788,-2.0652,-2.0652,-2.0652,-2.0652,-2.0652,-2.0652,-2.0652,-2.0652,-2.0652,-2.0652,-2.0652,-2.0652,-2.0652,-2.0652,-2.0652,-2.038,-1.8865,-1.8191,-1.7473,-1.453,-1.3339,-1.2695,-1.1217,-1.0688,-1.0552,-1.0552,-1.0552,-1.0552,-1.0552,-1.0552,-1.0023,-0.8435,-0.6602,-0.4797,-0.3141,-0.131,0.0,0.0,0.0,0.0,0.0,0.0,0.0,0.0,0.0109,0.1305,0.401,0.4443,0.5634,0.8455,0.8913,0.9065,0.9065,0.9315,0.946,0.9694,0.9728,1.0439,1.1816,1.1858,1.3379,1.636,1.636,1.718,1.8828,1.8828,1.875,0.0,0.0,0.0,0.0,0.0,0.0,0.0,-1.4938,-1.3287,-1.7909,-1.8622,-1.8121,-1.7117,-1.9111,-2.0617,-2.0168,-2.0822,-2.1254,-2.105,-2.3259,-2.5389,-2.6914,-2.7744,-2.855,-2.9842,-2.9955,-3.0407,-3.1596,-3.0631,-2.9672,-2.8861,-2.663,-2.5906,-2.7308,-2.2936,-2.22,-2.5421,-2.348,-2.2495,-2.2495,-2.3775,-2.3652,-2.2495,-2.2495,-2.1783,-2.0652,-2.0652,-2.0652,-2.0652,-2.0652,-2.0652,-2.0652,-2.0652,-2.0652,-2.0652,-2.0652,-2.0652,-2.0652,-2.0652,-2.0652,-2.0516,-2.0232,-1.9135,-1.7933,-1.7237,-1.5243,-1.2961,-1.2566,-1.1489,-1.0552,-1.0552,-1.0552,-1.0552,-1.0552,-1.0552,-1.0416,-1.0023,-0.7517,-0.5185,-0.4849,-0.2228,0.0,0.0,0.0,0.0,0.0,0.0,0.0,0.0,0.0979,0.239,0.4122,0.5311,0.6717,0.8562,0.8837,0.887,0.887,0.8923,0.938,1.0453,1.0727,1.1663,1.299,1.3326,1.4305,1.636,1.636,1.718,1.8828,1.8828,1.8335,0.0,0.0,0.0,0.0,0.0,0.0,0.0,0.0,0.0,0.0,0.0,-2.2514,-2.2991,0.0,-2.3224,-2.2503,-2.1589,-2.1236,-2.1659,-2.3124,-2.4678,-2.6213,-2.7147,-2.8205,-2.9728,-2.9955,-3.0181,-3.0948,-2.9577,-2.8417,-2.7523,-2.5341,-2.5257,-2.7683,-2.392,-2.3709,-2.7817,-2.5405,-2.4105,-2.412,-2.6236,-2.5759,-2.2993,-2.4222,-2.3348,-2.0652,-2.136,-2.1783,-2.1783,-2.1783,-2.1347,-2.0652,-2.0652,-2.0652,-2.0652,-2.0652,-2.0652,-2.0652,-2.0652,-2.0652,-2.0652,-2.0652,-1.9973,-1.9135,-1.8314,-1.7845,-1.7512,-1.6692,-1.6881,-1.7361,-1.7361,-1.5691,-1.3914,-1.3914,-1.2156,-1.0552,-1.0552,-0.778,-0.5226,-0.5228,-0.2401,0.0,0.0,0.0,0.0,0.0,0.0,0.0,0.0,0.1305,0.2713,0.4122,0.5527,0.704,0.8569,0.8783,0.8783,0.8783,0.9305,1.0356,1.1734,1.1931,1.2687,1.4193,1.4316,1.5198,1.6733,1.6733,1.719,1.7971,1.7971,1.7673,0.0,0.0,0.0,0.0,0.0,0.0,0.0,0.0,0.0,0.0,0.0,0.0,0.0,0.0,0.0,-2.4094,-2.2431,-2.1581,-2.2371,-2.2762,-2.3484,-2.505,-2.6681,-2.8205,-2.9728,-2.9955,-2.9955,-2.9955,-2.8779,-2.7263,-2.5405,-2.4306,-2.4793,-2.6957,-2.5185,-2.575,-2.9392,-2.7425,-2.6151,-2.5754,0.0,0.0,-2.3942,-2.5752,-2.451,-2.1087,-2.2358,-2.2929,-2.2985,-2.3285,-2.2435,-2.121,-2.2057,-2.2355,-2.2457,-2.3109,-2.2647,-2.192,-2.192,-2.1347,-2.0652,-2.0652,-2.0652,-2.038,-1.9,-2.0147,0.0,-2.0319,-2.1707,-2.342,-2.3139,-1.9999,-1.6869,-1.6564,-1.3373,-1.0816,-1.1883,-0.8698,-0.5895,-0.6618,-0.3384,-0.0327,0.0,-0.1178,-0.1595,-0.0217,0.0,0.0,0.0,0.1305,0.2605,0.3689,0.5095,0.6502,0.7798,0.6684,0.6019,0.6019,0.721,0.8689,1.0132,0.8859,0.8659,0.9775,1.1774,1.325,1.4149,1.6134,1.7012,1.7101,1.5047,1.5206,0.0,0.0,0.0,0.0,0.0,0.0,0.0,0.0,0.0,0.0,0.0,0.0,0.0,0.0,0.0,0.0,-2.3407,-2.2986,-2.1158,-2.2065,-2.3484,-2.505,-2.6681,-2.8205,-2.9728,-2.9955,-2.9955,-2.9955,-2.9728,-2.8435,-2.5405,0.0,0.0,0.0,0.0,-2.9192,-3.1078,-3.0773,-2.9492,-2.7312,-2.9104,-2.8824,-2.709,-2.5924,-2.4372,-2.2647,-2.2907,-2.2992,-2.3058,-2.4436,-2.4043,-2.3059,-2.7026,-2.8796,-2.9381,-3.1967,-3.0138,-2.6437,-2.6437,0.0,0.0,-2.0652,-2.0652,-2.0529,-2.038,-2.045,-2.0607,-2.0371,-2.0503,-2.0369,-1.8963,-1.7126,-1.5233,-1.3786,-1.202,-1.1883,-1.6664,-1.2156,-0.8177,-1.1803,-0.6799,-0.1526,-0.0218,-0.5326,-0.7497,-0.0967,0.0,0.0,0.0,0.1305,0.2173,0.239,0.0,0.0,0.4771,-0.0547,-0.3881,-0.3881,-0.2491,-0.0944,0.0681,-0.5473,-0.8826,-0.866,0.0297,0.455,0.3673,1.2481,1.6883,1.6908,0.7822,0.84,0.0,0.0,0.0,0.0,0.0,0.0,0.0,0.0,0.0,0.0,0.0,0.0,0.0,0.0,0.0,0.0,-2.4827,-2.4846,-2.5224,-2.3944,-2.3828,-2.633,-2.7147,-2.8205,-2.9728,-2.9955,-2.9955,-2.9955,-2.9141,-2.7975,-2.6681,-2.633,-2.7557,-3.0219,-2.8959,-2.97,-3.2787,-3.1233,-2.9954,-2.8937,-3.1208,-3.0659,-2.7592,-2.8613,-2.7322,-2.4356,-2.5247,-2.5647,-2.5721,-2.631,-2.624,0.0,0.0,0.0,0.0,0.0,-2.9046,-2.7062,-2.5316,-2.35,-2.1783,-2.0938,-2.1224,-2.1934,-2.1934,-2.3755,-2.5824,-2.5823,-2.699,-2.7919,-2.6317,-2.3368,-2.0275,-1.7574,-1.4456,-1.2293,-1.3373,-1.0348,-0.7846,-0.9367,-0.8999,0.0,-0.3186,-0.4303,-0.4747,-0.1728,-0.0545,0.0,0.0,0.1305,0.2173,0.2173,0.3472,0.3899,0.3135,0.0499,0.0,0.0,0.0,-0.0175,-0.3119,-0.2734,0.0,0.0,0.0,0.0,0.0,0.0,0.0,0.0,-0.3398,-0.3399,0.0,0.0,0.0,0.0,0.0,0.0,0.0,0.0,0.0,0.0,0.0,0.0,0.0,0.0,0.0,0.0,-2.6918,-2.6926,-2.861,-2.6685,-2.5893,-2.7966,-2.8255,-2.8665,-2.9842,-2.9955,-2.9955,-2.9955,-2.8912,-2.809,-2.7611,-2.6914,-2.7704,-3.0193,-2.9681,-3.041,-3.2713,-3.1631,-3.0638,-2.9955,-3.1952,-3.1208,-2.8356,-2.9865,-2.8871,-2.6009,-2.7066,-2.7609,-2.7609,-2.8039,-2.802,-2.774,-2.937,-3.0036,-3.0114,-3.122,-3.1461,-3.0688,-2.6689,-2.4648,-2.3348,-2.2207,-2.2633,-2.3579,-2.3527,-2.6162,-2.9208,-2.9118,-3.1036,-3.2585,-3.0428,-2.7121,-2.3479,-2.0126,-1.6284,-1.3502,-1.3502,-1.083,-0.8762,-0.9647,-1.2156,-1.2193,-0.5995,-0.5047,-0.445,-0.2491,-0.0871,0.0,0.0,0.0871,0.1522,0.1522,0.2169,0.2056,0.108,-0.1434,-0.4884,-0.9432,-0.4108,-0.3945,-1.102,-0.4459,-0.454,-1.2974,-1.4733,-1.5763,0.0,0.0,0.0,0.0,0.0,0.0,0.0,0.0,0.0,0.0,0.0,0.0,0.0,0.0,0.0,0.0,0.0,0.0,0.0,0.0,0.0,0.0,0.0,0.0,-2.9627,-3.0254,-3.0397,-2.9807,-2.9751,-2.9842,-2.9955,-2.9955,-2.9955,-2.9955,-2.9842,-2.9141,-2.7744,-2.9026,-2.9141,-2.7762,-3.1579,-3.2458,-3.0106,-3.2498,-3.2478,-2.9955,-2.9974,-2.9974,-2.9823,-2.8374,-2.7663,-2.7531,-2.7531,-2.7627,-2.774,-2.922,-2.8919,-2.817,-3.3859,-3.6351,-3.7084,-4.088,-4.1615,-3.9877,-3.3685,-2.8814,-2.5232,-2.5109,-2.5109,-2.5152,-2.5236,-2.6361,-2.7663,-2.7627,-2.8787,-2.937,-2.6292,-2.4105,-2.2071,-1.8889,-1.6303,-1.5969,-2.122,-1.6478,-1.2336,-1.6193,-1.7056,-1.4951,-0.7749,-0.9912,-1.0312,-0.3223,-0.0871,0.0,0.0,0.0,0.0109,0.0109,-0.1087,-0.1956,-0.1954,-1.0462,-1.5812,-1.6038,-1.4547,-1.7662,-2.6725,-1.8012,-1.8237,-2.9346,-2.4651,-2.2609,-2.374,0.0,0.0,0.0,0.0,0.0,0.0,0.0,0.0,0.0,0.0,0.0,0.0,0.0,0.0,0.0,0.0,0.0,0.0,0.0,0.0,0.0,0.0,0.0,0.0,-3.4078,-3.2426,-3.2686,-3.1559,-3.0505,-2.9954,-3.0218,-3.023,-2.9917,-2.9955,-2.9728,-2.9141,-2.9596,-2.9728,-2.9141,-3.0543,-3.079,-2.9955,-3.0809,-3.0809,-2.9955,-2.9955,-2.9955,-2.9955,-2.937,-2.9201,-2.9201,-2.9201,-2.9201,-2.922,-2.9672,-2.9653,-2.9389,-3.2411,-3.4209,-3.532,-3.6573,-3.6834,-3.6128,-3.3098,-2.9725,-2.663,-2.5614,-2.5913,-2.6829,-2.6875,-2.7889,-2.9201,-2.9201,-2.9521,-2.922,-2.6032,-2.4805,-2.321,-1.8583,-1.6832,-1.6361,-1.6519,-1.3805,-1.1617,-1.2673,-1.2178,-1.0872,-0.841,-0.7538,-0.6428,-0.389,-0.1522,0.0,0.0,0.0,0.0,0.0,-0.1305,-0.2496,-0.3472,-0.746,-1.2047,-1.714,-1.2244,-1.3265,-2.2273,-1.6391,-1.6992,-2.564,-2.6571,-2.8968,-3.2977,0.0,0.0,0.0,0.0,0.0,0.0,0.0,0.0,0.0,0.0,0.0,0.0,0.0,0.0,0.0,0.0,0.0,0.0,0.0,0.0,0.0,0.0,0.0,0.0,0.0,0.0,-3.4238,-3.2274,0.0,-3.0699,-3.101,-3.1083,-3.0778,-3.0724,-3.05,-2.9955,-2.9955,-2.9955,-2.9955,-2.9955,-2.9955,-2.9955,-2.9955,-2.9955,-2.9955,-2.9955,-2.9955,-2.9955,-2.9955,-2.9955,-2.9955,-2.9955,-2.9955,-2.9955,-2.9955,-2.9955,-3.0106,-3.1493,-3.2902,-3.4233,-3.4233,-3.4178,-3.4033,-3.2627,-3.0428,-2.8319,-2.7294,-2.7609,-2.8469,-2.8469,-2.9672,-3.0903,-3.0125,-3.0106,-2.9521,-2.6162,-2.4821,-2.3348,-1.9,-1.7893,-1.7121,-1.4768,-1.2975,-1.1632,-1.0821,-0.9604,-0.9277,-1.1043,-0.9555,-0.8711,-1.0507,-0.6379,-0.3334,-0.386,-0.1176,0.0544,0.0109,-0.1305,-0.2713,-0.4122,-0.6164,-0.9896,-1.5856,-1.1537,-1.1887,-1.8723,-1.5837,-1.7056,-2.3173,-2.659,-3.0786,0.0,0.0,0.0,0.0,0.0,0.0,0.0,0.0,0.0,0.0,0.0,0.0,0.0,0.0,0.0,0.0,0.0,0.0,0.0,0.0,0.0,0.0,0.0,0.0,0.0,0.0,0.0,-3.44,-3.2133,0.0,0.0,0.0,0.0,-3.2286,-3.23,-3.1677,-3.0351,-3.0125,-3.0125,-3.0125,-2.9974,-2.9955,-2.9955,-2.9955,-2.9955,-2.9955,-2.9955,-2.9955,-2.9955,-2.9955,-2.9955,-2.9955,-2.9955,-2.9955,-2.9955,-2.9955,-2.9955,-3.0106,-3.1666,-3.3115,-3.4437,-3.4492,-3.4525,-3.4169,-3.2739,-3.1188,-2.9955,-2.9955,-2.9955,-2.9955,-2.9974,-3.1036,0.0,0.0,-2.9725,-2.9106,-2.6117,-2.4151,-2.2344,-2.0109,-1.918,-1.8226,-1.632,-1.4175,-1.23,0.0,-0.9618,-1.0367,-1.529,0.0,-1.6818,-2.1799,-1.4648,-0.918,-1.0598,-0.3202,0.163,0.0218,-0.1196,-0.2713,-0.4122,-0.6793,-0.9681,-1.2586,-1.2701,-1.396,-1.6909,-1.6921,-1.8674,-2.2727,-2.5407,0.0,0.0,0.0,0.0,0.0,0.0,0.0,0.0,0.0,0.0,0.0,0.0,0.0,0.0,0.0,0.0,0.0,0.0,0.0,0.0,0.0,0.0,0.0,0.0,0.0,0.0,-3.7073,-3.6253,-3.4461,-3.3238,-3.2796,0.0,0.0,0.0,0.0,0.0,0.0,-3.4499,-3.3467,-3.2787,-3.2787,-3.0942,-2.9955,-2.9955,-2.9955,-2.9955,-2.9955,-2.9955,-2.9955,-2.9955,-2.9955,-2.9955,-2.9955,-2.9955,-2.9955,-2.9955,-2.9955,-2.9955,-3.0277,-3.419,-3.5931,-3.666,-3.9037,-3.8371,-3.6166,-3.4655,-3.2278,-2.9955,-2.9955,-2.9955,-3.0125,-3.1188,0.0,0.0,0.0,0.0,-1.6657,-2.4757,-2.4846,-2.2344,-1.9689,-1.817,-1.6847,-1.5508,-1.3136,-1.0862,0.0,-0.8991,-1.0367,-1.529,0.0,0.0,0.0,0.0,-0.815,-0.9187,-0.2577,0.1956,0.163,-0.0652,-0.2713,-0.4122,-0.5949,-0.8202,-1.1091,-1.0364,-1.1531,-1.5324,-1.5345,-1.8111,-2.4075,0.0,0.0,0.0,0.0,0.0,0.0,0.0,0.0,0.0,0.0,0.0,0.0,0.0,0.0,0.0,0.0,0.0,0.0,0.0,0.0,0.0,0.0,0.0,0.0,0.0,0.0,0.0,-3.6459,-3.7261,-3.6234,-3.5091,-3.4569,0.0,0.0,0.0,0.0,0.0,0.0,0.0,0.0,0.0,-3.5582,-3.3605,-3.2282,-3.1697,-3.0573,-2.9955,-2.9955,-2.9955,-2.9955,-2.9955,-2.9955,-2.9955,-2.9955,-2.9955,-2.9955,-3.0106,-3.1493,-3.1188,-3.0496,0.0,0.0,0.0,0.0,-4.0242,-3.9031,-3.7466,-3.5675,0.0,-3.3354,0.0,0.0,0.0,0.0,0.0,0.0,0.0,0.0,0.0,0.0,-2.2314,-1.88,-1.7323,-1.6035,-1.3667,-1.3345,-1.3311,0.0,-1.4019,-1.7035,-2.1241,0.0,0.0,0.0,0.0,-1.177,-1.3215,-0.3212,0.3578,0.2281,0.0652,-0.1302,-0.401,-0.4987,-0.6916,-1.0447,-1.0577,-1.1848,-1.4805,-1.6077,-1.8839,0.0,0.0,0.0,0.0,0.0,0.0,0.0,0.0,0.0,0.0,0.0,0.0,0.0,0.0,0.0,0.0,0.0,0.0,0.0,0.0,0.0,0.0,0.0,0.0,0.0,0.0,0.0,0.0,0.0,-3.7541,-3.8104,0.0,0.0,0.0,0.0,0.0,0.0,0.0,0.0,0.0,0.0,0.0,0.0,0.0,-3.5958,-3.4902,-3.2602,-3.1316,-3.0843,-3.0843,-3.0496,-2.9955,-2.9955,-2.9955,-2.9936,-3.0615,0.0,-3.1175,-3.3737,0.0,0.0,0.0,0.0,0.0,0.0,0.0,0.0,0.0,0.0,0.0,0.0,0.0,0.0,0.0,0.0,0.0,0.0,0.0,0.0,0.0,0.0,-2.0516,-1.7962,-1.6919,-1.5732,0.0,-1.5621,-1.8014,-1.7255,-2.0967,0.0,0.0,0.0,0.0,0.0,0.0,0.0,-1.8883,-0.4175,0.5414,0.3039,0.239,0.0542,-0.3359,-0.401,-0.5944,-0.9916,-1.1628,-1.3334,-1.5064,-1.75,0.0,0.0,0.0,0.0,0.0,0.0,0.0,0.0,0.0,0.0,0.0,0.0,0.0,0.0,0.0,0.0,0.0,0.0,0.0,0.0,0.0,0.0,0.0,0.0,0.0,0.0,0.0,0.0,0.0,0.0,0.0,0.0,0.0,0.0,0.0,0.0,0.0,0.0,0.0,0.0,0.0,0.0,0.0,0.0,0.0,0.0,0.0,0.0,0.0,0.0,-3.5383,-3.3448,-2.9955,-2.9955,-2.9955,-3.0179,-3.4404,-3.6237,-3.6111,-3.5319,0.0,0.0,0.0,0.0,0.0,0.0,0.0,0.0,0.0,0.0,0.0,0.0,0.0,0.0,0.0,0.0,0.0,0.0,0.0,0.0,0.0,0.0,0.0,0.0,-1.7781,-1.6479,0.0,0.0,0.0,0.0,0.0,0.0,0.0,0.0,0.0,0.0,0.0,0.0,-1.7457,-0.3585,0.6281,0.585,0.358,0.1302,-0.0541,-0.2923,-0.5091,-0.7035,-0.9596,-1.2483,0.0,0.0,0.0,0.0,0.0,0.0,0.0,0.0,0.0,0.0,0.0,0.0,0.0,0.0,0.0,0.0,0.0,0.0,0.0,0.0,0.0,0.0,0.0,0.0,0.0,0.0,0.0,0.0,0.0,0.0,0.0,0.0,0.0,0.0,0.0,0.0,0.0,0.0,0.0,0.0,0.0,0.0,0.0,0.0,0.0,0.0,0.0,0.0,0.0,0.0,0.0,0.0,0.0,0.0,0.0,0.0,0.0,0.0,0.0,-3.8699,0.0,0.0,0.0,0.0,0.0,0.0,0.0,0.0,0.0,0.0,0.0,0.0,0.0,0.0,0.0,0.0,0.0,0.0,0.0,0.0,0.0,0.0,0.0,0.0,0.0,0.0,0.0,0.0,0.0,0.0,0.0,0.0,0.0,0.0,0.0,0.0,0.0,0.0,0.0,0.0,-1.6425,-0.1842,0.8102,0.6609,0.4554,0.2384,0.0216,-0.2597,-0.5195,-0.7334,-1.1266,0.0,0.0,0.0,0.0,0.0,0.0,0.0,0.0,0.0,0.0,0.0,0.0,0.0,0.0,0.0,0.0,0.0,0.0,0.0,0.0,0.0,0.0,0.0,0.0,0.0,0.0,0.0,0.0,0.0,0.0,0.0,0.0,0.0,0.0,0.0,0.0,0.0,0.0,0.0,0.0,0.0,0.0,0.0,0.0,0.0,0.0,0.0,0.0,0.0,0.0,0.0,0.0,0.0,0.0,0.0,0.0,0.0,0.0,0.0,-4.2942,0.0,0.0,0.0,0.0,0.0,0.0,0.0,0.0,0.0,0.0,0.0,0.0,0.0,0.0,0.0,0.0,0.0,0.0,0.0,0.0,0.0,0.0,0.0,0.0,0.0,0.0,0.0,0.0,0.0,0.0,0.0,0.0,0.0,0.0,0.0,0.0,0.0,0.0,0.0,0.0,0.0,-1.5405,-0.0291,0.9809,0.7566,0.5738,0.368,0.1082,-0.1947,-0.5193,-0.8369,-1.298,0.0,0.0,0.0,0.0,0.0,0.0,0.0,0.0,0.0,0.0,0.0,0.0,0.0,0.0,0.0,0.0,0.0,0.0,0.0,0.0,0.0,0.0,0.0,0.0,0.0,0.0,0.0,0.0,0.0,0.0,0.0,0.0,0.0,0.0,0.0,0.0,0.0,0.0,0.0,0.0,0.0,0.0,0.0,0.0,0.0,0.0,0.0,0.0,0.0,0.0,0.0,0.0,0.0,0.0,0.0,0.0,0.0,0.0,0.0,0.0,0.0,0.0,0.0,0.0,0.0,0.0,0.0,0.0,0.0,0.0,0.0,0.0,0.0,0.0,0.0,0.0,0.0,0.0,0.0,0.0,0.0,0.0,0.0,0.0,0.0,0.0,0.0,0.0,0.0,0.0,0.0,0.0,0.0,0.0,0.0,0.0,0.0,0.0,0.0,0.0,0.0,-1.4095,0.0387,1.0561,1.034,0.7887,0.563,0.4007,0.0108,-0.4162,-0.8475,0.0,0.0,0.0,0.0,0.0,0.0,0.0,0.0,0.0,0.0,0.0,0.0,0.0,0.0,0.0,0.0,0.0,0.0,0.0,0.0,0.0,0.0,0.0,0.0,0.0,0.0,0.0,0.0,0.0,0.0,0.0,0.0,0.0,0.0,0.0,0.0,0.0,0.0,0.0,0.0,0.0,0.0,0.0,0.0,0.0,0.0,0.0,0.0,0.0,0.0,0.0,0.0,0.0,0.0,0.0,0.0,0.0,0.0,0.0,0.0,0.0,0.0,0.0,0.0,0.0,0.0,0.0,0.0,0.0,0.0,0.0,0.0,0.0,0.0,0.0,0.0,0.0,0.0,0.0,0.0,0.0,0.0,0.0,0.0,0.0,0.0,0.0,0.0,0.0,0.0,0.0,0.0,0.0,0.0,0.0,0.0,0.0,0.0,0.0,0.0,0.0,0.0,-1.2995,0.1558,1.1628,1.0773,0.8209,0.5958,0.4443,0.1081,-0.3317,-0.9233,0.0,0.0,0.0,0.0,0.0,0.0,0.0,0.0,0.0,0.0,0.0,0.0,0.0,0.0,0.0,0.0,0.0,0.0,0.0,0.0,0.0,0.0,0.0,0.0,0.0,0.0,0.0,0.0,0.0,0.0,0.0,0.0,0.0,0.0,0.0,0.0,0.0,0.0,0.0,0.0,0.0,0.0,0.0,0.0,0.0,0.0,0.0,0.0,0.0,0.0,0.0,0.0,0.0,0.0,0.0,0.0,0.0,0.0,0.0,0.0,0.0,0.0,0.0,0.0,0.0,0.0,0.0,0.0,0.0,0.0,0.0,0.0,0.0,0.0,0.0,0.0,0.0,0.0,0.0,0.0,0.0,0.0,0.0,0.0,0.0,0.0,0.0,0.0,0.0,0.0,0.0,0.0,0.0,0.0,0.0,0.0,0.0,0.0,0.0,0.0,0.0,0.0,-1.1927,0.283,1.3112,1.2041,0.949,0.7244,0.5622,0.1301,-0.384,-0.9715,0.0,0.0,0.0,0.0,0.0,0.0,0.0,0.0,0.0,0.0,0.0,0.0,0.0,0.0,0.0,0.0,0.0,0.0,0.0,0.0,0.0,0.0,0.0,0.0,0.0,0.0,0.0,0.0,0.0,0.0,0.0,0.0,0.0,0.0,0.0,0.0,0.0,0.0,0.0,0.0,0.0,0.0,0.0,0.0,0.0,0.0,0.0,0.0,0.0,0.0,0.0,0.0,0.0,0.0,0.0,0.0,0.0,0.0,0.0,0.0,0.0,0.0,0.0,0.0,0.0,0.0,0.0,0.0,0.0,0.0,0.0,0.0,0.0,0.0,0.0,0.0,0.0,0.0,0.0,0.0,0.0,0.0,0.0,0.0,0.0,0.0,0.0,0.0,0.0,0.0,0.0,0.0,0.0,0.0,0.0,0.0,0.0,0.0,0.0,0.0,0.0,0.0,-1.0565,0.4268,1.4909,1.4909,1.2357,1.0014,0.8603,0.0567,-0.6052,0.0,0.0,0.0,0.0,0.0,0.0,0.0,0.0,0.0,0.0,0.0,0.0,0.0,0.0,0.0,0.0,0.0,0.0,0.0,0.0,0.0,0.0,0.0,0.0,0.0,0.0,0.0,0.0,0.0,0.0,0.0,0.0,0.0,0.0,0.0,0.0,0.0,0.0,0.0,0.0,0.0,0.0,0.0,0.0,0.0,0.0,0.0,0.0,0.0,0.0,0.0,0.0,0.0,0.0,0.0,0.0,0.0,0.0,0.0,0.0,0.0,0.0,0.0,0.0,0.0,0.0,0.0,0.0,0.0,0.0,0.0,0.0,0.0,0.0,0.0,0.0,0.0,0.0,0.0,0.0,0.0,0.0,0.0,0.0,0.0,0.0,0.0,0.0,0.0,0.0,0.0,0.0,0.0,0.0,0.0,0.0,0.0,0.0,0.0,0.0,0.0,0.0,0.0,-0.9563,0.4796,1.5013,1.5013,1.2357,0.9688,0.7306,0.3674,-0.1963,-0.9995,0.0,0.0,0.0,0.0,0.0,0.0,0.0,0.0,0.0,0.0,0.0,0.0,0.0,0.0,0.0,0.0,0.0,0.0,0.0,0.0,0.0,0.0,0.0,0.0,0.0,0.0,0.0,0.0,0.0,0.0,0.0,0.0,0.0,0.0,0.0,0.0,0.0,0.0,0.0,0.0,0.0,0.0,0.0,0.0,0.0,0.0,0.0,0.0,0.0,0.0,0.0,0.0,0.0,0.0,0.0,0.0,0.0,0.0,0.0,0.0,0.0,0.0,0.0,0.0,0.0,0.0,0.0,0.0,0.0,0.0,0.0,0.0,0.0,0.0,0.0,0.0,0.0,0.0,0.0,0.0,0.0,0.0,0.0,0.0,0.0,0.0,0.0,0.0,0.0,0.0,0.0,0.0,0.0,0.0,0.0,0.0,0.0,0.0,0.0,0.0,0.0,0.0,0.0,0.3423,1.2852,1.5508,1.3207,1.0537,0.8252,0.3707,-0.203,-0.8983,0.0,0.0,0.0,0.0,0.0,0.0,0.0,0.0,0.0,0.0,0.0,0.0,0.0,0.0,0.0,0.0,0.0,0.0,0.0,0.0,0.0,0.0,0.0,0.0,0.0,0.0,0.0,0.0,0.0,0.0,0.0,0.0,0.0,0.0,0.0,0.0,0.0,0.0,0.0,0.0,0.0,0.0,0.0,0.0,0.0,0.0,0.0,0.0,0.0,0.0,0.0,0.0,0.0,0.0,0.0,0.0,0.0,0.0,0.0,0.0,0.0,0.0,0.0,0.0,0.0,0.0,0.0,0.0,0.0,0.0,0.0,0.0,0.0,0.0,0.0,0.0,0.0,0.0,0.0,0.0,0.0,0.0,0.0,0.0,0.0,0.0,0.0,0.0,0.0,0.0,0.0,0.0,0.0,0.0,0.0,0.0,0.0,0.0,0.0,0.0,0.0,0.0,0.0,0.0973,0.9315,1.6397,1.4597,1.2348,1.0691,0.1639,-0.5107,-0.7622,-1.4358,0.0,0.0,0.0,0.0,0.0,0.0,0.0,0.0,0.0,0.0,0.0,0.0,0.0,0.0,0.0,0.0,0.0,0.0,0.0,0.0,0.0,0.0,0.0,0.0,0.0,0.0,0.0,0.0,0.0,0.0,0.0,0.0,0.0,0.0,0.0,0.0,0.0,0.0,0.0,0.0,0.0,0.0,0.0,0.0,0.0,0.0,0.0,0.0,0.0,0.0,0.0,0.0,0.0,0.0,0.0,0.0,0.0,0.0,0.0,0.0,0.0,0.0,0.0,0.0,0.0,0.0,0.0,0.0,0.0,0.0,0.0,0.0,0.0,0.0,0.0,0.0,0.0,0.0,0.0,0.0,0.0,0.0,0.0,0.0,0.0,0.0,0.0,0.0,0.0,0.0,0.0,0.0,0.0,0.0,0.0,0.0,0.0,0.0,0.0,0.0,0.0,0.0,0.1979,0.9315,1.6397,1.5531,1.2957,0.9396,0.3885,-0.2964,-1.1183,-1.3172,0.0,0.0,0.0,0.0,0.0,0.0,0.0,0.0,0.0,0.0,0.0,0.0,0.0,0.0,0.0,0.0,0.0,0.0,0.0,0.0,0.0,0.0,0.0,0.0,0.0,0.0,0.0,0.0,0.0,0.0,0.0,0.0,0.0,0.0,0.0,0.0,0.0,0.0,0.0,0.0,0.0,0.0,0.0,0.0,0.0,0.0,0.0,0.0,0.0,0.0,0.0,0.0,0.0,0.0,0.0,0.0,0.0,0.0,0.0,0.0,0.0,0.0,0.0,0.0,0.0,0.0,0.0,0.0,0.0,0.0,0.0,0.0,0.0,0.0,0.0,0.0,0.0,0.0,0.0,0.0,0.0,0.0,0.0,0.0,0.0,0.0,0.0,0.0,0.0,0.0,0.0,0.0,0.0,0.0,0.0,0.0,0.0,0.0,0.0,0.0,0.0,0.0,-0.3519,0.6292,1.6053,1.5853,1.3261,0.896,0.4012,-0.1952,-0.9276,-1.1377,0.0,0.0,0.0,0.0,0.0,0.0,0.0,0.0,0.0,0.0,0.0,0.0,0.0,0.0,0.0,0.0,0.0,0.0,0.0,0.0,0.0,0.0,0.0,0.0,0.0,0.0,0.0,0.0,0.0,0.0,0.0,0.0,0.0,0.0,0.0,0.0,0.0,0.0,0.0,0.0,0.0,0.0,0.0,0.0,0.0,0.0,0.0,0.0,0.0,0.0,0.0,0.0,0.0,0.0,0.0,0.0,0.0,0.0,0.0,0.0,0.0,0.0,0.0,0.0,0.0,0.0,0.0,0.0,0.0,0.0,0.0,0.0,0.0,0.0,0.0,0.0,0.0,0.0,0.0,0.0,0.0,0.0,0.0,0.0,0.0,0.0,0.0,0.0,0.0,0.0,0.0,0.0,0.0,0.0,0.0,0.0,0.0,0.0,0.0,0.0,0.0,0.0,0.0,0.0956,1.2792,1.4841,1.3573,0.9269,0.3795,-0.1422,-0.6199,0.0,0.0,0.0,0.0,0.0,0.0,0.0,0.0,0.0,0.0,0.0,0.0,0.0,0.0,0.0,0.0,0.0,0.0,0.0,0.0,0.0,0.0,0.0,0.0,0.0,0.0,0.0,0.0,0.0,0.0,0.0,0.0,0.0,0.0,0.0,0.0,0.0,0.0,0.0,0.0,0.0,0.0,0.0,0.0,0.0,0.0,0.0,0.0,0.0,0.0,0.0,0.0,0.0,0.0,0.0,0.0,0.0,0.0,0.0,0.0,0.0,0.0,0.0,0.0,0.0,0.0,0.0,0.0,0.0,0.0,0.0,0.0,0.0,0.0,0.0,0.0,0.0,0.0,0.0,0.0,0.0,0.0,0.0,0.0,0.0,0.0,0.0,0.0,0.0,0.0,0.0,0.0,0.0,0.0,0.0,0.0,0.0,0.0,0.0,0.0,0.0,0.0,0.0,0.0,-0.6548,-0.0509,1.0104,1.5025,1.0576,0.6189,-0.0173,-0.9038,0.0,0.0,0.0,0.0,0.0,0.0,0.0,0.0,0.0,0.0,0.0,0.0,0.0,0.0]}],[{"header":{"parameterUnit":"kt","parameterCategory":2,"dx":1,"dy":1,"la1":29.285339999999998,"la2":30.599998999999997,"lo1":-89.70041500000002,"lo2":-87.6738589999976,"nx":112,"ny":82,"refTime":"2022-10-05T12:00:00:Z","depth":0,"parameterNumber":2,"parameterNumberName":"V-component_of_WINDS"},"data":[7.9848,7.9804,0.0,7.5958,7.4956,0.0,7.0884,0.0,6.9232,0.0,0.0,0.0,0.0,0.0,0.0,0.0,0.0,0.0,0.0,5.5232,0.0,0.0,0.0,0.0,0.0,0.0,0.0,0.0,0.0,0.0,0.0,0.0,5.9608,6.2334,6.5089,6.7001,6.8085,6.8721,6.8993,6.8993,6.8993,6.8993,6.8993,6.8993,6.851,6.766,6.707,6.644,6.5707,6.5679,6.6533,6.7701,6.6271,6.5716,6.5731,6.5692,6.5715,6.5715,6.5715,6.5715,6.5715,6.5715,6.5715,6.5715,6.5715,6.5715,6.5715,6.5715,6.5715,6.5715,6.5715,6.5715,6.5715,6.5715,6.5715,6.5715,6.5715,6.5715,6.5715,6.5715,6.5715,6.5521,6.4842,6.3575,6.2662,6.2749,6.221,6.1722,6.143,6.0941,6.0629,6.0629,6.0629,6.0629,6.0629,6.0629,6.0629,6.0629,6.0629,6.0629,6.0629,6.0629,6.0629,6.0629,6.0629,6.0629,6.0629,6.0629,6.0629,6.0629,6.0629,6.0629,0.0,0.0,7.6293,7.4221,0.0,0.0,0.0,0.0,6.6164,6.4218,6.5358,0.0,0.0,0.0,0.0,0.0,0.0,0.0,0.0,0.0,0.0,0.0,0.0,0.0,0.0,0.0,0.0,0.0,0.0,0.0,0.0,5.8632,6.1559,6.4841,6.6478,6.7898,6.8956,6.8993,6.8993,6.8993,6.8993,6.8993,6.8993,6.8993,6.8603,6.7781,6.6861,6.6185,6.5759,6.6525,6.7686,6.8876,6.74,6.6361,6.569,6.5705,6.57,6.5736,6.566,6.5715,6.5715,6.5715,6.5715,6.5715,6.5715,6.5715,6.5715,6.5715,6.5715,6.5715,6.5715,6.5715,6.5715,6.5715,6.5715,6.5715,6.5715,6.5715,6.5715,6.5715,6.5715,6.5397,6.4409,6.3847,6.3557,6.3609,6.311,6.2516,6.1933,6.1358,6.0941,6.0705,6.0629,6.0629,6.0629,6.0629,6.0629,6.0629,6.0629,6.0629,6.0629,6.0629,6.0629,6.0629,6.0629,6.0629,6.0629,6.0629,6.0629,6.0629,6.0629,6.0629,0.0,0.0,7.0436,7.1126,6.8329,6.5632,6.6305,6.3484,6.0268,5.8887,5.9676,0.0,0.0,0.0,0.0,0.0,0.0,0.0,0.0,0.0,0.0,0.0,0.0,0.0,0.0,0.0,0.0,0.0,0.0,0.0,5.8977,6.0794,6.3187,6.644,6.816,6.8993,6.8993,6.8993,6.8993,6.8993,6.8993,6.8993,6.8993,6.8993,6.8611,6.7797,6.6398,6.5791,6.5971,6.8143,6.8995,6.9028,6.8989,6.7709,6.5827,6.5782,6.5782,6.5726,6.5722,6.568,6.5715,6.5715,6.5715,6.5715,6.5715,6.5715,6.5715,6.5715,6.5715,6.5715,6.5715,6.5715,6.5715,6.5715,6.5715,6.5715,6.5715,6.5715,6.5715,6.5715,6.5715,6.5468,6.4678,6.5217,6.5468,6.4678,6.4562,6.3898,6.2108,6.1863,6.1541,6.0748,6.0629,6.0629,6.0629,6.0629,6.0629,6.0629,6.0629,6.0629,6.0629,6.0629,6.0629,6.0629,6.0629,6.0629,6.0629,6.0629,6.0629,6.0629,6.0629,6.0629,6.8075,6.7792,6.7496,6.6233,6.51,6.3866,6.2619,6.1418,6.0531,6.0136,6.0366,0.0,0.0,0.0,0.0,0.0,0.0,5.3861,0.0,5.4499,0.0,0.0,0.0,0.0,0.0,0.0,0.0,0.0,0.0,0.0,6.0757,6.2439,6.4832,6.8235,6.8795,6.8993,6.8993,6.8993,6.8993,6.8993,6.8993,6.8993,6.8993,6.8993,6.8871,6.8646,6.8275,6.8097,6.8143,6.876,6.8999,6.9012,6.8983,6.8627,6.8076,6.8097,6.7096,6.57,6.5694,6.5678,6.5715,6.5715,6.5715,6.5715,6.5715,6.5715,6.5715,6.5715,6.5715,6.5715,6.5715,6.5715,6.5715,6.5715,6.5715,6.5715,6.5715,6.5715,6.5715,6.5715,6.5715,6.5627,6.5379,6.5575,6.5627,6.5415,6.4905,6.4114,6.2949,6.2176,6.1541,6.0748,6.0629,6.0629,6.0629,6.0629,6.0629,6.0629,6.0629,6.0629,6.0629,6.0629,6.0629,6.0629,6.0629,6.0629,6.0629,6.0629,6.0629,6.0629,6.0629,6.0629,6.3871,6.3169,6.2843,6.298,6.2381,6.1722,6.1893,6.1238,6.0629,6.0629,0.0,0.0,0.0,0.0,0.0,0.0,5.6388,0.0,0.0,0.0,5.5977,0.0,0.0,0.0,0.0,0.0,0.0,0.0,0.0,5.9822,6.2439,6.4122,6.6253,6.8945,6.8993,6.8993,6.8993,6.8993,6.8993,6.8993,6.8993,6.8993,6.8993,6.8993,6.9023,6.9006,6.9006,6.9006,6.9006,6.9006,6.9012,6.903,6.8991,6.9006,6.9019,6.903,6.8176,6.698,6.6053,6.5682,6.5715,6.5715,6.5715,6.5715,6.5715,6.5715,6.5715,6.5715,6.5715,6.5715,6.5715,6.5715,6.5715,6.5715,6.5715,6.5715,6.5715,6.5715,6.5715,6.5715,6.5715,6.5715,6.5715,6.5715,6.5715,6.5715,6.5326,6.4585,6.3336,6.2717,6.1933,6.0748,6.0629,6.0629,6.0629,6.0629,6.0629,6.0629,6.0629,6.0629,6.0629,6.0629,6.0629,6.0629,6.0629,6.0629,6.0629,6.0629,6.0629,6.0629,6.0629,6.0629,5.8936,5.768,5.7469,6.0519,5.9819,5.9354,6.2517,0.0,6.0476,6.0629,0.0,6.0629,6.0629,0.0,0.0,0.0,0.0,0.0,5.8562,5.7816,5.8169,0.0,0.0,0.0,0.0,0.0,5.8572,5.9214,6.0705,6.229,6.386,6.5543,6.7263,6.8945,6.8993,6.8993,6.8993,6.8993,6.8993,6.8993,6.8993,6.8993,6.8993,6.8993,6.8993,6.8993,6.8993,6.8993,6.8993,6.8993,6.8993,6.8993,6.8993,6.8993,6.9003,6.9019,6.8845,6.8362,6.6384,6.5707,6.5712,6.5732,6.5715,6.5715,6.5715,6.5715,6.5715,6.5715,6.5715,6.5715,6.5715,6.5715,6.5715,6.5715,6.5715,6.5715,6.5715,6.5715,6.5715,6.5715,6.5715,6.5715,6.5715,6.5715,6.5715,6.5715,6.5715,6.5127,6.3526,6.3208,6.255,6.0941,6.0705,6.0629,6.0629,6.0629,6.0629,6.0629,6.0629,6.0629,6.0629,6.0629,6.0629,6.0629,6.0629,6.0629,6.0629,6.0629,6.0629,6.0629,6.0629,6.0629,5.6769,5.5235,5.4735,5.6242,5.6392,5.6721,0.0,0.0,0.0,6.0476,6.0629,6.0629,6.0629,0.0,0.0,0.0,0.0,0.0,0.0,0.0,0.0,0.0,0.0,0.0,0.0,5.943,5.8543,5.9082,6.0668,6.229,6.386,6.5543,6.7263,6.8945,6.8993,6.8993,6.8993,6.8993,6.8993,6.8993,6.8993,6.8993,6.8993,6.8993,6.8993,6.8993,6.8993,6.8993,6.8993,6.8993,6.8993,6.8993,6.8993,6.8993,6.8993,6.9013,6.7873,6.6267,6.5858,6.5686,6.5683,6.5692,6.5715,6.5715,6.5715,6.5715,6.5715,6.5715,6.5715,6.5715,6.5715,6.5715,6.5715,6.5715,6.5715,6.5715,6.5715,6.5715,6.5715,6.5715,6.5715,6.5715,6.5715,6.5715,6.5715,6.5715,6.5715,6.5326,6.4411,6.3651,6.2751,6.1651,6.0983,6.0629,6.0629,6.0629,6.0629,6.0629,6.0629,6.0629,6.0629,6.0629,6.0629,6.0629,6.0629,6.0629,6.0629,6.0629,6.0629,6.0629,6.0629,6.0629,5.597,5.451,5.3767,5.4318,5.4984,0.0,0.0,5.8052,5.9095,5.9548,6.018,6.0716,6.1172,0.0,0.0,0.0,0.0,0.0,0.0,0.0,0.0,0.0,0.0,0.0,0.0,6.1888,6.1257,6.1481,6.3112,6.4384,6.5169,6.6814,6.8122,6.8982,6.8993,6.8993,6.8993,6.8993,6.8993,6.8993,6.8993,6.8993,6.8993,6.8993,6.8993,6.8993,6.8993,6.8993,6.8993,6.8993,6.8993,6.8993,6.8993,6.8993,6.8993,6.8993,6.8321,6.7357,6.7337,6.6658,6.569,6.5695,6.5722,6.5715,6.5715,6.5715,6.5715,6.5715,6.5715,6.5715,6.5715,6.5715,6.5715,6.5715,6.5715,6.5715,6.5715,6.5715,6.5715,6.5715,6.5715,6.5715,6.5715,6.5715,6.5715,6.5715,6.5715,6.5379,6.462,6.3713,6.2817,6.2,6.1165,6.0629,6.0629,6.0629,6.0629,6.0629,6.0629,6.0629,6.0629,6.0629,6.0629,6.0629,6.0629,6.0629,6.0629,6.0629,6.0629,6.0629,6.0629,6.0629,5.579,5.451,5.3699,5.3699,5.4318,0.0,5.5328,5.7074,5.8645,5.8933,5.9741,6.076,6.1656,6.0963,0.0,0.0,0.0,0.0,0.0,0.0,0.0,0.0,0.0,0.0,0.0,6.4227,6.3935,6.3935,6.5206,6.6103,6.644,6.7786,6.8534,6.8534,6.8833,6.887,6.8534,6.887,6.8993,6.8993,6.8993,6.8993,6.8993,6.8993,6.8993,6.8993,6.8993,6.8993,6.8993,6.8993,6.8993,6.8993,6.8993,6.8993,6.8993,6.8993,6.9012,6.8999,6.9008,6.7815,6.6288,6.5818,6.5718,6.5715,6.5715,6.5715,6.5715,6.5715,6.5715,6.5715,6.5715,6.5715,6.5715,6.5715,6.5715,6.5715,6.5715,6.5715,6.5715,6.5715,6.5715,6.5715,6.5715,6.5715,6.5715,6.5715,6.5715,6.5468,6.4848,6.3836,6.2917,6.2312,6.1312,6.0629,6.0629,6.0629,6.0629,6.0629,6.0629,6.0629,6.0629,6.0629,6.0629,6.0629,6.0629,6.0629,6.0629,6.0629,6.0629,6.0629,6.0629,6.0629,5.579,5.451,0.0,5.3699,5.3767,0.0,5.5142,5.6395,5.7863,0.0,6.0238,6.076,6.1656,0.0,0.0,0.0,0.0,0.0,0.0,0.0,0.0,0.0,0.0,0.0,0.0,6.4857,6.3935,6.3935,6.4122,6.487,6.6403,6.6664,6.6739,6.6739,6.8235,6.8309,6.6776,6.8272,6.8993,6.8993,6.8993,6.8993,6.8993,6.8993,6.8993,6.8993,6.8993,6.8993,6.8993,6.8993,6.8993,6.8993,6.8993,6.8993,6.8993,6.8993,6.903,6.9023,6.903,6.885,6.8313,6.6324,6.5718,6.5715,6.5715,6.5715,6.5715,6.5715,6.5715,6.5715,6.5715,6.5715,6.5715,6.5715,6.5715,6.5715,6.5715,6.5715,6.5715,6.5715,6.5715,6.5715,6.5715,6.5715,6.5715,6.5715,6.5715,6.5627,6.5575,6.4139,6.3144,6.3079,6.1608,6.0629,6.0629,6.0629,6.0629,6.0629,6.0629,6.0629,6.0629,6.0629,6.0629,6.0629,6.0629,6.0629,6.0629,6.0629,6.0629,6.0629,6.0629,6.0629,5.4486,5.4059,5.3699,5.3699,0.0,0.0,5.5142,5.6225,5.7433,0.0,5.976,6.0498,6.1418,6.0795,0.0,0.0,0.0,0.0,0.0,0.0,0.0,0.0,0.0,0.0,0.0,6.735,0.0,6.5505,6.6328,6.6365,6.5094,6.4982,6.4982,6.4982,6.5692,6.6178,6.6477,6.7188,6.8048,6.8993,6.8993,6.8993,6.8993,6.8993,6.8993,6.8993,6.8993,6.8993,6.8993,6.8993,6.8993,6.8993,6.8993,6.8993,6.8993,6.8993,6.8993,6.903,6.9004,6.9036,6.8628,6.6418,6.5736,6.5731,6.5731,6.5736,6.5715,6.5715,6.5715,6.5715,6.5715,6.5715,6.5715,6.5715,6.5715,6.5715,6.5715,6.5715,6.5715,6.5715,6.5715,6.5715,6.5715,6.4966,6.436,6.436,6.3575,6.2968,6.2968,6.2778,6.2395,6.1867,6.1496,6.1131,6.0705,6.0629,6.0629,6.0629,6.0629,6.0629,6.0629,6.0629,6.0629,6.0629,6.0629,6.0629,6.0629,6.0629,6.0629,6.0629,6.0629,6.0629,5.3582,0.0,0.0,0.0,0.0,0.0,5.5148,5.6409,5.7715,5.8692,5.9514,6.0341,6.1257,6.0681,0.0,0.0,0.0,0.0,0.0,0.0,0.0,0.0,0.0,0.0,0.0,0.0,0.0,0.0,6.8309,6.7524,6.4122,6.4384,6.4234,6.3337,6.3711,6.4346,6.5131,6.5879,6.6702,6.761,6.8545,6.8993,6.8993,6.8993,6.8993,6.8993,6.8993,6.8993,6.8993,6.8993,6.8993,6.8993,6.8993,6.8993,6.902,6.8982,6.9009,6.9009,6.9009,6.9012,6.8711,6.7126,6.66,6.6497,6.5899,6.5731,6.5696,6.568,6.5715,6.5715,6.5715,6.5715,6.5715,6.5715,6.5715,6.5715,6.5715,6.5002,6.4395,6.4395,6.4395,6.4395,6.4395,6.3468,6.2754,6.2754,6.1755,6.1006,6.1006,6.1358,6.1219,6.0318,6.082,6.0867,6.0113,6.0399,6.0629,6.0629,6.0629,6.0629,6.0629,6.0629,6.0629,6.0629,6.0629,6.0629,6.0629,6.0629,6.0629,6.0629,6.0629,6.0432,0.0,0.0,0.0,5.3699,5.451,5.5333,5.5253,5.6983,5.8892,5.9667,5.9937,6.0341,6.1257,6.0681,0.0,0.0,0.0,0.0,0.0,0.0,0.0,0.0,0.0,0.0,0.0,0.0,0.0,0.0,6.8982,6.7524,6.4122,6.5505,6.4944,6.1804,6.315,6.3262,6.1766,6.4421,6.5181,6.4121,6.7423,6.8993,6.8993,6.8993,6.8993,6.8993,6.8993,6.8993,6.8993,6.8993,6.8993,6.8993,6.8993,6.8993,6.902,6.8997,6.8986,6.8986,6.8999,6.9013,6.8982,6.8944,6.8924,6.8494,6.6361,6.5683,6.5707,6.5696,6.5715,6.5715,6.5715,6.5715,6.5715,6.5715,6.5715,6.5715,6.5715,6.3289,6.1149,6.1149,6.1149,6.1149,6.1149,6.1113,6.1077,6.1077,6.1042,6.1006,6.1006,6.0387,5.9649,5.8864,5.9194,5.9293,5.8631,5.984,6.0629,6.0629,6.0629,6.0629,6.0629,6.0629,6.0629,6.0629,6.0629,6.0629,6.0629,6.0629,6.0629,6.0629,6.0629,5.9906,5.1984,5.2317,5.2621,5.4414,5.5888,5.7053,5.7417,5.8889,6.0105,6.002,6.0038,6.015,6.048,6.0282,6.0251,0.0,0.0,0.0,0.0,0.0,0.0,0.0,0.0,0.0,0.0,0.0,0.0,0.0,0.0,0.0,6.4122,6.4496,6.3823,6.1692,6.1056,6.1019,6.1617,6.2901,6.3661,6.3972,6.7386,6.8993,6.8993,6.8993,6.8993,6.8993,6.8993,6.65,6.2752,6.7201,6.9011,6.9011,6.9011,6.9011,6.9011,6.8999,6.6229,6.2403,6.2428,6.2428,6.2397,6.2397,6.2425,6.2048,6.0102,6.24,6.5401,6.4051,6.3175,6.2611,6.2611,6.2611,6.2611,6.2611,6.2611,6.2611,6.2611,6.1755,6.1006,6.1006,6.1006,6.1006,6.1006,6.0185,5.9472,5.9472,5.8616,5.7974,5.7974,5.8593,5.8799,5.799,5.8563,5.8648,5.7823,5.8619,5.9248,5.9248,6.0103,6.0629,6.0629,6.0629,6.0629,6.0629,6.0629,6.0169,5.9248,6.0169,6.0629,6.0629,5.9676,5.8985,5.1875,5.3066,5.4267,5.6854,5.8664,5.969,5.95,6.0531,6.117,6.0266,6.0076,6.0062,6.0062,6.0062,6.0062,0.0,0.0,0.0,0.0,0.0,0.0,0.0,0.0,0.0,0.0,0.0,0.0,0.0,0.0,6.7823,6.4982,6.4271,6.3225,6.1692,5.9972,5.9635,6.0719,6.1046,6.2167,6.3997,6.7375,6.8982,6.8993,6.8993,6.902,6.8859,6.6526,6.305,5.9418,6.3711,6.5443,6.5443,6.5443,6.5443,6.5443,6.5467,6.2776,5.9106,5.9069,5.9093,5.9093,5.9093,5.91,5.8993,5.8643,6.1013,6.356,6.2378,6.1567,6.1006,6.1006,6.1006,6.1006,6.1006,6.1006,6.0721,5.9579,5.9365,5.9365,5.9365,5.9365,5.9365,5.9365,5.8544,5.7867,5.7867,5.7046,5.6359,5.6359,5.726,5.755,5.6787,5.7414,5.7517,5.6612,5.731,5.7736,5.7736,5.8591,5.9084,5.9084,5.9084,5.9084,5.9084,5.961,5.9183,5.7736,5.8656,5.9084,5.9084,5.8163,5.7736,5.2853,5.5418,5.8009,6.0644,6.2329,6.2954,6.1207,6.1746,6.2109,6.0323,6.0029,6.0062,6.0062,6.0062,6.0062,0.0,0.0,0.0,0.0,0.0,0.0,0.0,0.0,0.0,0.0,0.0,0.0,0.0,6.8022,6.8174,6.6453,6.4844,6.3273,6.1701,5.998,5.9097,5.9134,5.9126,6.0635,6.3748,6.7314,6.8997,6.902,6.902,6.8822,6.8125,6.1843,5.9082,5.9082,5.9082,5.9082,5.9082,5.9082,5.9082,5.9082,5.9093,5.9117,5.908,5.9089,5.9089,5.9089,5.9089,5.9082,5.9462,6.1559,6.1314,6.0354,6.0707,6.084,6.0792,6.0792,6.0792,6.0792,6.0792,6.0792,5.9971,5.7046,5.6359,5.6359,5.6359,5.6359,5.6359,5.6359,5.6359,5.6359,5.6359,5.6359,5.6359,5.6359,5.6359,5.6105,5.5343,5.5855,5.5978,5.5224,5.5852,5.6223,5.6223,5.6289,5.6393,5.6393,5.6393,5.6393,5.6393,5.7637,5.7604,5.6223,5.6289,5.6393,5.6393,5.6256,5.6223,5.0963,5.3941,5.6916,6.1419,6.2928,6.2954,6.1207,6.1746,6.1863,5.9284,5.9477,6.0062,6.0062,6.0062,6.0062,6.0062,0.0,0.0,0.0,0.0,0.0,0.0,0.0,0.0,0.0,0.0,0.0,0.0,6.6611,6.6805,6.5107,6.4595,6.3614,6.1992,6.0256,5.9366,5.9233,5.9215,5.9585,6.0411,6.6216,6.8999,6.9011,6.9011,6.6303,6.1531,5.9827,5.9117,5.9103,5.9103,5.9103,5.9103,5.9103,5.9103,5.9103,5.9066,5.9089,5.9089,5.9089,5.9089,5.9089,5.9089,5.908,5.9107,5.9202,5.8696,5.8136,5.8143,5.7823,5.7581,5.7581,5.7581,5.7581,5.7581,5.7581,5.7367,5.6537,5.6359,5.6359,5.6359,5.6359,5.6359,5.6359,5.6359,5.6359,5.6359,5.6359,5.6359,5.6359,5.6359,5.6278,5.6105,5.5324,5.4666,5.4497,5.4583,5.4645,5.4645,5.5697,5.6393,5.6393,5.6393,5.6393,5.6393,5.5599,5.5007,5.4645,5.5796,5.6393,5.6393,5.5171,5.4645,4.8858,5.3883,5.8911,6.3551,6.533,6.5341,6.3094,6.3067,6.2866,6.0584,6.0086,6.0062,6.0062,6.0062,6.0062,6.0062,0.0,0.0,0.0,0.0,0.0,0.0,0.0,0.0,0.0,0.0,0.0,0.0,6.5027,6.5556,6.4598,6.383,6.2998,6.204,6.0351,5.9406,5.9284,5.9322,5.9308,5.914,6.2875,6.4657,6.467,6.467,6.2626,5.9103,5.9103,5.9066,5.9089,5.9089,5.9089,5.9089,5.9089,5.9089,5.9089,5.9089,5.9089,5.9089,5.9089,5.9089,5.9089,5.9089,5.9089,5.8968,5.8313,5.7982,5.7703,5.7479,5.7098,5.6718,5.6718,5.6545,5.6359,5.6359,5.6359,5.6359,5.6359,5.6359,5.6359,5.6359,5.6359,5.6359,5.6359,5.6359,5.6359,5.6359,5.6359,5.6359,5.6359,5.6359,5.6359,5.6359,5.5329,5.452,5.4283,5.3814,5.3464,5.3133,5.3922,5.4382,5.4382,5.4382,5.4382,5.4382,5.356,5.3133,5.3133,5.3955,5.4382,5.4349,5.3527,5.3133,4.7507,5.4639,6.1916,6.5845,6.7736,6.794,6.5391,6.4594,6.3981,6.2453,6.1045,6.0062,6.0062,6.0062,6.0062,6.0062,6.0062,0.0,0.0,0.0,0.0,0.0,0.0,0.0,0.0,0.0,0.0,0.0,6.3371,6.418,6.3953,6.2791,6.1996,6.1769,6.0303,5.9481,5.9344,5.9457,5.9363,5.9157,5.9112,5.9103,5.9082,5.9082,5.9093,5.9089,5.9089,5.9089,5.9089,5.9089,5.9089,5.9089,5.9089,5.9089,5.9089,5.9089,5.9089,5.9089,5.9089,5.9089,5.9089,5.9089,5.9089,5.9005,5.8405,5.8295,5.8255,5.7887,5.7516,5.7215,5.7215,5.6932,5.6545,5.6457,5.6457,5.6457,5.6457,5.6448,5.6359,5.6359,5.6359,5.6359,5.6359,5.6359,5.6359,5.6359,5.6359,5.6359,5.6359,5.6359,5.6359,5.6359,5.5658,5.4991,5.4412,5.3571,5.2769,5.211,5.1949,5.1883,5.1883,5.1883,5.1883,5.1883,5.1883,5.1883,5.1883,5.1883,5.1883,5.1883,5.1883,5.1883,5.0624,5.5306,6.0786,6.5675,6.6185,6.5447,6.5112,6.3869,6.2477,6.1225,6.0474,6.0062,6.0062,6.0062,6.0062,6.0062,6.0062,0.0,0.0,0.0,0.0,0.0,0.0,0.0,0.0,0.0,0.0,0.0,0.0,6.233,6.0926,6.1877,6.1839,6.0472,6.0131,5.9848,5.9624,5.951,5.9466,5.942,5.9176,5.91,5.9066,5.9066,5.9089,5.9089,5.9089,5.9089,5.9089,5.9089,5.9089,5.9089,5.9089,5.9089,5.9089,5.9089,5.9089,5.9089,5.9089,5.9089,5.9089,5.9089,5.9089,5.9089,5.8968,5.8633,5.8313,5.8255,5.7919,5.7621,5.7621,5.7551,5.7443,5.7098,5.7014,5.7014,5.7014,5.6675,5.6359,5.6359,5.6359,5.6359,5.6359,5.6359,5.6359,5.6359,5.6359,5.6359,5.6359,5.6359,5.6359,5.6359,5.5658,5.5194,5.5042,5.3824,5.3013,5.2891,5.2238,5.1883,5.1883,5.1883,5.1883,5.1883,5.1883,5.1883,5.1883,5.1883,5.1883,5.1883,5.1883,5.1883,5.1351,5.5846,6.111,6.501,6.4885,6.3845,6.3923,6.2068,6.0809,6.2443,6.17,6.0617,6.0174,6.0455,6.0617,6.0136,6.0062,6.0062,0.0,0.0,0.0,0.0,0.0,0.0,0.0,0.0,0.0,0.0,0.0,6.0935,6.01,6.0859,6.0897,6.01,6.0062,5.9943,5.9669,5.9744,5.979,5.9794,5.9296,5.9119,5.91,5.908,5.908,5.91,5.9104,5.9089,5.9089,5.9089,5.9089,5.9089,5.9089,5.9089,5.9089,5.9089,5.9089,5.9089,5.9089,5.9089,5.9089,5.9089,5.9089,5.9089,5.9089,5.892,5.8721,5.8721,5.8378,5.8045,5.8045,5.7887,5.769,5.748,5.7623,5.7621,5.7254,5.6932,5.6718,5.6448,5.6359,5.6359,5.6359,5.6359,5.6359,5.6359,5.6359,5.6359,5.6359,5.6359,5.6359,5.6359,5.6059,5.5658,5.5244,5.4592,5.388,5.31,5.2707,5.2365,5.1949,5.1883,5.1883,5.1883,5.1883,5.1883,5.1883,5.1883,5.1883,5.1883,5.1883,5.1883,5.1856,5.6365,6.1586,6.4064,6.3582,6.2824,6.3904,6.1245,5.9627,6.3456,6.2557,6.0941,6.0208,6.0649,6.0897,6.0173,6.0062,6.0062,6.0062,0.0,0.0,0.0,0.0,0.0,0.0,0.0,0.0,0.0,0.0,0.0,6.0062,6.0062,6.0062,6.0062,6.0062,5.9982,5.9764,5.9954,6.0068,0.0,5.9516,5.9237,5.9086,5.9221,5.9259,5.9146,5.9175,5.9157,5.9089,5.9089,5.9089,5.9089,5.9089,5.9089,5.9089,5.9089,5.9089,5.9089,5.9089,5.9089,5.9089,5.9089,5.9089,5.9089,5.9089,5.9089,5.9089,5.9089,5.8809,5.8489,5.8489,5.8263,5.802,5.802,5.8167,5.8167,5.7552,5.7332,5.7137,5.6632,5.6545,5.6501,5.6404,5.6359,5.6359,5.6359,5.6359,5.6359,5.6359,5.6359,5.6359,5.6359,5.6359,5.6105,5.5526,5.5294,5.4749,5.3595,5.3219,5.2769,5.2174,5.2014,5.1883,5.1883,5.1883,5.1883,5.1883,5.1883,5.1883,5.1883,5.1883,5.1883,5.357,5.7018,6.126,6.275,6.2091,6.2364,6.7442,6.3431,5.9413,6.2074,6.131,6.0181,6.009,6.0137,6.0174,6.01,6.0062,6.0062,6.0062,6.0062,0.0,0.0,0.0,0.0,0.0,0.0,0.0,0.0,0.0,0.0,0.0,6.0062,6.0062,6.0062,6.0062,6.0061,6.0023,6.0061,6.0052,6.0074,6.0017,5.9672,5.9129,5.9734,5.9772,5.9457,5.9426,5.9307,5.9089,5.9089,5.9089,5.9089,5.9089,5.9089,5.9089,5.9089,5.9089,5.9089,5.9089,5.9089,5.9089,5.9089,5.9089,5.9089,5.9089,5.9089,5.9089,5.9089,5.9052,5.9028,5.9028,5.9005,5.8981,5.8981,5.8606,5.8313,5.8226,5.7919,5.7587,5.7137,5.7094,5.6932,5.6457,5.6359,5.6359,5.6359,5.6359,5.6359,5.6359,5.6359,5.6359,5.6359,5.6359,5.6359,5.6278,5.5574,5.5159,5.5007,5.3767,5.304,5.2952,5.2302,5.1883,5.1883,5.1883,5.1883,5.1883,5.1883,5.1883,5.1883,5.1883,5.1883,5.039,5.3901,5.8349,5.8592,6.0247,6.1778,6.1817,6.1215,6.134,6.358,6.3101,6.1846,6.0431,6.0578,6.0719,6.0174,6.0062,6.0062,6.0062,6.0062,6.0062,0.0,0.0,0.0,0.0,0.0,0.0,0.0,0.0,0.0,0.0,6.0062,6.0062,6.0062,6.0062,6.0062,6.0062,6.0062,6.006,6.0052,6.0068,5.9941,5.9684,5.9965,5.9866,5.9495,5.9717,5.9646,5.9312,5.9146,5.9079,5.9102,5.9102,5.9114,5.9089,5.9089,5.9089,5.9089,5.9089,5.9089,5.9089,5.9089,5.9089,5.9089,5.9089,5.9089,5.9089,5.9089,5.9089,5.9089,5.9089,5.9089,5.9089,5.9089,5.892,5.8696,5.8369,5.8197,5.7951,5.7587,5.7294,5.7094,5.685,5.6589,5.6359,5.6359,5.6359,5.6359,5.6359,5.6359,5.6359,5.6359,5.6359,5.6359,5.6359,5.6105,5.5706,5.5244,5.4303,5.3744,5.3744,5.2583,5.1883,5.1883,5.1883,5.1883,5.1883,5.1883,5.1883,5.1883,5.1883,5.1883,4.7443,5.1551,5.6111,5.5332,5.7775,5.9676,5.6628,5.8999,6.2359,6.3946,6.4154,6.32,6.0669,6.105,6.1346,6.0155,5.9996,6.0067,6.0061,6.0062,6.0062,6.0062,0.0,0.0,0.0,0.0,0.0,0.0,0.0,0.0,0.0,6.0062,6.0062,6.0062,6.0062,6.0062,6.0062,6.0062,6.0062,6.0062,6.0072,6.0075,6.0062,6.0079,5.9911,5.9692,5.9939,5.9896,5.9631,5.9466,5.9382,5.9381,5.9167,5.9102,5.911,5.9097,5.9089,5.9089,5.9089,5.9089,5.9089,5.9089,5.9089,5.9089,5.9089,5.9089,5.9089,5.9089,5.9089,5.9089,5.9089,5.9089,5.9089,5.9089,5.9089,5.9005,5.8606,5.8553,5.8407,5.7983,5.7623,5.7292,5.7173,5.6718,5.6359,5.6359,5.6359,5.6359,5.6359,5.6359,5.6359,5.6359,5.6359,5.6359,5.6359,5.6359,5.6105,5.5609,5.4732,5.4228,5.4228,5.2707,5.1883,5.1883,5.1883,5.1883,5.1883,5.1883,5.1883,5.1883,5.1883,5.1883,4.6194,5.0967,5.537,5.3903,5.4639,5.5432,5.3833,5.7682,6.1811,6.2294,6.3538,6.3632,6.0605,6.1336,6.1797,5.9957,5.9873,6.0082,6.0056,6.0062,6.0062,6.0062,0.0,0.0,0.0,0.0,0.0,0.0,0.0,0.0,0.0,6.0062,6.0062,6.0062,6.0062,6.0062,6.0062,6.0062,6.0062,6.0062,6.0063,6.0067,6.0062,6.0062,6.0062,6.0061,6.0072,6.0048,6.0074,6.0086,6.006,6.0011,5.9328,5.9096,5.9099,5.9088,5.9089,5.9089,5.9089,5.9089,5.9089,5.9089,5.9089,5.9089,5.9089,5.9089,5.9089,5.9089,5.9089,5.9089,5.9089,5.9089,5.9089,5.9089,5.9089,5.9089,5.9089,5.9089,5.892,5.8434,5.7983,5.7586,5.7215,5.6718,5.6359,5.6359,5.6359,5.6359,5.6359,5.6359,5.6359,5.6359,5.6359,5.6359,5.6359,5.6359,5.6359,5.6359,5.5061,5.4228,5.4228,5.2707,5.1883,5.1883,5.1883,5.1883,5.1883,5.1883,5.1883,5.1883,5.1883,5.1883,4.0736,4.3901,4.7367,4.5487,4.8537,5.2644,5.5515,5.8976,6.2067,6.3522,6.5127,6.5381,6.2461,6.212,6.1737,6.0181,6.001,6.0063,6.0061,6.0062,6.0062,6.0062,6.0062,0.0,0.0,0.0,0.0,0.0,0.0,0.0,0.0,6.0062,6.0062,6.0062,6.0062,6.0062,6.0062,6.0062,6.0062,6.0062,6.0058,6.0058,6.0062,6.0062,6.0062,6.0062,6.0059,6.0056,6.0056,6.0082,6.0075,6.0034,5.9844,5.9477,5.9104,5.9072,5.9095,5.9102,5.9119,5.9083,5.9102,5.9082,5.9089,5.9089,5.9089,5.9089,5.9089,5.9089,5.9089,5.9089,5.9089,5.9089,5.9089,5.9089,5.9089,5.9089,5.9089,5.9089,5.9028,5.8896,5.8434,5.8014,5.7586,5.7179,5.6766,5.6448,5.6359,5.6359,5.6359,5.6359,5.6359,5.6359,5.6359,5.6359,5.6359,5.6359,5.6359,5.6359,5.5428,5.4679,5.4228,5.3219,5.2491,5.1883,5.1883,5.1883,5.1883,5.1883,5.1883,5.1883,5.1883,5.1883,3.9416,4.267,4.5869,4.4849,4.82,5.2912,5.7441,6.1539,6.476,6.5945,6.6274,6.5617,6.3328,6.2164,6.1388,6.0887,6.0453,6.0263,6.0535,6.0282,6.0249,6.0746,6.0358,6.0062,0.0,0.0,0.0,0.0,0.0,0.0,6.0067,6.0047,6.0055,6.0055,6.006,6.0062,6.0062,6.0062,6.0062,6.0062,6.0062,6.0062,6.0062,6.0062,6.0062,6.0062,6.0062,6.0062,6.0062,6.0062,6.0062,6.0061,6.005,5.9815,5.9452,5.9477,5.9455,5.9469,5.944,5.9298,5.9102,5.9102,5.9077,5.9093,5.9097,5.9089,5.9089,5.9089,5.9089,5.9089,5.9089,5.9089,5.9089,5.9089,5.9089,5.9089,5.9089,5.9089,5.9089,5.9089,5.8696,5.8197,5.7789,5.7406,5.6973,5.6448,5.6359,5.6359,5.6359,5.6359,5.6359,5.6359,5.6359,5.6359,5.6359,5.6359,5.6359,5.6359,5.5658,5.494,5.4283,5.3455,5.2707,5.1949,5.1883,5.1883,5.1883,5.1883,5.1883,5.1883,5.1883,5.1883,4.1309,4.5363,4.896,4.9389,5.1825,5.5268,5.9875,6.4489,6.7845,6.791,6.6013,6.396,6.2751,6.1196,6.0541,6.1679,6.0966,6.0483,6.1229,6.0736,6.0648,6.1738,6.0807,6.0061,6.0059,0.0,0.0,0.0,0.0,0.0,5.9996,5.9987,6.0037,6.0074,6.0052,6.0061,6.0061,6.0062,6.0062,6.0061,6.0062,6.0062,6.0062,6.0062,6.0062,6.0062,6.0061,6.0061,6.0062,6.0061,6.0061,6.0062,6.0062,6.0055,6.0086,6.0067,6.0055,6.0055,6.0082,5.9655,5.9141,5.9117,5.9113,5.9099,5.911,5.9074,5.9089,5.9089,5.9089,5.9089,5.9089,5.9089,5.9089,5.9089,5.9089,5.9089,5.9089,5.9089,5.9089,5.9089,5.8696,5.8226,5.7825,5.7443,5.7014,5.6457,5.6359,5.6359,5.6359,5.6359,5.6359,5.6359,5.6359,5.6359,5.6359,5.6359,5.6359,5.6359,5.5706,5.4991,5.4338,5.3571,5.2769,5.2014,5.1949,5.1883,5.1883,5.1883,5.1883,5.1883,5.1883,5.1883,4.0402,4.1384,4.237,4.2352,4.661,5.3579,6.4499,6.1865,5.7276,5.7683,5.7299,5.6876,5.6484,5.6791,5.7828,6.0289,6.035,6.0173,6.0375,6.1502,6.1851,6.0669,6.0276,6.0075,6.0072,6.0082,0.0,0.0,0.0,0.0,5.9341,5.9336,5.9546,6.0038,6.0068,6.0067,6.0067,6.0058,6.0058,6.0067,6.0058,6.0062,6.0062,6.0062,6.0062,6.0061,6.0047,6.005,6.0061,6.0082,6.005,6.0062,6.0062,6.0061,6.0058,6.0052,6.005,6.0082,6.0074,5.9979,5.9768,5.9254,5.911,5.9079,5.9101,5.9097,5.9089,5.9089,5.9089,5.9089,5.9089,5.9089,5.9089,5.9089,5.9089,5.9089,5.9089,5.9089,5.9089,5.9089,5.9005,5.8644,5.7858,5.7656,5.7333,5.6501,5.6359,5.6359,5.6359,5.6359,5.6359,5.6359,5.6359,5.6359,5.6359,5.6359,5.6359,5.6359,5.6187,5.5789,5.4991,5.4303,5.3571,5.283,5.2174,5.1883,5.1883,5.1883,5.1883,5.1883,5.1883,5.1883,4.0008,4.0035,3.9181,3.5219,3.9739,4.7042,5.4057,4.9077,4.3131,4.3479,4.7037,5.0311,5.1318,5.7276,6.0944,5.7873,5.8908,6.038,6.1265,6.1529,6.1259,6.0164,0.0,6.0249,6.0092,6.008,5.9955,0.0,0.0,0.0,5.9075,5.9095,5.9266,5.9606,5.9612,5.9752,6.0055,5.9765,5.9613,5.96,5.9916,6.005,6.005,6.006,6.0062,6.0061,0.0,6.0079,6.0061,6.0072,6.0079,6.0062,6.0062,6.0062,6.0062,6.0062,6.0062,6.0061,6.0052,6.0047,6.0,5.9662,5.9347,5.9105,5.9086,5.9083,5.9097,5.9097,5.9126,5.9152,5.9097,5.9089,5.9089,5.9089,5.9089,5.9089,5.9089,5.9089,5.9089,5.9089,5.9089,5.8871,5.8107,5.7822,5.7479,5.685,5.6501,5.6359,5.6359,5.6359,5.6359,5.6359,5.6359,5.6359,5.6359,5.6359,5.6359,5.6359,5.6359,5.6013,5.5244,5.4573,5.3858,5.3073,5.2302,5.1883,5.1883,5.1883,5.1883,5.1883,5.1883,5.1883,4.0071,3.9042,3.6328,2.9237,3.3265,3.9057,3.8623,3.4538,3.0726,3.0719,3.7858,4.4724,4.6608,5.6567,6.2787,5.7236,5.768,5.9604,6.2211,6.1233,6.0218,6.0221,6.0531,6.0549,6.011,6.0071,5.9803,5.9163,0.0,5.9102,5.9074,5.91,5.9082,5.9082,5.9101,5.9369,5.9911,5.9369,5.9105,5.9079,5.9676,5.991,5.9917,6.0044,6.0058,6.0059,0.0,5.9996,5.991,6.0034,6.0079,6.0062,6.0062,6.0062,6.0062,6.0062,6.0062,6.0062,6.0062,6.0062,6.0061,6.0075,5.9598,5.9107,5.9104,5.9102,5.9151,5.9155,5.9233,5.9232,5.9168,5.9097,5.9089,5.9089,5.9089,5.9089,5.9089,5.9089,5.9089,5.9089,5.9089,5.892,5.8434,5.8045,5.7656,5.7215,5.6802,5.6493,5.6404,5.6359,5.6359,5.6359,5.6359,5.6359,5.6359,5.6359,5.6359,5.6359,5.6359,5.6059,5.5428,5.4871,5.4173,5.3219,5.2491,5.2014,5.1883,5.1883,5.1883,5.1883,5.1883,5.1883,4.0012,3.4781,2.8967,2.779,3.1095,3.4393,3.2601,3.1347,3.0671,3.0656,3.6068,4.0902,4.1299,4.3026,4.9346,6.4274,5.8907,5.4588,5.9808,6.0823,6.1046,6.1067,6.1126,0.0,6.0133,6.0055,5.9782,5.9174,5.9101,5.9119,5.9112,5.9097,5.9104,5.9104,5.9101,5.9119,5.9243,5.9157,5.9108,5.9108,5.918,5.9261,5.9261,5.9811,6.0071,6.0058,0.0,0.0,5.9302,5.9844,6.0079,6.0062,6.0062,6.0062,6.0062,6.0062,6.0062,6.0062,6.0062,6.0062,6.0062,6.0061,5.963,5.9094,5.91,5.9253,5.9407,5.9419,5.9283,5.9171,5.925,5.9172,5.9089,5.9089,5.9089,5.9089,5.9089,5.9089,5.9089,5.9089,5.9089,5.892,5.8434,5.8284,5.7983,5.7254,5.7094,5.685,5.6448,5.6359,5.6359,5.6359,5.6359,5.6359,5.6359,5.6359,5.6359,5.6359,5.6359,5.6278,5.6187,5.6095,5.5414,5.4083,5.3279,5.2521,5.1883,5.1883,5.1883,5.1883,5.1883,5.1883,3.4464,3.0314,2.7492,2.8163,3.0236,3.185,3.1013,3.0634,3.1134,3.2907,3.9214,4.3492,4.0633,4.0003,4.644,6.5845,5.5662,4.6825,5.1239,5.689,6.0469,6.0108,6.0378,6.128,0.0,6.094,5.9411,5.9116,5.9079,5.9089,5.9089,5.9089,5.9089,5.9089,5.9093,5.9093,5.9089,5.9093,5.908,5.908,5.9092,5.9087,5.9124,5.9407,5.9715,0.0,0.0,0.0,5.965,5.9962,6.0071,6.0086,6.0058,6.0062,6.0062,6.0062,6.0062,6.0062,6.0062,6.0062,6.0062,6.0062,5.987,5.9554,5.9224,5.9441,5.9701,5.9351,5.93,5.9341,5.9406,5.9264,5.912,5.9195,5.9147,5.9089,5.9089,5.9089,5.9089,5.9089,5.9089,5.9005,5.8784,5.8489,5.8197,5.7822,5.7443,5.7054,5.6808,5.6545,5.6359,5.6359,5.6359,5.6359,5.6359,5.6359,5.6359,5.6359,5.6359,5.6359,5.6359,5.6359,5.5836,5.4784,5.3687,5.2891,5.2521,5.2143,5.1883,5.1883,5.1883,5.1883,2.9973,0.0,2.9242,3.0267,3.1057,3.169,0.0,3.1515,3.2031,3.3926,4.0127,4.3972,3.971,3.8399,4.2912,5.8556,4.9261,4.1989,4.7707,5.5026,6.0237,6.1353,6.0537,6.0985,6.387,6.249,6.0795,5.9199,5.9096,5.9089,5.9089,5.9089,5.9089,5.9089,5.9089,5.9089,5.9089,5.9089,5.9089,5.9112,5.91,5.9083,5.9101,5.9102,5.9351,0.0,0.0,0.0,5.9813,5.9344,5.9542,6.006,6.0082,6.0062,6.0062,6.0062,6.0062,6.0062,6.0062,6.0062,6.0062,6.0062,6.0062,5.9985,5.9472,5.9673,5.9985,5.9472,5.9337,5.9386,5.9452,5.9319,5.9199,5.9226,5.9177,5.9141,5.9074,5.9089,5.9089,5.9089,5.9089,5.9089,5.9089,5.8784,5.8462,5.8341,5.7825,5.7369,5.7137,5.6808,5.6501,5.6404,5.6359,5.6359,5.6359,5.6359,5.6359,5.6359,5.6359,5.6359,5.6359,5.6359,5.6105,5.5477,5.4214,5.3537,5.3537,5.2645,5.2078,5.1883,5.1883,5.1883,0.0,3.2099,3.4117,3.418,3.4716,3.4729,3.3899,3.36,0.0,3.1409,3.3897,3.6157,3.5763,3.3382,3.2736,3.7105,3.9051,4.4488,5.7362,5.9191,6.1469,6.7745,6.2951,5.9261,5.9543,6.4883,6.5756,5.9562,5.9097,5.9089,5.9089,5.9089,5.9089,5.9089,5.9089,5.9089,5.9089,5.9089,5.9089,5.9089,5.9074,5.9097,5.9097,5.9082,5.9117,0.0,0.0,0.0,0.0,5.7316,5.7984,6.009,6.0067,6.0062,6.0062,6.0062,6.0062,6.0062,6.0062,6.0062,6.0062,6.0062,6.0062,6.0062,6.0024,6.0024,6.0062,6.0024,5.9592,5.917,5.943,5.947,5.9395,5.9183,5.9192,5.9233,5.9119,5.9089,5.9089,5.9089,5.9089,5.9089,5.9089,5.9052,5.8896,5.8369,5.8284,5.7951,5.7254,5.7134,5.6891,5.6448,5.6359,5.6359,5.6359,5.6359,5.6359,5.6359,5.6359,5.6359,5.6359,5.6359,5.6359,5.6278,5.5477,5.5058,5.5058,5.3653,5.2583,5.1883,5.1883,5.1883,3.362,3.5653,3.7413,3.7413,3.7864,3.7864,3.6539,3.5537,3.4622,3.3711,3.3782,3.407,3.4269,3.4433,3.4792,3.5311,4.1374,4.9157,5.8238,5.93,5.8834,5.825,5.8726,6.0737,6.4858,6.3813,6.1811,5.9268,5.9102,5.9089,5.9089,5.9089,5.9089,5.9089,5.9089,5.9089,5.9089,5.9089,5.9089,5.9089,5.9089,5.9089,5.9089,5.9089,5.9095,0.0,0.0,0.0,0.0,5.8775,5.9233,6.0062,6.0085,6.0055,6.0062,6.0062,6.0062,6.0062,6.0062,6.0062,6.0062,6.0062,6.0062,6.0062,6.0062,6.0062,6.0062,6.0062,5.9907,5.9713,5.9827,5.9527,5.9259,5.9404,5.9317,5.9192,5.9196,5.9168,5.9089,5.9089,5.9089,5.9089,5.9089,5.9089,5.9028,5.8834,5.8553,5.8226,5.7919,5.7443,5.7094,5.685,5.6545,5.6359,5.6359,5.6359,5.6359,5.6359,5.6359,5.6359,5.6359,5.6359,5.6359,5.6359,5.6059,5.5706,5.5194,5.4644,5.3824,5.2583,5.2143,5.1883,3.6004,3.8637,4.0851,4.0851,4.1213,4.0973,3.8979,3.7212,3.5812,3.4929,3.3402,3.246,3.2681,3.4822,3.652,3.6797,4.3531,5.0654,5.6047,5.7611,5.7147,5.4197,5.726,6.1234,6.5485,6.1736,5.9092,5.9072,5.9102,5.9088,5.9112,5.9089,5.9089,5.9089,5.9089,5.908,5.9095,5.9095,5.9082,5.909,5.909,5.909,5.9053,5.8792,5.8803,0.0,0.0,0.0,0.0,5.7671,5.8386,5.9775,5.9974,6.008,6.0037,5.9924,5.9962,6.0041,5.9825,5.9905,6.0058,6.0061,6.0062,6.0062,6.0062,6.0062,6.0062,6.0062,6.0062,6.0062,6.0062,5.9751,5.9426,5.9484,5.9329,5.9228,5.9242,5.9158,5.911,5.9074,5.9089,5.9089,5.9089,5.9089,5.9089,5.9089,5.8809,5.8489,5.8341,5.7822,5.7443,5.7137,5.6808,5.6545,5.6404,5.6359,5.6359,5.6359,5.6359,5.6359,5.6359,5.6359,5.6359,5.6359,5.6359,5.6105,5.5574,5.5294,5.4697,5.371,5.2769,5.211,3.7477,4.1233,4.4755,4.4755,4.4755,4.3935,4.0769,3.8832,3.6904,3.371,3.1756,3.0761,3.0761,3.3286,3.6394,3.9678,4.4032,4.8181,5.1417,5.4447,5.7018,5.8672,5.9928,6.0233,5.9176,5.906,5.9054,5.9082,5.9102,0.0,5.9112,5.9089,5.9089,5.9089,5.9089,5.9095,5.9111,5.9046,5.9054,5.9074,5.9074,5.9074,5.9037,5.8125,5.8206,0.0,0.0,0.0,0.0,5.3186,5.4776,5.9164,5.9818,6.006,6.0022,5.9606,5.972,5.9969,5.9328,5.9511,6.0058,6.0058,6.0062,6.0062,6.0062,6.0062,6.0062,6.0062,6.0062,6.0062,6.0062,6.0062,5.9908,5.9266,5.9289,5.9389,5.9155,5.9096,5.9101,5.9082,5.9112,5.9089,5.9089,5.9089,5.9089,5.9089,5.9089,5.892,5.8369,5.8313,5.8014,5.7254,5.7137,5.6932,5.6448,5.6404,5.6404,5.6359,5.6359,5.6359,5.6359,5.6359,5.6359,5.6359,5.6359,5.6359,5.6359,5.5574,5.5209,5.5159,5.3767,5.2645,4.122,4.4762,4.7833,4.7833,4.7833,4.7049,4.4058,4.1288,3.8477,3.5273,3.2189,3.0177,3.0177,3.2632,3.5938,3.8977,4.4022,4.8475,5.1395,5.4148,5.6022,5.6512,5.7778,5.8737,5.9066,5.7918,5.7896,5.9625,5.9334,5.9094,5.91,5.91,5.91,5.91,5.91,5.9083,5.9111,5.7824,5.7164,5.7177,5.7832,5.7795,5.7177,5.6921,5.6933,5.7154,5.6633,0.0,0.0,5.6783,5.779,5.91,5.9308,5.9657,5.9984,5.9417,5.9304,5.9341,5.9157,5.9518,5.9982,5.9516,5.9689,5.9996,5.9502,5.9692,6.0079,6.006,6.0062,6.0062,6.0062,6.0062,6.0024,5.983,5.9468,5.9234,5.9327,5.9231,5.9079,5.9083,5.9093,5.9089,5.9089,5.9089,5.9089,5.9089,5.9089,5.9028,5.8896,5.8553,5.8137,5.7586,5.7825,5.769,5.6978,5.6932,5.6766,5.6404,5.6359,5.6359,5.6359,5.6359,5.6359,5.6359,5.6359,5.6359,5.6359,5.6105,5.5754,5.5159,5.4749,5.3902,4.3778,4.6681,4.9185,4.9185,4.9185,4.8517,4.6108,4.3194,4.0018,3.6704,3.3303,3.0614,2.9757,3.2365,3.5414,3.8111,4.392,4.8857,5.1178,5.4349,5.6457,5.6221,5.71,5.7918,5.8331,5.7155,5.7017,5.8476,5.8234,5.8012,5.8001,5.7983,5.8328,5.906,5.9097,5.8746,5.8038,5.693,5.6387,5.6381,5.6927,5.6891,5.6381,5.6381,5.6367,5.6371,5.6371,0.0,0.0,5.8317,5.9101,5.9104,5.9074,5.9345,5.9652,5.9221,5.907,5.9086,5.9101,5.9355,5.9633,5.9243,5.9363,5.9584,5.9195,5.9533,6.0015,5.9744,5.987,6.0062,6.0062,6.0062,6.0062,6.0062,5.9791,5.943,5.9332,5.9196,5.9104,5.9092,5.9083,5.9093,5.9074,5.9089,5.9089,5.9089,5.9089,5.9089,5.9089,5.8809,5.8434,5.8014,5.8197,5.7983,5.7215,5.7173,5.6932,5.6404,5.6359,5.6359,5.6359,5.6359,5.6359,5.6359,5.6359,5.6359,5.6359,5.6359,5.6141,5.5622,5.5343,5.4749,4.5241,4.7406,4.9185,4.9185,4.9185,4.8769,4.7179,4.4528,4.1358,3.7677,3.4575,3.1844,2.9676,3.2626,3.5778,3.7466,4.4116,4.9523,5.1028,5.4953,5.7514,5.7203,5.7406,5.7554,5.7382,5.6802,5.6415,5.6377,5.6541,5.6536,5.6367,5.6387,5.7109,5.8785,5.8859,5.8063,5.6407,5.6404,5.6371,5.6359,5.6359,5.6359,5.6359,5.6359,5.6359,5.6359,5.6359,0.0,0.0,5.7439,5.8353,5.9086,5.909,5.9089,5.9089,5.9089,5.9089,5.9097,5.9102,5.9099,5.9096,5.9091,5.911,5.9099,5.9096,5.9495,5.9879,5.9322,5.9627,6.0061,6.0062,6.0062,6.0062,6.0062,6.0062,5.9908,5.9309,5.9138,5.9086,5.9072,5.9092,5.9101,5.9066,5.9074,5.9089,5.9089,5.9089,5.9089,5.9089,5.9089,5.892,5.8434,5.8407,5.8076,5.7294,5.7254,5.7018,5.6457,5.6448,5.6448,5.6359,5.6359,5.6359,5.6359,5.6359,5.6359,5.6359,5.6359,5.6359,5.6359,5.5658,5.5294,4.5588,4.7406,4.9185,4.9185,4.9185,4.8769,4.7179,4.4528,4.1358,3.7677,3.5394,3.3499,3.1186,3.5616,3.9791,4.0188,4.607,5.0951,5.1918,5.4182,5.6105,5.7025,5.6861,5.6848,5.7318,5.724,5.6899,5.6423,5.7698,5.7907,5.6438,5.636,5.6526,5.6927,5.6963,5.6741,5.6371,5.6359,5.6386,5.6359,5.6359,5.6359,5.6359,5.6359,5.6359,5.6359,5.6359,0.0,0.0,5.0839,5.2837,5.9084,5.9095,5.9089,5.9089,5.9089,5.9089,5.9112,5.9104,5.9088,5.9088,5.9077,5.9093,5.9093,5.9082,5.9199,5.9368,5.9745,5.9944,6.0075,6.006,6.0062,6.0062,6.0062,6.0062,6.0024,5.9907,5.9472,5.9088,5.9086,5.9092,5.9079,5.9101,5.9114,5.9089,5.9089,5.9089,5.9089,5.9089,5.9089,5.9028,5.892,5.892,5.8696,5.8107,5.8076,5.7755,5.7054,5.6973,5.6766,5.6404,5.6359,5.6359,5.6359,5.6359,5.6359,5.6359,5.6359,5.6359,5.6359,5.6187,5.5754,4.7443,4.838,4.937,4.937,4.9295,4.8997,4.7864,4.5159,4.1938,3.8635,3.6152,3.3866,3.1636,3.6205,4.0644,4.1584,4.712,5.187,5.347,5.4704,5.5793,5.6665,5.6526,5.6515,5.6842,5.6889,5.6747,5.6376,5.723,5.7406,5.6404,5.6338,5.6365,5.6365,5.6365,5.6365,5.6365,5.6394,5.6359,5.6359,5.6359,5.6359,5.6359,5.6359,5.6359,5.6359,5.6359,0.0,5.607,5.2427,5.4128,5.9081,5.9079,5.9089,5.9089,5.9089,5.9089,5.9089,5.9089,5.9089,5.9089,5.9089,5.9089,5.9097,5.9097,5.9083,5.9183,5.9495,5.9828,6.0053,6.0082,6.0058,6.0062,6.0062,6.0062,6.0062,6.0062,5.9792,5.9472,5.9143,5.9195,5.9246,5.9113,5.9117,5.9089,5.9089,5.9089,5.9089,5.9089,5.9089,5.9089,5.9089,5.9089,5.8896,5.8341,5.8313,5.8076,5.7443,5.7254,5.7014,5.676,5.6501,5.6359,5.6359,5.6359,5.6359,5.6359,5.6359,5.6359,5.6359,5.6359,5.6187,4.901,4.9238,4.9555,4.9555,4.95,4.9252,4.8721,4.6252,4.325,4.0529,3.7816,3.5384,3.341,3.7683,4.1964,4.3778,4.8764,5.3075,5.511,5.5692,5.5995,5.6316,5.6448,5.6457,5.6404,5.6531,5.654,5.6413,5.6365,5.6371,5.6368,5.6359,5.6359,5.6359,5.6359,5.6359,5.6359,5.6359,5.6359,5.6359,5.6359,5.6359,5.6359,5.6359,5.6359,5.6359,5.6359,0.0,5.6387,5.6374,5.7443,5.9092,5.9102,5.9089,5.9089,5.9089,5.9089,5.9089,5.9089,5.9089,5.9089,5.9089,5.9089,5.9089,5.9089,5.9077,5.9119,5.9229,5.9558,5.9934,6.0037,6.0082,6.006,6.0061,6.0062,6.0062,6.0062,6.0062,5.9908,5.9351,5.9351,5.933,5.9155,5.9102,5.9082,5.9112,5.9089,5.9089,5.9089,5.9089,5.9089,5.9089,5.9089,5.892,5.8489,5.8462,5.8255,5.7891,5.7552,5.7256,5.7173,5.676,5.6493,5.6359,5.6359,5.6359,5.6359,5.6359,5.6359,5.6359,5.6359,5.6359,4.7589,4.8353,4.9555,4.9555,4.9536,4.9544,4.9428,4.8014,4.6081,4.3931,4.3044,4.2296,4.1078,4.5027,4.8778,4.9811,5.3228,5.5851,5.6162,5.6259,5.6305,5.6377,5.6802,5.685,5.6404,5.7106,5.7222,5.6413,5.6377,5.6377,5.6404,5.6359,5.6359,5.6359,5.6359,5.6359,5.6359,5.6359,5.6359,5.6359,5.6359,5.6359,5.6359,5.6359,5.6359,5.6359,5.6359,0.0,5.6375,5.6385,5.7436,5.9079,5.9079,5.9089,5.9089,5.9089,5.9089,5.9089,5.9089,5.9089,5.9089,5.9089,5.9089,5.9089,5.9089,5.9097,5.9222,5.9758,5.9598,5.9341,5.9896,6.0053,6.0072,6.006,6.0062,6.0062,6.0062,6.0062,6.0061,5.9947,5.9506,5.9124,5.9103,5.908,5.9083,5.9097,5.9089,5.9089,5.9089,5.9089,5.9089,5.9089,5.9089,5.9089,5.9005,5.9005,5.8784,5.8284,5.8197,5.7854,5.7176,5.7094,5.6808,5.6404,5.6359,5.6359,5.6359,5.6359,5.6359,5.6359,5.6359,5.6359,4.5182,4.7333,4.9777,4.9777,4.971,4.9593,4.9204,4.7821,4.6201,4.4862,4.3797,4.3239,4.3584,4.6375,4.9288,5.113,5.3735,5.5736,5.6302,5.6359,5.6493,5.6802,5.7014,5.7137,5.7143,5.7332,5.7217,5.685,5.6545,5.6187,5.5754,5.6141,5.6359,5.6359,5.6359,5.6359,5.6359,5.6359,5.6359,5.6359,5.6359,5.6359,5.6359,5.6359,5.6359,5.6359,0.0,5.6359,5.6377,5.6374,5.7406,5.9104,5.9102,5.9095,5.9089,5.9089,5.9089,5.9089,5.9089,5.9089,5.9089,5.9089,5.9089,5.9089,5.9089,5.9089,5.9172,5.9451,5.9571,5.9598,5.9546,5.9801,5.995,5.9616,5.9779,6.005,6.0061,6.0062,6.0062,6.0062,5.9551,5.912,5.9267,5.9304,5.9283,5.9196,5.9195,5.9172,5.9074,5.9089,5.9089,5.9089,5.9089,5.9089,5.9089,5.9089,5.9005,5.8747,5.8462,5.8167,5.7789,5.7369,5.7054,5.6808,5.6501,5.6359,5.6359,5.6359,5.6359,5.6359,5.6359,5.6359,4.2281,4.552,4.8976,4.9735,4.9848,4.964,4.9102,4.7935,4.6786,4.6201,4.5015,4.4517,4.5835,4.7345,4.9234,5.1764,5.3621,5.5151,5.6215,5.6002,5.5893,5.6319,5.6118,5.6165,5.6751,5.6638,5.6702,5.7137,5.6675,5.6105,5.5526,5.6059,5.6359,5.6359,5.6359,5.6359,5.6359,5.6359,5.6359,5.6359,5.6359,5.6359,5.6359,5.6359,5.6359,5.6359,5.6359,5.6359,5.6368,5.6387,5.7148,5.8459,5.8906,5.91,5.9106,5.9103,5.9089,5.9089,5.9093,5.9117,5.9089,5.9089,5.9089,5.9089,5.9089,5.9089,5.9089,5.9089,5.9451,5.9703,5.9305,5.9525,5.9708,5.9221,5.9593,6.0063,6.006,6.0062,6.0062,6.0062,5.9673,5.9384,5.9616,5.9548,5.9443,5.9296,5.9284,5.9252,5.9168,5.9147,5.9141,5.9112,5.9089,5.9089,5.9089,5.9089,5.9089,5.9089,5.8721,5.8462,5.8313,5.7758,5.7332,5.7173,5.6766,5.6501,5.6359,5.6359,5.6359,5.6359,5.6359,5.6359,3.8797,4.2355,4.6364,4.9089,4.9772,4.9726,4.956,4.9439,4.9377,4.932,4.8773,4.8634,4.9689,4.9958,5.0793,5.3,5.4096,5.504,5.6187,5.5084,5.4156,5.4199,5.3216,5.297,5.4147,5.4553,5.5399,5.7028,0.0,5.6359,5.6278,5.6359,5.6359,5.6359,5.6359,5.6359,5.6359,5.6359,5.6359,5.6359,5.6359,5.6359,5.6359,5.6359,5.6359,5.6359,5.6359,5.6359,5.6368,5.6387,5.6407,5.6671,5.8414,5.9111,5.9093,5.9106,5.9089,5.9103,5.91,5.9068,5.9089,5.9089,5.9089,5.9089,5.9089,5.9089,5.9089,5.9089,5.9112,5.92,5.942,5.9301,5.9147,5.9093,5.9593,6.0063,6.006,6.0062,6.0062,6.0062,6.0061,6.0024,6.0024,5.9737,5.9449,5.9312,5.9284,5.9284,5.9267,5.9267,5.9215,5.9134,5.9089,5.9089,5.9089,5.9089,5.9089,5.9089,5.9089,5.8834,5.8341,5.8284,5.7887,5.7173,5.7134,5.685,5.6359,5.6359,5.6359,5.6359,5.6359,5.6359,3.5541,3.9872,4.3901,4.781,4.9196,4.9636,4.9602,4.9555,4.9555,4.9555,4.9369,4.9653,5.1138,5.1142,5.1759,5.4293,5.4724,5.5146,5.6215,5.586,5.5679,5.6022,5.4708,5.4459,5.6204,5.3371,5.2238,5.4367,5.5209,5.5428,5.5026,5.5872,5.6359,5.6359,5.6359,5.6359,5.6359,5.6359,5.6359,5.6359,5.6359,5.6359,5.6359,5.6359,5.6359,5.6359,5.6359,5.6359,5.6404,5.6366,5.6376,5.6446,5.7079,5.8088,5.9083,5.9091,5.9083,5.9073,5.9097,5.9107,5.909,5.909,5.9095,5.9089,5.9089,5.9089,5.9089,5.9089,5.9089,5.9134,5.9206,5.9189,5.9082,5.9101,5.958,6.0055,6.0067,6.0056,6.0062,6.0062,6.0062,6.0062,6.0062,5.9945,5.981,5.9583,5.9556,5.9488,5.9419,5.8401,5.8046,5.9121,5.8173,5.7915,5.8977,5.9089,5.9089,5.9089,5.9089,5.9005,5.8809,5.8489,5.8197,5.7887,5.7406,5.7054,5.685,5.6545,5.6359,5.6359,5.6359,5.6359,3.4929,3.9397,4.3416,4.6958,4.8672,4.95,4.9453,4.9441,4.9441,4.9441,4.9441,4.9956,5.166,5.1526,5.2104,5.4875,5.4992,5.5111,5.6215,5.594,5.5714,5.6058,5.3962,5.3462,5.5867,5.2626,5.1229,5.3285,5.4358,5.4784,5.4573,5.5428,5.6105,5.6359,5.6359,5.6359,5.6359,5.6359,5.6359,5.6359,5.6359,5.6359,5.6359,5.6359,5.6359,5.6359,5.6359,5.6359,5.6359,5.6359,5.6366,5.6382,5.6364,5.7112,5.8208,5.8201,5.8189,5.8181,5.8168,5.8156,5.8278,5.8906,5.91,5.9082,5.9103,5.9089,5.9089,5.9089,5.9089,5.9089,5.9089,5.9089,5.9104,5.9082,5.9434,5.9772,6.0024,6.0075,6.0058,6.0061,6.0062,6.0062,6.0062,6.0062,6.0022,5.9813,5.9717,5.9278,5.81,5.6861,5.6464,5.7553,5.651,5.6233,5.7354,5.7953,5.8252,5.8252,5.8775,5.9089,5.9089,5.8784,5.8489,5.8313,5.7825,5.7443,5.7173,5.6808,5.6545,5.6359,5.6359,5.6359,3.7034,4.0923,4.4793,4.6562,4.8182,4.9348,4.9222,4.9204,4.9185,4.9185,4.9185,4.9725,5.1376,5.1258,5.1861,5.4733,5.4831,5.4984,5.6187,5.5084,5.4085,5.4085,5.076,4.9657,5.2588,5.2253,5.2449,5.398,5.4173,5.4466,5.5058,5.5159,5.5526,5.6278,5.6359,5.6359,5.6359,5.6359,5.6359,5.6359,5.6359,5.6359,5.6359,5.6359,5.6359,5.6359,5.6359,5.6359,5.6359,5.6359,5.6359,5.6332,5.6346,5.6367,5.6374,5.6386,5.6387,5.6367,5.6367,5.6349,5.6662,5.8426,5.9046,5.9093,5.9106,5.9089,5.9089,5.9089,5.9089,5.9089,5.9089,5.9089,5.9104,5.9101,5.9096,5.9246,5.9889,6.0042,6.0063,6.006,6.0062,6.0062,6.0062,6.0062,6.0062,6.0062,5.9741,5.8436,5.5391,5.4791,5.4596,5.4429,5.426,5.4176,5.4214,5.5635,5.6495,5.6495,5.8065,5.8939,5.8939,5.8977,5.8759,5.8267,5.8276,5.7919,5.7173,5.7173,5.6891,5.6359,5.6359,5.6359,3.7399,3.9735,4.2402,4.5312,4.7652,4.9255,4.9317,4.9255,4.9185,4.9185,4.9859,5.0634,5.1187,5.124,5.2016,5.4515,5.4133,5.4163,5.6074,5.5494,5.4856,5.4856,5.2553,5.1475,5.2835,5.1373,5.0681,5.1523,5.2702,5.3152,5.2589,5.4239,5.5118,5.483,5.5846,5.6359,5.6359,5.6359,5.6359,5.6359,5.6359,5.6359,5.6359,5.6359,5.6359,5.6359,5.6359,5.6359,5.6359,5.6359,5.6359,5.6404,5.6358,5.6366,5.6374,5.6359,5.6352,5.6366,5.6366,5.6346,5.6457,5.6933,5.8038,5.9074,5.9111,5.9107,5.9089,5.9089,5.9089,5.9089,5.9089,5.9089,5.9074,5.9088,5.9083,5.9167,5.9327,5.9717,6.0053,6.0067,6.0056,6.0062,6.0062,6.0062,6.0062,6.0062,5.7896,5.5997,5.5126,5.4968,5.4808,5.457,5.3278,5.2905,5.4139,5.4625,5.4849,5.4849,5.5335,5.556,5.556,5.6644,5.7198,5.7054,5.7895,5.8076,5.7587,5.7292,5.6891,5.6359,5.6359,5.6359,4.0115,4.203,4.4144,4.5699,4.6952,4.7651,4.7054,4.7348,4.7675,4.7495,4.9295,5.1297,5.2608,5.2775,5.3357,5.5441,5.5061,5.4775,5.5742,5.5477,5.5144,5.4836,5.3072,5.2071,5.2516,5.1446,5.0802,5.1052,5.2012,5.2578,5.2656,5.4035,5.4903,5.5116,5.5963,5.6359,5.6359,5.6359,5.6359,5.6359,5.6359,5.6359,5.6359,5.6359,5.6359,5.6359,5.6359,5.6359,5.6359,5.6359,5.6359,5.6359,5.6359,5.6359,5.6359,5.6359,5.6359,5.6359,5.6359,5.6366,5.6376,5.6364,5.7079,5.8108,5.8848,5.91,5.9095,5.9103,5.9089,5.9089,5.9089,5.9089,5.9089,5.9089,5.9093,5.9083,5.9079,5.9382,5.9738,6.0004,6.005,6.0062,6.0062,6.0062,5.9112,5.6265,5.4746,5.3683,5.3,5.2886,5.2798,5.2563,5.1502,5.1179,5.2028,5.2756,5.3167,5.3167,5.384,5.4214,5.4214,5.5111,5.5517,5.5329,5.6027,5.6047,5.5436,5.5223,5.4874,5.4442,5.4442,5.4442,4.2875,4.4568,4.6057,4.5168,4.5083,4.4695,0.0,4.3975,4.5265,4.4666,4.7715,5.1414,5.4577,5.4751,5.5025,5.6765,5.6453,5.5846,5.5393,5.5194,5.4888,5.4138,5.2891,5.2014,5.1883,5.1883,5.1883,5.1752,5.1818,5.2521,5.3824,5.4138,5.4801,5.6061,5.6268,5.6278,5.6059,5.6258,5.6385,5.6339,5.6365,5.6365,5.6385,5.6385,5.6349,5.6359,5.6359,5.6359,5.6359,5.6359,5.6359,5.6359,5.6359,5.6359,5.6359,5.6359,5.6359,5.6359,5.6359,5.6359,5.6377,5.6382,5.6404,5.6709,5.8278,5.8951,5.9093,5.9082,5.9103,5.9089,5.9089,5.9089,5.9089,5.9089,5.9089,5.9104,5.9083,5.9087,5.9298,5.9941,6.0047,5.9834,5.9075,5.9264,5.7328,5.0912,5.1254,5.1633,5.0153,4.9925,4.9832,4.9573,4.9536,4.9453,4.9204,5.055,5.141,5.141,5.283,5.3653,5.3611,5.3798,5.3703,5.33,5.3486,5.3165,5.2285,5.2285,5.2101,5.173,5.173,5.1516,0.0,0.0,0.0,0.0,0.0,0.0,0.0,3.969,4.3459,4.1685,4.4681,4.9119,5.3877,5.3968,5.4062,5.6171,5.4959,5.4304,5.5928,5.5128,5.4138,5.3396,5.3013,5.2583,5.1949,5.1883,5.162,5.0811,5.1487,5.1915,5.2066,5.3411,5.4314,5.4473,5.5715,5.5645,5.4207,5.5653,5.6385,5.6385,5.6352,5.6404,5.6385,5.6385,5.6379,5.6359,5.6359,5.6359,5.6359,5.6359,5.6359,5.6359,5.6359,5.6359,5.6359,5.6359,5.6359,5.6359,5.6359,5.6359,5.6368,5.635,5.6371,5.6446,5.6821,5.7899,5.9074,5.912,5.9107,5.9089,5.9089,5.9089,5.9089,5.9089,5.9089,5.9074,5.9104,5.9092,5.9266,5.9942,6.0058,5.8353,5.2848,5.4177,5.4633,5.057,5.0229,5.0342,5.0001,4.9877,4.9754,4.9602,4.9489,4.9356,4.9185,4.9484,4.9671,4.9671,4.997,5.0002,4.9711,5.1011,5.1545,5.1148,5.2473,5.2923,5.2285,5.2285,5.2101,5.173,5.173,5.0375,0.0,0.0,0.0,0.0,0.0,0.0,0.0,0.0,0.0,0.0,0.0,3.8995,4.3931,0.0,4.9241,5.1445,5.3435,5.4963,5.5695,5.5144,5.4466,5.3744,5.3279,5.2769,5.2014,5.1883,5.1752,5.1253,5.2012,5.2612,5.2871,5.4035,5.4786,5.4922,5.5341,5.5184,5.43,5.4173,5.4141,5.4175,5.5628,5.5557,5.4169,5.5707,5.6367,5.6359,5.6379,5.6379,5.6379,5.6379,5.6343,5.6359,5.6359,5.6359,5.6359,5.6359,5.6359,5.6359,5.6359,5.6359,5.6359,5.6359,5.6402,5.6371,5.6364,5.7031,5.773,5.7735,5.8392,5.9082,5.9082,5.9076,5.9091,5.9091,5.909,5.9089,5.9089,5.9096,5.8271,5.5564,5.4998,5.3949,5.0532,5.1367,5.1937,5.0191,4.9963,4.9963,4.9963,4.9832,4.9699,4.9602,4.9465,4.9311,4.9223,4.9185,4.9185,4.9185,4.9011,4.8722,4.8409,4.9221,4.9502,4.9091,4.9925,5.01,4.9649,4.9649,4.9573,4.9376,4.9376,4.8555,0.0,0.0,0.0,0.0,0.0,0.0,0.0,0.0,0.0,0.0,0.0,0.0,0.0,0.0,0.0,4.5796,5.0979,5.4787,5.5371,5.5294,5.4991,5.4338,5.3513,5.2769,5.2014,5.1883,5.1883,5.1883,5.2458,5.3219,5.4173,5.4592,5.5039,5.5578,5.4944,5.4598,5.4416,5.2965,5.2165,5.1939,0.0,0.0,5.2841,5.5226,5.6368,5.64,5.6399,5.6046,5.549,5.5529,5.5878,5.6354,5.6355,5.6033,5.5583,5.6137,5.6407,5.6367,5.6367,5.6343,5.6359,5.6359,5.6359,5.6377,5.6376,5.6501,0.0,5.259,5.2731,5.3862,5.3859,5.3848,5.475,5.8246,5.9099,5.908,5.9068,5.9083,5.7291,5.1131,4.9962,4.9962,4.9963,4.9075,4.8722,4.981,4.9963,4.9963,4.9963,4.9832,4.9705,4.9636,4.9512,4.9385,4.9235,4.7559,4.65,4.65,4.6176,4.5766,4.5235,4.3062,4.163,4.111,4.3185,4.4026,4.3546,4.588,4.7058,4.6985,4.4648,4.4795,0.0,0.0,0.0,0.0,0.0,0.0,0.0,0.0,0.0,0.0,0.0,0.0,0.0,0.0,0.0,0.0,4.5938,5.0147,5.5481,5.5658,5.4991,5.4338,5.3513,5.2769,5.2014,5.1883,5.1883,5.1883,5.2014,5.2645,5.4173,0.0,0.0,0.0,0.0,5.3487,5.2237,5.3033,5.2932,5.1911,5.2235,5.3643,5.5851,5.6234,5.6387,5.6407,5.6342,5.4829,5.2404,5.2404,5.4002,5.6363,5.6345,5.4733,5.2733,5.5369,5.6385,5.6372,5.6372,0.0,0.0,5.6359,5.6359,5.6404,5.6377,5.6957,5.4391,3.9131,3.4982,3.5104,3.5108,3.5113,3.917,5.5294,5.9079,5.9068,5.9086,5.909,5.7279,5.1124,4.9958,4.9939,4.9962,4.5858,4.4206,4.9232,4.9963,4.9963,4.9963,4.9832,4.9763,4.9754,0.0,0.0,4.9544,4.1797,3.6927,3.6927,3.678,3.6055,3.4656,2.4686,1.8714,1.7657,2.7258,3.1872,3.1029,4.1799,4.7024,4.6773,3.6025,3.6752,0.0,0.0,0.0,0.0,0.0,0.0,0.0,0.0,0.0,0.0,0.0,0.0,0.0,0.0,0.0,0.0,4.1731,4.6729,5.0591,5.3464,5.4802,5.3687,5.3279,5.2769,5.2014,5.1883,5.1883,5.1883,5.2302,5.2891,5.3513,5.3687,5.3794,5.396,5.3614,5.3033,5.2216,5.2498,5.2409,5.1937,5.1938,5.2572,5.3861,5.5556,5.6329,5.6352,5.6375,5.4688,5.1871,5.1915,5.263,0.0,0.0,0.0,0.0,0.0,3.0742,3.575,5.1054,5.6386,5.6379,5.6375,5.639,5.6403,5.6403,5.6649,5.5066,4.611,4.3616,4.3614,4.3583,4.489,4.8351,5.7036,5.9078,5.91,5.9099,4.8685,4.1328,4.8188,4.9763,0.0,4.5561,4.5736,4.7143,4.9477,4.9922,4.9963,4.9963,4.9832,4.9763,4.9763,4.9652,4.9544,4.9484,4.5784,0.0,0.0,0.0,4.0015,3.3149,3.3793,0.0,0.0,0.0,0.0,0.0,0.0,0.0,0.0,1.8792,1.9524,0.0,0.0,0.0,0.0,0.0,0.0,0.0,0.0,0.0,0.0,0.0,0.0,0.0,0.0,0.0,0.0,3.6048,4.1861,4.4479,4.9405,5.2506,5.1777,5.2311,5.2521,5.1949,5.1883,5.1883,5.1883,5.2428,5.283,5.304,5.3396,5.3504,5.3365,5.3,5.2672,5.2352,5.2126,5.2013,5.1883,5.1886,5.1938,5.1954,5.4157,5.5166,5.5147,5.5187,5.3895,5.1925,5.191,5.1877,5.1898,5.1911,4.1531,2.6063,2.0861,2.1521,2.7875,4.8148,5.5686,5.6367,5.6377,5.6371,5.6229,5.5427,5.5159,5.4644,5.2531,5.1909,5.1894,5.1915,5.41,5.6682,5.8038,5.8719,5.907,5.907,4.4683,3.5143,4.6893,4.8305,4.6728,4.4052,4.6081,4.843,4.9597,4.9879,0.0,4.9963,4.9879,4.9826,4.9826,4.9688,4.9578,4.9495,4.6942,4.2049,3.4301,4.0797,4.005,2.9279,3.8391,3.7655,2.4791,1.8113,1.3168,0.0,0.0,0.0,0.0,0.0,0.0,0.0,0.0,0.0,0.0,0.0,0.0,0.0,0.0,0.0,0.0,0.0,0.0,0.0,0.0,0.0,0.0,0.0,0.0,3.7751,4.3007,4.7031,4.8168,5.0508,5.1949,5.1883,5.1883,5.1883,5.1883,5.1949,5.2302,5.3013,5.2365,5.2302,5.3046,5.2557,5.2197,5.1884,5.2262,5.223,5.1883,5.1916,5.1916,5.1916,5.1987,5.2026,5.2052,5.2052,5.1959,5.1898,5.1909,5.1904,5.1882,5.189,5.1436,5.0346,4.6206,4.4822,4.5672,5.0413,5.3907,5.634,5.6395,5.6395,5.5835,5.2909,5.2017,5.2026,5.1959,5.1933,5.1911,5.1881,5.4141,5.639,5.6454,5.7807,5.9081,5.9101,5.348,4.8573,4.9108,4.5018,4.3116,4.8243,4.6139,4.5117,4.9174,4.9879,0.0,4.9963,4.9963,4.9963,4.9963,4.9837,4.9772,4.9735,4.0822,3.51,3.4789,3.4904,3.0134,1.9151,2.8138,2.7037,1.3606,2.0412,1.8472,0.7145,0.0,0.0,0.0,0.0,0.0,0.0,0.0,0.0,0.0,0.0,0.0,0.0,0.0,0.0,0.0,0.0,0.0,0.0,0.0,0.0,0.0,0.0,0.0,0.0,3.5911,4.2259,4.4579,4.6351,4.8583,5.1621,5.054,5.0311,5.1818,5.1883,5.2014,5.2302,5.2045,5.2014,5.2302,5.2112,5.2011,5.1883,5.2044,5.2044,5.1883,5.1883,5.1883,5.1883,5.1911,5.1876,5.1876,5.1876,5.1876,5.1909,5.1915,5.1882,5.1945,5.1869,5.0243,4.7732,4.6392,4.5894,4.6451,5.0483,5.2539,5.3411,5.3401,5.3425,5.3227,5.2181,5.1904,5.1876,5.1876,5.1913,5.1909,5.1928,5.4116,5.6382,5.6355,5.6824,5.6131,5.1996,4.936,4.7929,4.8564,4.7516,4.7092,4.8942,4.8277,4.8016,4.943,4.9826,4.9963,4.9963,4.9963,4.9963,4.9963,4.9832,4.971,4.9652,4.6444,4.1333,3.4004,4.0364,3.9359,2.8127,3.7252,3.6439,2.3495,2.4669,1.9173,0.6634,0.0,0.0,0.0,0.0,0.0,0.0,0.0,0.0,0.0,0.0,0.0,0.0,0.0,0.0,0.0,0.0,0.0,0.0,0.0,0.0,0.0,0.0,0.0,0.0,0.0,0.0,4.228,4.4831,0.0,5.1092,4.9387,4.9026,5.1223,5.1387,5.1521,5.1883,5.1883,5.1883,5.1883,5.1883,5.1883,5.1883,5.1883,5.1883,5.1883,5.1883,5.1883,5.1883,5.1883,5.1883,5.1883,5.1883,5.1883,5.1883,5.1883,5.1883,5.1884,5.1899,4.9475,4.5843,4.5843,4.6827,4.8379,5.0969,5.1915,5.1887,5.1877,5.1925,5.1892,5.1892,5.1915,5.1944,5.1916,5.1884,5.1913,5.1905,5.4151,5.6367,5.6376,5.4664,5.1921,4.7929,4.7186,4.7535,4.831,4.8838,4.8862,4.7831,4.7493,4.6998,4.5968,4.6873,4.7682,4.7719,4.9,4.9884,4.9963,4.9832,4.9699,4.9602,4.9313,4.6064,3.8758,4.5015,4.5552,3.7966,4.3809,4.3023,3.4194,3.24,2.5265,0.0,0.0,0.0,0.0,0.0,0.0,0.0,0.0,0.0,0.0,0.0,0.0,0.0,0.0,0.0,0.0,0.0,0.0,0.0,0.0,0.0,0.0,0.0,0.0,0.0,0.0,0.0,4.1362,4.5678,0.0,0.0,0.0,0.0,5.0195,5.0457,5.094,5.1784,5.1916,5.1916,5.1916,5.1916,5.1883,5.1883,5.1883,5.1883,5.1883,5.1883,5.1883,5.1883,5.1883,5.1883,5.1883,5.1883,5.1883,5.1883,5.1883,5.1883,5.1884,5.1928,4.9561,4.6117,4.5981,4.8403,5.1869,5.1887,5.1906,5.1883,5.1883,5.1883,5.1883,5.1916,5.1909,0.0,0.0,5.1227,5.1973,5.2097,5.4245,5.6364,5.6394,5.1641,4.7172,4.7062,4.7474,4.7994,0.0,4.8912,4.8254,4.5367,0.0,4.2423,3.9529,4.1653,4.3655,4.3723,4.7273,4.9784,4.9924,4.9835,4.9699,4.9602,4.9116,4.8668,4.8234,4.8243,4.7894,4.7095,4.6808,4.5645,4.3426,4.187,0.0,0.0,0.0,0.0,0.0,0.0,0.0,0.0,0.0,0.0,0.0,0.0,0.0,0.0,0.0,0.0,0.0,0.0,0.0,0.0,0.0,0.0,0.0,0.0,0.0,0.0,2.4538,3.293,4.1804,4.2542,4.412,0.0,0.0,0.0,0.0,0.0,0.0,5.1147,5.1782,5.2216,5.2216,5.2009,5.1883,5.1883,5.1883,5.1883,5.1883,5.1883,5.1883,5.1883,5.1883,5.1883,5.1883,5.1883,5.1883,5.1883,5.1883,5.1883,5.1916,5.19,5.1314,4.9998,4.6937,4.8455,5.1891,5.1865,5.1907,5.1883,5.1883,5.1883,5.1916,5.1906,0.0,0.0,0.0,0.0,5.243,5.4639,5.5805,5.6364,5.6381,5.2769,4.8928,4.7375,4.7772,4.8495,0.0,4.9109,4.8254,4.5367,0.0,0.0,0.0,0.0,4.4515,4.3692,4.7197,4.9772,4.9784,4.9769,4.9699,4.9602,4.934,4.9015,4.8522,4.876,4.8497,4.7515,4.7229,4.3454,3.5693,0.0,0.0,0.0,0.0,0.0,0.0,0.0,0.0,0.0,0.0,0.0,0.0,0.0,0.0,0.0,0.0,0.0,0.0,0.0,0.0,0.0,0.0,0.0,0.0,0.0,0.0,0.0,1.8677,2.8462,3.7685,3.8802,4.0475,0.0,0.0,0.0,0.0,0.0,0.0,0.0,0.0,0.0,5.0817,5.1013,5.0918,5.048,5.1389,5.1883,5.1883,5.1883,5.1883,5.1883,5.1883,5.1883,5.1883,5.1883,5.1883,5.1884,5.1899,5.1906,5.1258,0.0,0.0,0.0,0.0,2.8837,3.4837,4.7525,5.1908,0.0,5.1855,0.0,0.0,0.0,0.0,0.0,0.0,0.0,0.0,0.0,0.0,5.2889,5.46,5.2533,4.9719,4.8057,4.6925,4.6422,0.0,4.5855,4.4091,4.2141,0.0,0.0,0.0,0.0,4.2084,4.0975,4.594,4.9606,4.9759,4.9769,4.9718,4.9573,4.9523,4.9213,4.8625,4.8714,4.842,4.7679,4.7025,4.2314,0.0,0.0,0.0,0.0,0.0,0.0,0.0,0.0,0.0,0.0,0.0,0.0,0.0,0.0,0.0,0.0,0.0,0.0,0.0,0.0,0.0,0.0,0.0,0.0,0.0,0.0,0.0,0.0,0.0,2.3458,3.2258,0.0,0.0,0.0,0.0,0.0,0.0,0.0,0.0,0.0,0.0,0.0,0.0,0.0,4.8817,4.8038,4.9491,5.036,5.0828,5.0828,5.1258,5.1883,5.1883,5.1883,5.185,5.07,0.0,5.0134,4.9783,0.0,0.0,0.0,0.0,0.0,0.0,0.0,0.0,0.0,0.0,0.0,0.0,0.0,0.0,0.0,0.0,0.0,0.0,0.0,0.0,0.0,0.0,4.8332,5.1435,5.1308,4.9895,0.0,4.4732,4.296,4.4087,4.1598,0.0,0.0,0.0,0.0,0.0,0.0,0.0,3.7462,4.4376,4.9439,4.968,4.9754,4.9694,4.9583,4.9573,4.9302,4.8737,4.8435,4.7678,4.6362,4.6189,0.0,0.0,0.0,0.0,0.0,0.0,0.0,0.0,0.0,0.0,0.0,0.0,0.0,0.0,0.0,0.0,0.0,0.0,0.0,0.0,0.0,0.0,0.0,0.0,0.0,0.0,0.0,0.0,0.0,0.0,0.0,0.0,0.0,0.0,0.0,0.0,0.0,0.0,0.0,0.0,0.0,0.0,0.0,0.0,0.0,0.0,0.0,0.0,0.0,0.0,4.5492,4.7769,5.1883,5.1883,5.1883,5.149,4.4233,4.1139,4.0996,3.8544,0.0,0.0,0.0,0.0,0.0,0.0,0.0,0.0,0.0,0.0,0.0,0.0,0.0,0.0,0.0,0.0,0.0,0.0,0.0,0.0,0.0,0.0,0.0,0.0,4.9525,4.9974,0.0,0.0,0.0,0.0,0.0,0.0,0.0,0.0,0.0,0.0,0.0,0.0,3.7436,4.4313,4.9375,4.9428,4.9644,4.9718,4.958,4.9573,4.9474,4.9273,4.88,4.5786,0.0,0.0,0.0,0.0,0.0,0.0,0.0,0.0,0.0,0.0,0.0,0.0,0.0,0.0,0.0,0.0,0.0,0.0,0.0,0.0,0.0,0.0,0.0,0.0,0.0,0.0,0.0,0.0,0.0,0.0,0.0,0.0,0.0,0.0,0.0,0.0,0.0,0.0,0.0,0.0,0.0,0.0,0.0,0.0,0.0,0.0,0.0,0.0,0.0,0.0,0.0,0.0,0.0,0.0,0.0,0.0,0.0,0.0,0.0,3.1059,0.0,0.0,0.0,0.0,0.0,0.0,0.0,0.0,0.0,0.0,0.0,0.0,0.0,0.0,0.0,0.0,0.0,0.0,0.0,0.0,0.0,0.0,0.0,0.0,0.0,0.0,0.0,0.0,0.0,0.0,0.0,0.0,0.0,0.0,0.0,0.0,0.0,0.0,0.0,0.0,3.8231,4.442,4.9071,4.937,4.9564,4.964,4.9583,4.9553,4.9425,4.9076,4.477,0.0,0.0,0.0,0.0,0.0,0.0,0.0,0.0,0.0,0.0,0.0,0.0,0.0,0.0,0.0,0.0,0.0,0.0,0.0,0.0,0.0,0.0,0.0,0.0,0.0,0.0,0.0,0.0,0.0,0.0,0.0,0.0,0.0,0.0,0.0,0.0,0.0,0.0,0.0,0.0,0.0,0.0,0.0,0.0,0.0,0.0,0.0,0.0,0.0,0.0,0.0,0.0,0.0,0.0,0.0,0.0,0.0,0.0,0.0,1.957,0.0,0.0,0.0,0.0,0.0,0.0,0.0,0.0,0.0,0.0,0.0,0.0,0.0,0.0,0.0,0.0,0.0,0.0,0.0,0.0,0.0,0.0,0.0,0.0,0.0,0.0,0.0,0.0,0.0,0.0,0.0,0.0,0.0,0.0,0.0,0.0,0.0,0.0,0.0,0.0,0.0,3.8858,4.4495,4.8758,4.9156,4.9403,4.9522,4.9571,4.9545,4.8394,4.571,3.9654,0.0,0.0,0.0,0.0,0.0,0.0,0.0,0.0,0.0,0.0,0.0,0.0,0.0,0.0,0.0,0.0,0.0,0.0,0.0,0.0,0.0,0.0,0.0,0.0,0.0,0.0,0.0,0.0,0.0,0.0,0.0,0.0,0.0,0.0,0.0,0.0,0.0,0.0,0.0,0.0,0.0,0.0,0.0,0.0,0.0,0.0,0.0,0.0,0.0,0.0,0.0,0.0,0.0,0.0,0.0,0.0,0.0,0.0,0.0,0.0,0.0,0.0,0.0,0.0,0.0,0.0,0.0,0.0,0.0,0.0,0.0,0.0,0.0,0.0,0.0,0.0,0.0,0.0,0.0,0.0,0.0,0.0,0.0,0.0,0.0,0.0,0.0,0.0,0.0,0.0,0.0,0.0,0.0,0.0,0.0,0.0,0.0,0.0,0.0,0.0,0.0,3.8464,4.4342,4.864,4.8648,4.9106,4.9415,4.9535,4.9469,4.5292,3.5643,0.0,0.0,0.0,0.0,0.0,0.0,0.0,0.0,0.0,0.0,0.0,0.0,0.0,0.0,0.0,0.0,0.0,0.0,0.0,0.0,0.0,0.0,0.0,0.0,0.0,0.0,0.0,0.0,0.0,0.0,0.0,0.0,0.0,0.0,0.0,0.0,0.0,0.0,0.0,0.0,0.0,0.0,0.0,0.0,0.0,0.0,0.0,0.0,0.0,0.0,0.0,0.0,0.0,0.0,0.0,0.0,0.0,0.0,0.0,0.0,0.0,0.0,0.0,0.0,0.0,0.0,0.0,0.0,0.0,0.0,0.0,0.0,0.0,0.0,0.0,0.0,0.0,0.0,0.0,0.0,0.0,0.0,0.0,0.0,0.0,0.0,0.0,0.0,0.0,0.0,0.0,0.0,0.0,0.0,0.0,0.0,0.0,0.0,0.0,0.0,0.0,0.0,3.9409,4.462,4.8435,4.8593,4.9053,4.9415,4.9536,4.9533,4.4638,3.3292,0.0,0.0,0.0,0.0,0.0,0.0,0.0,0.0,0.0,0.0,0.0,0.0,0.0,0.0,0.0,0.0,0.0,0.0,0.0,0.0,0.0,0.0,0.0,0.0,0.0,0.0,0.0,0.0,0.0,0.0,0.0,0.0,0.0,0.0,0.0,0.0,0.0,0.0,0.0,0.0,0.0,0.0,0.0,0.0,0.0,0.0,0.0,0.0,0.0,0.0,0.0,0.0,0.0,0.0,0.0,0.0,0.0,0.0,0.0,0.0,0.0,0.0,0.0,0.0,0.0,0.0,0.0,0.0,0.0,0.0,0.0,0.0,0.0,0.0,0.0,0.0,0.0,0.0,0.0,0.0,0.0,0.0,0.0,0.0,0.0,0.0,0.0,0.0,0.0,0.0,0.0,0.0,0.0,0.0,0.0,0.0,0.0,0.0,0.0,0.0,0.0,0.0,3.9944,4.4672,4.8094,4.8294,4.8821,4.9205,4.934,4.5844,3.8992,2.8015,0.0,0.0,0.0,0.0,0.0,0.0,0.0,0.0,0.0,0.0,0.0,0.0,0.0,0.0,0.0,0.0,0.0,0.0,0.0,0.0,0.0,0.0,0.0,0.0,0.0,0.0,0.0,0.0,0.0,0.0,0.0,0.0,0.0,0.0,0.0,0.0,0.0,0.0,0.0,0.0,0.0,0.0,0.0,0.0,0.0,0.0,0.0,0.0,0.0,0.0,0.0,0.0,0.0,0.0,0.0,0.0,0.0,0.0,0.0,0.0,0.0,0.0,0.0,0.0,0.0,0.0,0.0,0.0,0.0,0.0,0.0,0.0,0.0,0.0,0.0,0.0,0.0,0.0,0.0,0.0,0.0,0.0,0.0,0.0,0.0,0.0,0.0,0.0,0.0,0.0,0.0,0.0,0.0,0.0,0.0,0.0,0.0,0.0,0.0,0.0,0.0,0.0,3.9776,4.4329,4.7647,4.7647,4.8215,4.8678,4.8792,3.7126,2.5956,0.0,0.0,0.0,0.0,0.0,0.0,0.0,0.0,0.0,0.0,0.0,0.0,0.0,0.0,0.0,0.0,0.0,0.0,0.0,0.0,0.0,0.0,0.0,0.0,0.0,0.0,0.0,0.0,0.0,0.0,0.0,0.0,0.0,0.0,0.0,0.0,0.0,0.0,0.0,0.0,0.0,0.0,0.0,0.0,0.0,0.0,0.0,0.0,0.0,0.0,0.0,0.0,0.0,0.0,0.0,0.0,0.0,0.0,0.0,0.0,0.0,0.0,0.0,0.0,0.0,0.0,0.0,0.0,0.0,0.0,0.0,0.0,0.0,0.0,0.0,0.0,0.0,0.0,0.0,0.0,0.0,0.0,0.0,0.0,0.0,0.0,0.0,0.0,0.0,0.0,0.0,0.0,0.0,0.0,0.0,0.0,0.0,0.0,0.0,0.0,0.0,0.0,0.0,4.0613,4.4695,4.7614,4.7614,4.8215,4.8705,4.8888,4.541,3.4569,1.4275,0.0,0.0,0.0,0.0,0.0,0.0,0.0,0.0,0.0,0.0,0.0,0.0,0.0,0.0,0.0,0.0,0.0,0.0,0.0,0.0,0.0,0.0,0.0,0.0,0.0,0.0,0.0,0.0,0.0,0.0,0.0,0.0,0.0,0.0,0.0,0.0,0.0,0.0,0.0,0.0,0.0,0.0,0.0,0.0,0.0,0.0,0.0,0.0,0.0,0.0,0.0,0.0,0.0,0.0,0.0,0.0,0.0,0.0,0.0,0.0,0.0,0.0,0.0,0.0,0.0,0.0,0.0,0.0,0.0,0.0,0.0,0.0,0.0,0.0,0.0,0.0,0.0,0.0,0.0,0.0,0.0,0.0,0.0,0.0,0.0,0.0,0.0,0.0,0.0,0.0,0.0,0.0,0.0,0.0,0.0,0.0,0.0,0.0,0.0,0.0,0.0,0.0,0.0,4.4745,4.7141,4.7375,4.8028,4.8528,4.8661,4.4608,3.3196,1.2479,0.0,0.0,0.0,0.0,0.0,0.0,0.0,0.0,0.0,0.0,0.0,0.0,0.0,0.0,0.0,0.0,0.0,0.0,0.0,0.0,0.0,0.0,0.0,0.0,0.0,0.0,0.0,0.0,0.0,0.0,0.0,0.0,0.0,0.0,0.0,0.0,0.0,0.0,0.0,0.0,0.0,0.0,0.0,0.0,0.0,0.0,0.0,0.0,0.0,0.0,0.0,0.0,0.0,0.0,0.0,0.0,0.0,0.0,0.0,0.0,0.0,0.0,0.0,0.0,0.0,0.0,0.0,0.0,0.0,0.0,0.0,0.0,0.0,0.0,0.0,0.0,0.0,0.0,0.0,0.0,0.0,0.0,0.0,0.0,0.0,0.0,0.0,0.0,0.0,0.0,0.0,0.0,0.0,0.0,0.0,0.0,0.0,0.0,0.0,0.0,0.0,0.0,0.0,4.4599,4.6302,4.6954,4.7743,4.8178,4.8222,3.755,2.5384,1.2561,-0.0941,0.0,0.0,0.0,0.0,0.0,0.0,0.0,0.0,0.0,0.0,0.0,0.0,0.0,0.0,0.0,0.0,0.0,0.0,0.0,0.0,0.0,0.0,0.0,0.0,0.0,0.0,0.0,0.0,0.0,0.0,0.0,0.0,0.0,0.0,0.0,0.0,0.0,0.0,0.0,0.0,0.0,0.0,0.0,0.0,0.0,0.0,0.0,0.0,0.0,0.0,0.0,0.0,0.0,0.0,0.0,0.0,0.0,0.0,0.0,0.0,0.0,0.0,0.0,0.0,0.0,0.0,0.0,0.0,0.0,0.0,0.0,0.0,0.0,0.0,0.0,0.0,0.0,0.0,0.0,0.0,0.0,0.0,0.0,0.0,0.0,0.0,0.0,0.0,0.0,0.0,0.0,0.0,0.0,0.0,0.0,0.0,0.0,0.0,0.0,0.0,0.0,0.0,4.5326,4.6302,4.6954,4.7448,4.7939,4.8337,4.5545,3.7659,2.3185,0.9836,0.0,0.0,0.0,0.0,0.0,0.0,0.0,0.0,0.0,0.0,0.0,0.0,0.0,0.0,0.0,0.0,0.0,0.0,0.0,0.0,0.0,0.0,0.0,0.0,0.0,0.0,0.0,0.0,0.0,0.0,0.0,0.0,0.0,0.0,0.0,0.0,0.0,0.0,0.0,0.0,0.0,0.0,0.0,0.0,0.0,0.0,0.0,0.0,0.0,0.0,0.0,0.0,0.0,0.0,0.0,0.0,0.0,0.0,0.0,0.0,0.0,0.0,0.0,0.0,0.0,0.0,0.0,0.0,0.0,0.0,0.0,0.0,0.0,0.0,0.0,0.0,0.0,0.0,0.0,0.0,0.0,0.0,0.0,0.0,0.0,0.0,0.0,0.0,0.0,0.0,0.0,0.0,0.0,0.0,0.0,0.0,0.0,0.0,0.0,0.0,0.0,0.0,4.5994,4.6234,4.6953,4.7381,4.7816,4.8342,4.8278,3.8866,1.6996,0.8809,0.0,0.0,0.0,0.0,0.0,0.0,0.0,0.0,0.0,0.0,0.0,0.0,0.0,0.0,0.0,0.0,0.0,0.0,0.0,0.0,0.0,0.0,0.0,0.0,0.0,0.0,0.0,0.0,0.0,0.0,0.0,0.0,0.0,0.0,0.0,0.0,0.0,0.0,0.0,0.0,0.0,0.0,0.0,0.0,0.0,0.0,0.0,0.0,0.0,0.0,0.0,0.0,0.0,0.0,0.0,0.0,0.0,0.0,0.0,0.0,0.0,0.0,0.0,0.0,0.0,0.0,0.0,0.0,0.0,0.0,0.0,0.0,0.0,0.0,0.0,0.0,0.0,0.0,0.0,0.0,0.0,0.0,0.0,0.0,0.0,0.0,0.0,0.0,0.0,0.0,0.0,0.0,0.0,0.0,0.0,0.0,0.0,0.0,0.0,0.0,0.0,0.0,0.0,4.3802,4.6921,4.7429,4.7729,4.8245,4.8219,3.6191,0.8116,0.0,0.0,0.0,0.0,0.0,0.0,0.0,0.0,0.0,0.0,0.0,0.0,0.0,0.0,0.0,0.0,0.0,0.0,0.0,0.0,0.0,0.0,0.0,0.0,0.0,0.0,0.0,0.0,0.0,0.0,0.0,0.0,0.0,0.0,0.0,0.0,0.0,0.0,0.0,0.0,0.0,0.0,0.0,0.0,0.0,0.0,0.0,0.0,0.0,0.0,0.0,0.0,0.0,0.0,0.0,0.0,0.0,0.0,0.0,0.0,0.0,0.0,0.0,0.0,0.0,0.0,0.0,0.0,0.0,0.0,0.0,0.0,0.0,0.0,0.0,0.0,0.0,0.0,0.0,0.0,0.0,0.0,0.0,0.0,0.0,0.0,0.0,0.0,0.0,0.0,0.0,0.0,0.0,0.0,0.0,0.0,0.0,0.0,0.0,0.0,0.0,0.0,0.0,0.0,3.2917,4.6695,4.7534,4.7292,4.7704,4.7817,3.975,2.0661,0.0,0.0,0.0,0.0,0.0,0.0,0.0,0.0,0.0,0.0,0.0,0.0,0.0,0.0]}]]]